<?xml version="1.0" encoding="UTF-8" standalone="no" ?>
<gpx xmlns="http://www.topografix.com/GPX/1/1" xmlns:xsi="http://www.w3.org/2001/XMLSchema-instance" xsi:schemaLocation="http://www.topografix.com/GPX/1/1 http://www.topografix.com/GPX/1/1/gpx.xsd" version="1.1" creator="VisuGPX - https://www.visugpx.com">
  <metadata>
    <name>Bois Court-Grand Bassin-Bois Court par Mollaret</name>
    <desc><![CDATA[Un circuit très agréable qui permet de descendre à Grand Bassin et de remonter par un autre sentier que le classique; à partir du parking du piton des neiges, si la route retour jusqu%u2019à Bois Court vous rebute, laisser une deuxième voiture au parking. ]]></desc>
  </metadata>
  <trk>
    <name><![CDATA[boucle bois court par mollaret]]></name>
    <trkseg>
      <trkpt lat="-21.19136" lon="55.53695">
        <ele>1391.4</ele>
        <time>2013-08-28T03:35:05Z</time>
      </trkpt>
      <trkpt lat="-21.19128" lon="55.53695">
        <ele>1392.1</ele>
        <time>2013-08-28T03:35:16Z</time>
      </trkpt>
      <trkpt lat="-21.1912" lon="55.53692">
        <ele>1390.1</ele>
        <time>2013-08-28T03:35:22Z</time>
      </trkpt>
      <trkpt lat="-21.19112" lon="55.53689">
        <ele>1390.8</ele>
        <time>2013-08-28T03:35:32Z</time>
      </trkpt>
      <trkpt lat="-21.19104" lon="55.53689">
        <ele>1390.8</ele>
        <time>2013-08-28T03:35:39Z</time>
      </trkpt>
      <trkpt lat="-21.19095" lon="55.53688">
        <ele>1391.4</ele>
        <time>2013-08-28T03:35:47Z</time>
      </trkpt>
      <trkpt lat="-21.19093" lon="55.53687">
        <ele>1391.6</ele>
        <time>2013-08-28T03:35:48Z</time>
      </trkpt>
      <trkpt lat="-21.19083" lon="55.53675">
        <ele>1391</ele>
        <time>2013-08-28T03:35:58Z</time>
      </trkpt>
      <trkpt lat="-21.19078" lon="55.53668">
        <ele>1390.5</ele>
        <time>2013-08-28T03:36:03Z</time>
      </trkpt>
      <trkpt lat="-21.19073" lon="55.53661">
        <ele>1390.3</ele>
        <time>2013-08-28T03:36:09Z</time>
      </trkpt>
      <trkpt lat="-21.19068" lon="55.53653">
        <ele>1390.7</ele>
        <time>2013-08-28T03:36:15Z</time>
      </trkpt>
      <trkpt lat="-21.19065" lon="55.53646">
        <ele>1390</ele>
        <time>2013-08-28T03:36:21Z</time>
      </trkpt>
      <trkpt lat="-21.19061" lon="55.53638">
        <ele>1390.3</ele>
        <time>2013-08-28T03:36:26Z</time>
      </trkpt>
      <trkpt lat="-21.19056" lon="55.53631">
        <ele>1390.2</ele>
        <time>2013-08-28T03:36:31Z</time>
      </trkpt>
      <trkpt lat="-21.19054" lon="55.53623">
        <ele>1390.5</ele>
        <time>2013-08-28T03:36:37Z</time>
      </trkpt>
      <trkpt lat="-21.19051" lon="55.53615">
        <ele>1390</ele>
        <time>2013-08-28T03:36:43Z</time>
      </trkpt>
      <trkpt lat="-21.19048" lon="55.53606">
        <ele>1389.1</ele>
        <time>2013-08-28T03:36:49Z</time>
      </trkpt>
      <trkpt lat="-21.19048" lon="55.53605">
        <ele>1389.4</ele>
        <time>2013-08-28T03:36:50Z</time>
      </trkpt>
      <trkpt lat="-21.19043" lon="55.5359">
        <ele>1388</ele>
        <time>2013-08-28T03:37:00Z</time>
      </trkpt>
      <trkpt lat="-21.19045" lon="55.53582">
        <ele>1387.2</ele>
        <time>2013-08-28T03:37:06Z</time>
      </trkpt>
      <trkpt lat="-21.19047" lon="55.53574">
        <ele>1385</ele>
        <time>2013-08-28T03:37:11Z</time>
      </trkpt>
      <trkpt lat="-21.19048" lon="55.53565">
        <ele>1385.8</ele>
        <time>2013-08-28T03:37:16Z</time>
      </trkpt>
      <trkpt lat="-21.19049" lon="55.53556">
        <ele>1385.1</ele>
        <time>2013-08-28T03:37:22Z</time>
      </trkpt>
      <trkpt lat="-21.19052" lon="55.53548">
        <ele>1384.2</ele>
        <time>2013-08-28T03:37:28Z</time>
      </trkpt>
      <trkpt lat="-21.19057" lon="55.53541">
        <ele>1382.9</ele>
        <time>2013-08-28T03:37:35Z</time>
      </trkpt>
      <trkpt lat="-21.19057" lon="55.53532">
        <ele>1380.6</ele>
        <time>2013-08-28T03:37:44Z</time>
      </trkpt>
      <trkpt lat="-21.19061" lon="55.53524">
        <ele>1378.6</ele>
        <time>2013-08-28T03:37:51Z</time>
      </trkpt>
      <trkpt lat="-21.19062" lon="55.53523">
        <ele>1378.5</ele>
        <time>2013-08-28T03:37:52Z</time>
      </trkpt>
      <trkpt lat="-21.19072" lon="55.53508">
        <ele>1376.2</ele>
        <time>2013-08-28T03:38:05Z</time>
      </trkpt>
      <trkpt lat="-21.19076" lon="55.53501">
        <ele>1376.7</ele>
        <time>2013-08-28T03:38:11Z</time>
      </trkpt>
      <trkpt lat="-21.1908" lon="55.53493">
        <ele>1375.6</ele>
        <time>2013-08-28T03:38:17Z</time>
      </trkpt>
      <trkpt lat="-21.19084" lon="55.53485">
        <ele>1375.6</ele>
        <time>2013-08-28T03:38:24Z</time>
      </trkpt>
      <trkpt lat="-21.1909" lon="55.53479">
        <ele>1374.7</ele>
        <time>2013-08-28T03:38:32Z</time>
      </trkpt>
      <trkpt lat="-21.19095" lon="55.53471">
        <ele>1374.6</ele>
        <time>2013-08-28T03:38:39Z</time>
      </trkpt>
      <trkpt lat="-21.19099" lon="55.53464">
        <ele>1373.5</ele>
        <time>2013-08-28T03:38:45Z</time>
      </trkpt>
      <trkpt lat="-21.19103" lon="55.53456">
        <ele>1372.6</ele>
        <time>2013-08-28T03:38:51Z</time>
      </trkpt>
      <trkpt lat="-21.19108" lon="55.53449">
        <ele>1372.2</ele>
        <time>2013-08-28T03:38:57Z</time>
      </trkpt>
      <trkpt lat="-21.19109" lon="55.53448">
        <ele>1372.3</ele>
        <time>2013-08-28T03:38:58Z</time>
      </trkpt>
      <trkpt lat="-21.1912" lon="55.53437">
        <ele>1369.7</ele>
        <time>2013-08-28T03:39:09Z</time>
      </trkpt>
      <trkpt lat="-21.19126" lon="55.5343">
        <ele>1370.7</ele>
        <time>2013-08-28T03:39:16Z</time>
      </trkpt>
      <trkpt lat="-21.1913" lon="55.53424">
        <ele>1370.7</ele>
        <time>2013-08-28T03:39:22Z</time>
      </trkpt>
      <trkpt lat="-21.19136" lon="55.53418">
        <ele>1370.2</ele>
        <time>2013-08-28T03:39:27Z</time>
      </trkpt>
      <trkpt lat="-21.19142" lon="55.53412">
        <ele>1370.5</ele>
        <time>2013-08-28T03:39:32Z</time>
      </trkpt>
      <trkpt lat="-21.19148" lon="55.53407">
        <ele>1369.5</ele>
        <time>2013-08-28T03:39:38Z</time>
      </trkpt>
      <trkpt lat="-21.19154" lon="55.534">
        <ele>1369.5</ele>
        <time>2013-08-28T03:39:45Z</time>
      </trkpt>
      <trkpt lat="-21.19157" lon="55.53392">
        <ele>1370.1</ele>
        <time>2013-08-28T03:39:51Z</time>
      </trkpt>
      <trkpt lat="-21.1916" lon="55.53384">
        <ele>1370</ele>
        <time>2013-08-28T03:39:57Z</time>
      </trkpt>
      <trkpt lat="-21.19162" lon="55.53377">
        <ele>1368</ele>
        <time>2013-08-28T03:40:03Z</time>
      </trkpt>
      <trkpt lat="-21.19163" lon="55.53375">
        <ele>1367.9</ele>
        <time>2013-08-28T03:40:04Z</time>
      </trkpt>
      <trkpt lat="-21.19167" lon="55.5336">
        <ele>1365.8</ele>
        <time>2013-08-28T03:40:16Z</time>
      </trkpt>
      <trkpt lat="-21.19169" lon="55.53351">
        <ele>1363.2</ele>
        <time>2013-08-28T03:40:22Z</time>
      </trkpt>
      <trkpt lat="-21.19171" lon="55.53342">
        <ele>1363.1</ele>
        <time>2013-08-28T03:40:29Z</time>
      </trkpt>
      <trkpt lat="-21.19174" lon="55.53335">
        <ele>1360.8</ele>
        <time>2013-08-28T03:40:34Z</time>
      </trkpt>
      <trkpt lat="-21.19177" lon="55.53326">
        <ele>1359.4</ele>
        <time>2013-08-28T03:40:40Z</time>
      </trkpt>
      <trkpt lat="-21.19177" lon="55.53317">
        <ele>1358.2</ele>
        <time>2013-08-28T03:40:46Z</time>
      </trkpt>
      <trkpt lat="-21.1918" lon="55.53309">
        <ele>1357.6</ele>
        <time>2013-08-28T03:40:52Z</time>
      </trkpt>
      <trkpt lat="-21.19181" lon="55.533">
        <ele>1356.2</ele>
        <time>2013-08-28T03:40:58Z</time>
      </trkpt>
      <trkpt lat="-21.19182" lon="55.53291">
        <ele>1356.2</ele>
        <time>2013-08-28T03:41:03Z</time>
      </trkpt>
      <trkpt lat="-21.19185" lon="55.53283">
        <ele>1355.7</ele>
        <time>2013-08-28T03:41:08Z</time>
      </trkpt>
      <trkpt lat="-21.19186" lon="55.53281">
        <ele>1355.5</ele>
        <time>2013-08-28T03:41:09Z</time>
      </trkpt>
      <trkpt lat="-21.19191" lon="55.53266">
        <ele>1354.4</ele>
        <time>2013-08-28T03:41:18Z</time>
      </trkpt>
      <trkpt lat="-21.19194" lon="55.53257">
        <ele>1354.5</ele>
        <time>2013-08-28T03:41:23Z</time>
      </trkpt>
      <trkpt lat="-21.19197" lon="55.53249">
        <ele>1353.6</ele>
        <time>2013-08-28T03:41:28Z</time>
      </trkpt>
      <trkpt lat="-21.19198" lon="55.5324">
        <ele>1353</ele>
        <time>2013-08-28T03:41:33Z</time>
      </trkpt>
      <trkpt lat="-21.19201" lon="55.53232">
        <ele>1351.8</ele>
        <time>2013-08-28T03:41:38Z</time>
      </trkpt>
      <trkpt lat="-21.19206" lon="55.53225">
        <ele>1351.7</ele>
        <time>2013-08-28T03:41:43Z</time>
      </trkpt>
      <trkpt lat="-21.19209" lon="55.53218">
        <ele>1352.4</ele>
        <time>2013-08-28T03:41:48Z</time>
      </trkpt>
      <trkpt lat="-21.19214" lon="55.53211">
        <ele>1352.5</ele>
        <time>2013-08-28T03:41:54Z</time>
      </trkpt>
      <trkpt lat="-21.19219" lon="55.53205">
        <ele>1353.1</ele>
        <time>2013-08-28T03:41:59Z</time>
      </trkpt>
      <trkpt lat="-21.19225" lon="55.53198">
        <ele>1352</ele>
        <time>2013-08-28T03:42:04Z</time>
      </trkpt>
      <trkpt lat="-21.1923" lon="55.5319">
        <ele>1351.2</ele>
        <time>2013-08-28T03:42:09Z</time>
      </trkpt>
      <trkpt lat="-21.19235" lon="55.53184">
        <ele>1351.2</ele>
        <time>2013-08-28T03:42:14Z</time>
      </trkpt>
      <trkpt lat="-21.19235" lon="55.53182">
        <ele>1350.9</ele>
        <time>2013-08-28T03:42:15Z</time>
      </trkpt>
      <trkpt lat="-21.19242" lon="55.53168">
        <ele>1349.7</ele>
        <time>2013-08-28T03:42:24Z</time>
      </trkpt>
      <trkpt lat="-21.19246" lon="55.53159">
        <ele>1349.9</ele>
        <time>2013-08-28T03:42:29Z</time>
      </trkpt>
      <trkpt lat="-21.19248" lon="55.53152">
        <ele>1348</ele>
        <time>2013-08-28T03:42:33Z</time>
      </trkpt>
      <trkpt lat="-21.19249" lon="55.53143">
        <ele>1346.7</ele>
        <time>2013-08-28T03:42:38Z</time>
      </trkpt>
      <trkpt lat="-21.1925" lon="55.53134">
        <ele>1345.7</ele>
        <time>2013-08-28T03:42:43Z</time>
      </trkpt>
      <trkpt lat="-21.1925" lon="55.53125">
        <ele>1344.6</ele>
        <time>2013-08-28T03:42:48Z</time>
      </trkpt>
      <trkpt lat="-21.19251" lon="55.53117">
        <ele>1343</ele>
        <time>2013-08-28T03:42:54Z</time>
      </trkpt>
      <trkpt lat="-21.19254" lon="55.53109">
        <ele>1342.4</ele>
        <time>2013-08-28T03:43:00Z</time>
      </trkpt>
      <trkpt lat="-21.19256" lon="55.53101">
        <ele>1342.9</ele>
        <time>2013-08-28T03:43:06Z</time>
      </trkpt>
      <trkpt lat="-21.19259" lon="55.53093">
        <ele>1341.4</ele>
        <time>2013-08-28T03:43:12Z</time>
      </trkpt>
      <trkpt lat="-21.19262" lon="55.53086">
        <ele>1341.1</ele>
        <time>2013-08-28T03:43:17Z</time>
      </trkpt>
      <trkpt lat="-21.19263" lon="55.53084">
        <ele>1341.1</ele>
        <time>2013-08-28T03:43:18Z</time>
      </trkpt>
      <trkpt lat="-21.1927" lon="55.5307">
        <ele>1341.1</ele>
        <time>2013-08-28T03:43:28Z</time>
      </trkpt>
      <trkpt lat="-21.19276" lon="55.53063">
        <ele>1339.5</ele>
        <time>2013-08-28T03:43:35Z</time>
      </trkpt>
      <trkpt lat="-21.19283" lon="55.5306">
        <ele>1337.9</ele>
        <time>2013-08-28T03:43:42Z</time>
      </trkpt>
      <trkpt lat="-21.19278" lon="55.53053">
        <ele>1334.7</ele>
        <time>2013-08-28T03:43:54Z</time>
      </trkpt>
      <trkpt lat="-21.19271" lon="55.53047">
        <ele>1329.6</ele>
        <time>2013-08-28T03:44:07Z</time>
      </trkpt>
      <trkpt lat="-21.19266" lon="55.5304">
        <ele>1324.5</ele>
        <time>2013-08-28T03:44:27Z</time>
      </trkpt>
      <trkpt lat="-21.19265" lon="55.53039">
        <ele>1324.2</ele>
        <time>2013-08-28T03:44:28Z</time>
      </trkpt>
      <trkpt lat="-21.19264" lon="55.53024">
        <ele>1313.9</ele>
        <time>2013-08-28T03:44:58Z</time>
      </trkpt>
      <trkpt lat="-21.19269" lon="55.53017">
        <ele>1304.2</ele>
        <time>2013-08-28T03:45:28Z</time>
      </trkpt>
      <trkpt lat="-21.19277" lon="55.53014">
        <ele>1302.8</ele>
        <time>2013-08-28T03:45:38Z</time>
      </trkpt>
      <trkpt lat="-21.19278" lon="55.53014">
        <ele>1302.7</ele>
        <time>2013-08-28T03:45:39Z</time>
      </trkpt>
      <trkpt lat="-21.19263" lon="55.53004">
        <ele>1295</ele>
        <time>2013-08-28T03:46:03Z</time>
      </trkpt>
      <trkpt lat="-21.19261" lon="55.52995">
        <ele>1290.5</ele>
        <time>2013-08-28T03:46:16Z</time>
      </trkpt>
      <trkpt lat="-21.19269" lon="55.52994">
        <ele>1286</ele>
        <time>2013-08-28T03:46:35Z</time>
      </trkpt>
      <trkpt lat="-21.19271" lon="55.52985">
        <ele>1280.8</ele>
        <time>2013-08-28T03:46:53Z</time>
      </trkpt>
      <trkpt lat="-21.19271" lon="55.52983">
        <ele>1280.7</ele>
        <time>2013-08-28T03:46:54Z</time>
      </trkpt>
      <trkpt lat="-21.19266" lon="55.52969">
        <ele>1276.7</ele>
        <time>2013-08-28T03:47:13Z</time>
      </trkpt>
      <trkpt lat="-21.19259" lon="55.52964">
        <ele>1275</ele>
        <time>2013-08-28T03:47:21Z</time>
      </trkpt>
      <trkpt lat="-21.1925" lon="55.52961">
        <ele>1273.1</ele>
        <time>2013-08-28T03:47:32Z</time>
      </trkpt>
      <trkpt lat="-21.19252" lon="55.52952">
        <ele>1267.7</ele>
        <time>2013-08-28T03:47:50Z</time>
      </trkpt>
      <trkpt lat="-21.19252" lon="55.52943">
        <ele>1253.8</ele>
        <time>2013-08-28T03:48:37Z</time>
      </trkpt>
      <trkpt lat="-21.19253" lon="55.52942">
        <ele>1253.8</ele>
        <time>2013-08-28T03:48:38Z</time>
      </trkpt>
      <trkpt lat="-21.19267" lon="55.5294">
        <ele>1249.9</ele>
        <time>2013-08-28T03:48:55Z</time>
      </trkpt>
      <trkpt lat="-21.19267" lon="55.52931">
        <ele>1242</ele>
        <time>2013-08-28T03:49:19Z</time>
      </trkpt>
      <trkpt lat="-21.19274" lon="55.52925">
        <ele>1228.3</ele>
        <time>2013-08-28T03:49:58Z</time>
      </trkpt>
      <trkpt lat="-21.19274" lon="55.52925">
        <ele>1228.2</ele>
        <time>2013-08-28T03:49:59Z</time>
      </trkpt>
      <trkpt lat="-21.19266" lon="55.52914">
        <ele>1222</ele>
        <time>2013-08-28T03:50:30Z</time>
      </trkpt>
      <trkpt lat="-21.19258" lon="55.52918">
        <ele>1217.4</ele>
        <time>2013-08-28T03:50:43Z</time>
      </trkpt>
      <trkpt lat="-21.19252" lon="55.52924">
        <ele>1216.7</ele>
        <time>2013-08-28T03:50:50Z</time>
      </trkpt>
      <trkpt lat="-21.19249" lon="55.52931">
        <ele>1216.9</ele>
        <time>2013-08-28T03:50:54Z</time>
      </trkpt>
      <trkpt lat="-21.19242" lon="55.52937">
        <ele>1216.4</ele>
        <time>2013-08-28T03:50:59Z</time>
      </trkpt>
      <trkpt lat="-21.19234" lon="55.52936">
        <ele>1216.7</ele>
        <time>2013-08-28T03:51:05Z</time>
      </trkpt>
      <trkpt lat="-21.19233" lon="55.52936">
        <ele>1216.8</ele>
        <time>2013-08-28T03:51:06Z</time>
      </trkpt>
      <trkpt lat="-21.19222" lon="55.52925">
        <ele>1218.3</ele>
        <time>2013-08-28T03:51:18Z</time>
      </trkpt>
      <trkpt lat="-21.19216" lon="55.52919">
        <ele>1219.7</ele>
        <time>2013-08-28T03:51:26Z</time>
      </trkpt>
      <trkpt lat="-21.19209" lon="55.52913">
        <ele>1220</ele>
        <time>2013-08-28T03:51:31Z</time>
      </trkpt>
      <trkpt lat="-21.19201" lon="55.52913">
        <ele>1220.8</ele>
        <time>2013-08-28T03:51:36Z</time>
      </trkpt>
      <trkpt lat="-21.19193" lon="55.52912">
        <ele>1222</ele>
        <time>2013-08-28T03:51:41Z</time>
      </trkpt>
      <trkpt lat="-21.19185" lon="55.52915">
        <ele>1222.6</ele>
        <time>2013-08-28T03:51:46Z</time>
      </trkpt>
      <trkpt lat="-21.19183" lon="55.52924">
        <ele>1222.4</ele>
        <time>2013-08-28T03:51:51Z</time>
      </trkpt>
      <trkpt lat="-21.19183" lon="55.52933">
        <ele>1222.8</ele>
        <time>2013-08-28T03:51:56Z</time>
      </trkpt>
      <trkpt lat="-21.19186" lon="55.5294">
        <ele>1223.6</ele>
        <time>2013-08-28T03:52:01Z</time>
      </trkpt>
      <trkpt lat="-21.1919" lon="55.52947">
        <ele>1222.3</ele>
        <time>2013-08-28T03:52:06Z</time>
      </trkpt>
      <trkpt lat="-21.19191" lon="55.52949">
        <ele>1222.1</ele>
        <time>2013-08-28T03:52:07Z</time>
      </trkpt>
      <trkpt lat="-21.192" lon="55.5296">
        <ele>1222.4</ele>
        <time>2013-08-28T03:52:17Z</time>
      </trkpt>
      <trkpt lat="-21.192" lon="55.52969">
        <ele>1222.4</ele>
        <time>2013-08-28T03:52:23Z</time>
      </trkpt>
      <trkpt lat="-21.19198" lon="55.52977">
        <ele>1220.5</ele>
        <time>2013-08-28T03:52:27Z</time>
      </trkpt>
      <trkpt lat="-21.19201" lon="55.52985">
        <ele>1219.3</ele>
        <time>2013-08-28T03:52:32Z</time>
      </trkpt>
      <trkpt lat="-21.19204" lon="55.52992">
        <ele>1217.5</ele>
        <time>2013-08-28T03:52:37Z</time>
      </trkpt>
      <trkpt lat="-21.19209" lon="55.53001">
        <ele>1215</ele>
        <time>2013-08-28T03:52:44Z</time>
      </trkpt>
      <trkpt lat="-21.19205" lon="55.53009">
        <ele>1214.9</ele>
        <time>2013-08-28T03:52:52Z</time>
      </trkpt>
      <trkpt lat="-21.19195" lon="55.53021">
        <ele>1216</ele>
        <time>2013-08-28T03:53:02Z</time>
      </trkpt>
      <trkpt lat="-21.19191" lon="55.53028">
        <ele>1216.5</ele>
        <time>2013-08-28T03:53:08Z</time>
      </trkpt>
      <trkpt lat="-21.1919" lon="55.5303">
        <ele>1216.5</ele>
        <time>2013-08-28T03:53:09Z</time>
      </trkpt>
      <trkpt lat="-21.19174" lon="55.5303">
        <ele>1218.1</ele>
        <time>2013-08-28T03:53:17Z</time>
      </trkpt>
      <trkpt lat="-21.19166" lon="55.53032">
        <ele>1217.9</ele>
        <time>2013-08-28T03:53:22Z</time>
      </trkpt>
      <trkpt lat="-21.1916" lon="55.53039">
        <ele>1218.5</ele>
        <time>2013-08-28T03:53:30Z</time>
      </trkpt>
      <trkpt lat="-21.19161" lon="55.53048">
        <ele>1218.9</ele>
        <time>2013-08-28T03:53:35Z</time>
      </trkpt>
      <trkpt lat="-21.1916" lon="55.53056">
        <ele>1219.6</ele>
        <time>2013-08-28T03:53:39Z</time>
      </trkpt>
      <trkpt lat="-21.19163" lon="55.53062">
        <ele>1220.2</ele>
        <time>2013-08-28T03:53:42Z</time>
      </trkpt>
      <trkpt lat="-21.19165" lon="55.53071">
        <ele>1220.8</ele>
        <time>2013-08-28T03:53:46Z</time>
      </trkpt>
      <trkpt lat="-21.19165" lon="55.5308">
        <ele>1219.4</ele>
        <time>2013-08-28T03:53:51Z</time>
      </trkpt>
      <trkpt lat="-21.19164" lon="55.53088">
        <ele>1218.1</ele>
        <time>2013-08-28T03:53:56Z</time>
      </trkpt>
      <trkpt lat="-21.19166" lon="55.53098">
        <ele>1216.1</ele>
        <time>2013-08-28T03:54:07Z</time>
      </trkpt>
      <trkpt lat="-21.1917" lon="55.53103">
        <ele>1215.8</ele>
        <time>2013-08-28T03:54:32Z</time>
      </trkpt>
      <trkpt lat="-21.19173" lon="55.53105">
        <ele>1215.5</ele>
        <time>2013-08-28T03:54:33Z</time>
      </trkpt>
      <trkpt lat="-21.1918" lon="55.5311">
        <ele>1215.3</ele>
        <time>2013-08-28T03:54:35Z</time>
      </trkpt>
      <trkpt lat="-21.19185" lon="55.53113">
        <ele>1215.3</ele>
        <time>2013-08-28T03:54:36Z</time>
      </trkpt>
      <trkpt lat="-21.19189" lon="55.53117">
        <ele>1215.6</ele>
        <time>2013-08-28T03:54:37Z</time>
      </trkpt>
      <trkpt lat="-21.19177" lon="55.53125">
        <ele>1218</ele>
        <time>2013-08-28T03:54:58Z</time>
      </trkpt>
      <trkpt lat="-21.19162" lon="55.53133">
        <ele>1216</ele>
        <time>2013-08-28T03:55:11Z</time>
      </trkpt>
      <trkpt lat="-21.19159" lon="55.53147">
        <ele>1216</ele>
        <time>2013-08-28T03:55:27Z</time>
      </trkpt>
      <trkpt lat="-21.19152" lon="55.53152">
        <ele>1221.2</ele>
        <time>2013-08-28T03:55:46Z</time>
      </trkpt>
      <trkpt lat="-21.1915" lon="55.53153">
        <ele>1221.2</ele>
        <time>2013-08-28T03:55:47Z</time>
      </trkpt>
      <trkpt lat="-21.19138" lon="55.53162">
        <ele>1220.5</ele>
        <time>2013-08-28T03:55:56Z</time>
      </trkpt>
      <trkpt lat="-21.1913" lon="55.53165">
        <ele>1219.6</ele>
        <time>2013-08-28T03:56:01Z</time>
      </trkpt>
      <trkpt lat="-21.19124" lon="55.5317">
        <ele>1219.6</ele>
        <time>2013-08-28T03:56:05Z</time>
      </trkpt>
      <trkpt lat="-21.19117" lon="55.53174">
        <ele>1220.6</ele>
        <time>2013-08-28T03:56:13Z</time>
      </trkpt>
      <trkpt lat="-21.19109" lon="55.53176">
        <ele>1221.7</ele>
        <time>2013-08-28T03:56:18Z</time>
      </trkpt>
      <trkpt lat="-21.1911" lon="55.53185">
        <ele>1220</ele>
        <time>2013-08-28T03:56:29Z</time>
      </trkpt>
      <trkpt lat="-21.19113" lon="55.53192">
        <ele>1217.6</ele>
        <time>2013-08-28T03:56:36Z</time>
      </trkpt>
      <trkpt lat="-21.19115" lon="55.532">
        <ele>1214.6</ele>
        <time>2013-08-28T03:56:43Z</time>
      </trkpt>
      <trkpt lat="-21.19115" lon="55.5321">
        <ele>1213</ele>
        <time>2013-08-28T03:56:49Z</time>
      </trkpt>
      <trkpt lat="-21.19114" lon="55.53211">
        <ele>1212.8</ele>
        <time>2013-08-28T03:56:50Z</time>
      </trkpt>
      <trkpt lat="-21.19105" lon="55.53222">
        <ele>1208.4</ele>
        <time>2013-08-28T03:57:01Z</time>
      </trkpt>
      <trkpt lat="-21.19098" lon="55.53226">
        <ele>1206.9</ele>
        <time>2013-08-28T03:57:07Z</time>
      </trkpt>
      <trkpt lat="-21.19092" lon="55.53231">
        <ele>1205.6</ele>
        <time>2013-08-28T03:57:12Z</time>
      </trkpt>
      <trkpt lat="-21.19085" lon="55.53236">
        <ele>1205.3</ele>
        <time>2013-08-28T03:57:17Z</time>
      </trkpt>
      <trkpt lat="-21.19077" lon="55.53235">
        <ele>1205.5</ele>
        <time>2013-08-28T03:57:22Z</time>
      </trkpt>
      <trkpt lat="-21.19069" lon="55.53236">
        <ele>1206.5</ele>
        <time>2013-08-28T03:57:29Z</time>
      </trkpt>
      <trkpt lat="-21.19061" lon="55.53241">
        <ele>1200.8</ele>
        <time>2013-08-28T03:57:54Z</time>
      </trkpt>
      <trkpt lat="-21.19061" lon="55.53242">
        <ele>1200.6</ele>
        <time>2013-08-28T03:57:55Z</time>
      </trkpt>
      <trkpt lat="-21.19048" lon="55.5325">
        <ele>1196</ele>
        <time>2013-08-28T03:58:08Z</time>
      </trkpt>
      <trkpt lat="-21.19043" lon="55.53257">
        <ele>1195.3</ele>
        <time>2013-08-28T03:58:13Z</time>
      </trkpt>
      <trkpt lat="-21.19043" lon="55.53266">
        <ele>1193.7</ele>
        <time>2013-08-28T03:58:19Z</time>
      </trkpt>
      <trkpt lat="-21.19045" lon="55.53275">
        <ele>1192.5</ele>
        <time>2013-08-28T03:58:26Z</time>
      </trkpt>
      <trkpt lat="-21.19046" lon="55.53284">
        <ele>1191.8</ele>
        <time>2013-08-28T03:58:34Z</time>
      </trkpt>
      <trkpt lat="-21.1905" lon="55.53293">
        <ele>1190.7</ele>
        <time>2013-08-28T03:58:41Z</time>
      </trkpt>
      <trkpt lat="-21.19055" lon="55.53299">
        <ele>1188.2</ele>
        <time>2013-08-28T03:58:47Z</time>
      </trkpt>
      <trkpt lat="-21.19041" lon="55.53303">
        <ele>1186</ele>
        <time>2013-08-28T03:59:06Z</time>
      </trkpt>
      <trkpt lat="-21.19037" lon="55.53305">
        <ele>1187</ele>
        <time>2013-08-28T03:59:09Z</time>
      </trkpt>
      <trkpt lat="-21.19079" lon="55.53364">
        <ele>1189</ele>
        <time>2013-08-28T03:59:30Z</time>
      </trkpt>
      <trkpt lat="-21.19036" lon="55.53337">
        <ele>1193</ele>
        <time>2013-08-28T03:59:44Z</time>
      </trkpt>
      <trkpt lat="-21.19023" lon="55.53327">
        <ele>1195</ele>
        <time>2013-08-28T03:59:48Z</time>
      </trkpt>
      <trkpt lat="-21.19015" lon="55.53329">
        <ele>1196</ele>
        <time>2013-08-28T03:59:55Z</time>
      </trkpt>
      <trkpt lat="-21.19013" lon="55.53338">
        <ele>1196</ele>
        <time>2013-08-28T04:00:04Z</time>
      </trkpt>
      <trkpt lat="-21.19005" lon="55.53339">
        <ele>1195.7</ele>
        <time>2013-08-28T04:00:11Z</time>
      </trkpt>
      <trkpt lat="-21.19003" lon="55.53338">
        <ele>1195.7</ele>
        <time>2013-08-28T04:00:12Z</time>
      </trkpt>
      <trkpt lat="-21.18989" lon="55.53345">
        <ele>1194.3</ele>
        <time>2013-08-28T04:00:23Z</time>
      </trkpt>
      <trkpt lat="-21.18986" lon="55.53353">
        <ele>1193.6</ele>
        <time>2013-08-28T04:00:30Z</time>
      </trkpt>
      <trkpt lat="-21.18978" lon="55.53356">
        <ele>1190.2</ele>
        <time>2013-08-28T04:00:38Z</time>
      </trkpt>
      <trkpt lat="-21.18967" lon="55.53358">
        <ele>1187</ele>
        <time>2013-08-28T04:00:47Z</time>
      </trkpt>
      <trkpt lat="-21.18958" lon="55.53365">
        <ele>1185</ele>
        <time>2013-08-28T04:00:55Z</time>
      </trkpt>
      <trkpt lat="-21.18951" lon="55.53369">
        <ele>1183.9</ele>
        <time>2013-08-28T04:01:02Z</time>
      </trkpt>
      <trkpt lat="-21.18945" lon="55.53376">
        <ele>1181</ele>
        <time>2013-08-28T04:01:09Z</time>
      </trkpt>
      <trkpt lat="-21.18937" lon="55.53378">
        <ele>1179.6</ele>
        <time>2013-08-28T04:01:15Z</time>
      </trkpt>
      <trkpt lat="-21.18936" lon="55.53379">
        <ele>1179.2</ele>
        <time>2013-08-28T04:01:16Z</time>
      </trkpt>
      <trkpt lat="-21.18931" lon="55.53393">
        <ele>1177.3</ele>
        <time>2013-08-28T04:01:26Z</time>
      </trkpt>
      <trkpt lat="-21.18928" lon="55.53401">
        <ele>1176.7</ele>
        <time>2013-08-28T04:01:32Z</time>
      </trkpt>
      <trkpt lat="-21.18922" lon="55.53407">
        <ele>1174.4</ele>
        <time>2013-08-28T04:01:38Z</time>
      </trkpt>
      <trkpt lat="-21.18915" lon="55.53413">
        <ele>1172.1</ele>
        <time>2013-08-28T04:01:45Z</time>
      </trkpt>
      <trkpt lat="-21.18907" lon="55.53412">
        <ele>1169.2</ele>
        <time>2013-08-28T04:01:52Z</time>
      </trkpt>
      <trkpt lat="-21.18899" lon="55.53409">
        <ele>1168.4</ele>
        <time>2013-08-28T04:01:59Z</time>
      </trkpt>
      <trkpt lat="-21.18891" lon="55.53413">
        <ele>1167.7</ele>
        <time>2013-08-28T04:02:05Z</time>
      </trkpt>
      <trkpt lat="-21.18885" lon="55.53419">
        <ele>1165.8</ele>
        <time>2013-08-28T04:02:14Z</time>
      </trkpt>
      <trkpt lat="-21.18881" lon="55.53426">
        <ele>1163.4</ele>
        <time>2013-08-28T04:02:20Z</time>
      </trkpt>
      <trkpt lat="-21.1888" lon="55.53427">
        <ele>1162.8</ele>
        <time>2013-08-28T04:02:21Z</time>
      </trkpt>
      <trkpt lat="-21.1887" lon="55.53438">
        <ele>1159.5</ele>
        <time>2013-08-28T04:02:33Z</time>
      </trkpt>
      <trkpt lat="-21.18861" lon="55.53438">
        <ele>1148.5</ele>
        <time>2013-08-28T04:03:09Z</time>
      </trkpt>
      <trkpt lat="-21.18861" lon="55.53429">
        <ele>1142.6</ele>
        <time>2013-08-28T04:03:27Z</time>
      </trkpt>
      <trkpt lat="-21.18861" lon="55.53427">
        <ele>1142.3</ele>
        <time>2013-08-28T04:03:28Z</time>
      </trkpt>
      <trkpt lat="-21.18864" lon="55.53412">
        <ele>1137.3</ele>
        <time>2013-08-28T04:03:42Z</time>
      </trkpt>
      <trkpt lat="-21.18855" lon="55.53413">
        <ele>1129.5</ele>
        <time>2013-08-28T04:04:10Z</time>
      </trkpt>
      <trkpt lat="-21.1885" lon="55.53406">
        <ele>1124</ele>
        <time>2013-08-28T04:04:28Z</time>
      </trkpt>
      <trkpt lat="-21.18849" lon="55.53405">
        <ele>1123.6</ele>
        <time>2013-08-28T04:04:29Z</time>
      </trkpt>
      <trkpt lat="-21.18847" lon="55.53403">
        <ele>1113.7</ele>
        <time>2013-08-28T04:05:00Z</time>
      </trkpt>
      <trkpt lat="-21.18839" lon="55.53407">
        <ele>1110.1</ele>
        <time>2013-08-28T04:05:11Z</time>
      </trkpt>
      <trkpt lat="-21.18832" lon="55.53413">
        <ele>1107.6</ele>
        <time>2013-08-28T04:05:21Z</time>
      </trkpt>
      <trkpt lat="-21.18827" lon="55.53422">
        <ele>1104</ele>
        <time>2013-08-28T04:05:29Z</time>
      </trkpt>
      <trkpt lat="-21.18826" lon="55.53424">
        <ele>1104</ele>
        <time>2013-08-28T04:05:31Z</time>
      </trkpt>
      <trkpt lat="-21.18819" lon="55.53419">
        <ele>1096</ele>
        <time>2013-08-28T04:06:05Z</time>
      </trkpt>
      <trkpt lat="-21.18815" lon="55.53429">
        <ele>1092</ele>
        <time>2013-08-28T04:06:29Z</time>
      </trkpt>
      <trkpt lat="-21.18811" lon="55.53439">
        <ele>1091</ele>
        <time>2013-08-28T04:06:37Z</time>
      </trkpt>
      <trkpt lat="-21.18809" lon="55.53442">
        <ele>1091.1</ele>
        <time>2013-08-28T04:06:41Z</time>
      </trkpt>
      <trkpt lat="-21.18807" lon="55.53412">
        <ele>1076</ele>
        <time>2013-08-28T04:07:28Z</time>
      </trkpt>
      <trkpt lat="-21.18806" lon="55.53403">
        <ele>1074</ele>
        <time>2013-08-28T04:07:46Z</time>
      </trkpt>
      <trkpt lat="-21.18806" lon="55.53402">
        <ele>1074.1</ele>
        <time>2013-08-28T04:07:48Z</time>
      </trkpt>
      <trkpt lat="-21.18792" lon="55.53424">
        <ele>1067</ele>
        <time>2013-08-28T04:08:30Z</time>
      </trkpt>
      <trkpt lat="-21.18791" lon="55.53434">
        <ele>1062</ele>
        <time>2013-08-28T04:08:46Z</time>
      </trkpt>
      <trkpt lat="-21.18787" lon="55.53447">
        <ele>1059</ele>
        <time>2013-08-28T04:08:58Z</time>
      </trkpt>
      <trkpt lat="-21.18786" lon="55.53448">
        <ele>1059.7</ele>
        <time>2013-08-28T04:09:00Z</time>
      </trkpt>
      <trkpt lat="-21.18787" lon="55.53453">
        <ele>1059</ele>
        <time>2013-08-28T04:10:00Z</time>
      </trkpt>
      <trkpt lat="-21.18786" lon="55.53456">
        <ele>1059.5</ele>
        <time>2013-08-28T04:10:04Z</time>
      </trkpt>
      <trkpt lat="-21.18794" lon="55.53469">
        <ele>1055</ele>
        <time>2013-08-28T04:11:01Z</time>
      </trkpt>
      <trkpt lat="-21.18791" lon="55.53473">
        <ele>1055.3</ele>
        <time>2013-08-28T04:11:05Z</time>
      </trkpt>
      <trkpt lat="-21.18788" lon="55.53487">
        <ele>1051</ele>
        <time>2013-08-28T04:11:17Z</time>
      </trkpt>
      <trkpt lat="-21.18782" lon="55.53504">
        <ele>1049</ele>
        <time>2013-08-28T04:11:33Z</time>
      </trkpt>
      <trkpt lat="-21.18781" lon="55.53517">
        <ele>1048</ele>
        <time>2013-08-28T04:11:41Z</time>
      </trkpt>
      <trkpt lat="-21.18781" lon="55.53527">
        <ele>1045</ele>
        <time>2013-08-28T04:11:49Z</time>
      </trkpt>
      <trkpt lat="-21.18782" lon="55.53539">
        <ele>1042</ele>
        <time>2013-08-28T04:12:05Z</time>
      </trkpt>
      <trkpt lat="-21.18783" lon="55.53538">
        <ele>1041.7</ele>
        <time>2013-08-28T04:12:09Z</time>
      </trkpt>
      <trkpt lat="-21.18786" lon="55.53506">
        <ele>1034</ele>
        <time>2013-08-28T04:12:37Z</time>
      </trkpt>
      <trkpt lat="-21.18772" lon="55.53511">
        <ele>1028</ele>
        <time>2013-08-28T04:13:01Z</time>
      </trkpt>
      <trkpt lat="-21.18764" lon="55.53522">
        <ele>1023</ele>
        <time>2013-08-28T04:13:15Z</time>
      </trkpt>
      <trkpt lat="-21.18763" lon="55.53524">
        <ele>1023.2</ele>
        <time>2013-08-28T04:13:17Z</time>
      </trkpt>
      <trkpt lat="-21.18755" lon="55.53517">
        <ele>1013</ele>
        <time>2013-08-28T04:13:56Z</time>
      </trkpt>
      <trkpt lat="-21.18761" lon="55.53508">
        <ele>1010</ele>
        <time>2013-08-28T04:14:06Z</time>
      </trkpt>
      <trkpt lat="-21.18757" lon="55.53497">
        <ele>1006</ele>
        <time>2013-08-28T04:14:18Z</time>
      </trkpt>
      <trkpt lat="-21.18757" lon="55.53495">
        <ele>1006.6</ele>
        <time>2013-08-28T04:14:20Z</time>
      </trkpt>
      <trkpt lat="-21.18754" lon="55.53482">
        <ele>995</ele>
        <time>2013-08-28T04:14:52Z</time>
      </trkpt>
      <trkpt lat="-21.18745" lon="55.53474">
        <ele>990</ele>
        <time>2013-08-28T04:15:14Z</time>
      </trkpt>
      <trkpt lat="-21.18736" lon="55.53484">
        <ele>978</ele>
        <time>2013-08-28T04:15:54Z</time>
      </trkpt>
      <trkpt lat="-21.18734" lon="55.53486">
        <ele>978.5</ele>
        <time>2013-08-28T04:15:56Z</time>
      </trkpt>
      <trkpt lat="-21.1872" lon="55.53495">
        <ele>968</ele>
        <time>2013-08-28T04:16:30Z</time>
      </trkpt>
      <trkpt lat="-21.18709" lon="55.53498">
        <ele>965</ele>
        <time>2013-08-28T04:16:38Z</time>
      </trkpt>
      <trkpt lat="-21.187" lon="55.535">
        <ele>965</ele>
        <time>2013-08-28T04:16:46Z</time>
      </trkpt>
      <trkpt lat="-21.18709" lon="55.53493">
        <ele>956</ele>
        <time>2013-08-28T04:17:22Z</time>
      </trkpt>
      <trkpt lat="-21.1871" lon="55.53491">
        <ele>956.4</ele>
        <time>2013-08-28T04:17:24Z</time>
      </trkpt>
      <trkpt lat="-21.18709" lon="55.53469">
        <ele>950</ele>
        <time>2013-08-28T04:17:46Z</time>
      </trkpt>
      <trkpt lat="-21.18703" lon="55.53478">
        <ele>947</ele>
        <time>2013-08-28T04:17:58Z</time>
      </trkpt>
      <trkpt lat="-21.18696" lon="55.5347">
        <ele>934</ele>
        <time>2013-08-28T04:18:46Z</time>
      </trkpt>
      <trkpt lat="-21.18696" lon="55.5347">
        <ele>934.8</ele>
        <time>2013-08-28T04:18:48Z</time>
      </trkpt>
      <trkpt lat="-21.18684" lon="55.53454">
        <ele>915</ele>
        <time>2013-08-28T04:19:50Z</time>
      </trkpt>
      <trkpt lat="-21.18683" lon="55.53454">
        <ele>915</ele>
        <time>2013-08-28T04:19:52Z</time>
      </trkpt>
      <trkpt lat="-21.18668" lon="55.53462">
        <ele>904</ele>
        <time>2013-08-28T04:20:30Z</time>
      </trkpt>
      <trkpt lat="-21.18664" lon="55.53474">
        <ele>902</ele>
        <time>2013-08-28T04:20:38Z</time>
      </trkpt>
      <trkpt lat="-21.18653" lon="55.53477">
        <ele>898</ele>
        <time>2013-08-28T04:20:54Z</time>
      </trkpt>
      <trkpt lat="-21.18651" lon="55.53479">
        <ele>898.4</ele>
        <time>2013-08-28T04:20:56Z</time>
      </trkpt>
      <trkpt lat="-21.18654" lon="55.53456">
        <ele>890</ele>
        <time>2013-08-28T04:21:34Z</time>
      </trkpt>
      <trkpt lat="-21.18657" lon="55.53443">
        <ele>884</ele>
        <time>2013-08-28T04:21:50Z</time>
      </trkpt>
      <trkpt lat="-21.18646" lon="55.53445">
        <ele>878</ele>
        <time>2013-08-28T04:22:10Z</time>
      </trkpt>
      <trkpt lat="-21.18644" lon="55.53446">
        <ele>878.4</ele>
        <time>2013-08-28T04:22:12Z</time>
      </trkpt>
      <trkpt lat="-21.18635" lon="55.53468">
        <ele>871</ele>
        <time>2013-08-28T04:22:34Z</time>
      </trkpt>
      <trkpt lat="-21.18625" lon="55.53465">
        <ele>866</ele>
        <time>2013-08-28T04:22:50Z</time>
      </trkpt>
      <trkpt lat="-21.18616" lon="55.53468">
        <ele>864</ele>
        <time>2013-08-28T04:23:00Z</time>
      </trkpt>
      <trkpt lat="-21.18606" lon="55.53478">
        <ele>861</ele>
        <time>2013-08-28T04:23:14Z</time>
      </trkpt>
      <trkpt lat="-21.18606" lon="55.53483">
        <ele>861.3</ele>
        <time>2013-08-28T04:23:17Z</time>
      </trkpt>
      <trkpt lat="-21.18595" lon="55.53491">
        <ele>858</ele>
        <time>2013-08-28T04:23:39Z</time>
      </trkpt>
      <trkpt lat="-21.18586" lon="55.53488">
        <ele>860.2</ele>
        <time>2013-08-28T04:23:46Z</time>
      </trkpt>
      <trkpt lat="-21.18577" lon="55.53487">
        <ele>861.2</ele>
        <time>2013-08-28T04:23:50Z</time>
      </trkpt>
      <trkpt lat="-21.1857" lon="55.5349">
        <ele>861.8</ele>
        <time>2013-08-28T04:23:53Z</time>
      </trkpt>
      <trkpt lat="-21.18563" lon="55.53493">
        <ele>862</ele>
        <time>2013-08-28T04:23:55Z</time>
      </trkpt>
      <trkpt lat="-21.18559" lon="55.53497">
        <ele>862.2</ele>
        <time>2013-08-28T04:23:57Z</time>
      </trkpt>
      <trkpt lat="-21.18552" lon="55.53501">
        <ele>862.1</ele>
        <time>2013-08-28T04:24:00Z</time>
      </trkpt>
      <trkpt lat="-21.18545" lon="55.53506">
        <ele>862.4</ele>
        <time>2013-08-28T04:24:05Z</time>
      </trkpt>
      <trkpt lat="-21.18539" lon="55.53513">
        <ele>862.9</ele>
        <time>2013-08-28T04:24:09Z</time>
      </trkpt>
      <trkpt lat="-21.18532" lon="55.53518">
        <ele>862.2</ele>
        <time>2013-08-28T04:24:16Z</time>
      </trkpt>
      <trkpt lat="-21.18523" lon="55.53519">
        <ele>861.4</ele>
        <time>2013-08-28T04:24:22Z</time>
      </trkpt>
      <trkpt lat="-21.18522" lon="55.53518">
        <ele>861.5</ele>
        <time>2013-08-28T04:24:23Z</time>
      </trkpt>
      <trkpt lat="-21.18506" lon="55.53518">
        <ele>862.8</ele>
        <time>2013-08-28T04:24:38Z</time>
      </trkpt>
      <trkpt lat="-21.18498" lon="55.53524">
        <ele>865</ele>
        <time>2013-08-28T04:24:55Z</time>
      </trkpt>
      <trkpt lat="-21.18496" lon="55.53532">
        <ele>864.3</ele>
        <time>2013-08-28T04:25:14Z</time>
      </trkpt>
      <trkpt lat="-21.18491" lon="55.5354">
        <ele>863.7</ele>
        <time>2013-08-28T04:25:22Z</time>
      </trkpt>
      <trkpt lat="-21.18483" lon="55.53541">
        <ele>862.1</ele>
        <time>2013-08-28T04:25:29Z</time>
      </trkpt>
      <trkpt lat="-21.18482" lon="55.53541">
        <ele>862.3</ele>
        <time>2013-08-28T04:25:30Z</time>
      </trkpt>
      <trkpt lat="-21.18475" lon="55.53555">
        <ele>859.6</ele>
        <time>2013-08-28T04:25:39Z</time>
      </trkpt>
      <trkpt lat="-21.18472" lon="55.53577">
        <ele>856</ele>
        <time>2013-08-28T04:25:51Z</time>
      </trkpt>
      <trkpt lat="-21.18498" lon="55.536">
        <ele>851</ele>
        <time>2013-08-28T04:26:15Z</time>
      </trkpt>
      <trkpt lat="-21.18525" lon="55.53649">
        <ele>848.2</ele>
        <time>2013-08-28T04:26:44Z</time>
      </trkpt>
      <trkpt lat="-21.18486" lon="55.53676">
        <ele>837</ele>
        <time>2013-08-28T04:27:12Z</time>
      </trkpt>
      <trkpt lat="-21.18488" lon="55.53648">
        <ele>830</ele>
        <time>2013-08-28T04:27:32Z</time>
      </trkpt>
      <trkpt lat="-21.1848" lon="55.53643">
        <ele>825</ele>
        <time>2013-08-28T04:27:49Z</time>
      </trkpt>
      <trkpt lat="-21.18479" lon="55.53651">
        <ele>823.3</ele>
        <time>2013-08-28T04:27:56Z</time>
      </trkpt>
      <trkpt lat="-21.18475" lon="55.53665">
        <ele>816</ele>
        <time>2013-08-28T04:28:22Z</time>
      </trkpt>
      <trkpt lat="-21.18466" lon="55.53657">
        <ele>806</ele>
        <time>2013-08-28T04:28:56Z</time>
      </trkpt>
      <trkpt lat="-21.18458" lon="55.53666">
        <ele>804</ele>
        <time>2013-08-28T04:29:03Z</time>
      </trkpt>
      <trkpt lat="-21.18448" lon="55.53679">
        <ele>795</ele>
        <time>2013-08-28T04:29:28Z</time>
      </trkpt>
      <trkpt lat="-21.18451" lon="55.53707">
        <ele>789</ele>
        <time>2013-08-28T04:29:44Z</time>
      </trkpt>
      <trkpt lat="-21.18443" lon="55.53701">
        <ele>782</ele>
        <time>2013-08-28T04:30:09Z</time>
      </trkpt>
      <trkpt lat="-21.18442" lon="55.537">
        <ele>782.1</ele>
        <time>2013-08-28T04:30:10Z</time>
      </trkpt>
      <trkpt lat="-21.18425" lon="55.53685">
        <ele>774</ele>
        <time>2013-08-28T04:30:37Z</time>
      </trkpt>
      <trkpt lat="-21.18423" lon="55.53675">
        <ele>771</ele>
        <time>2013-08-28T04:30:46Z</time>
      </trkpt>
      <trkpt lat="-21.18412" lon="55.5367">
        <ele>768</ele>
        <time>2013-08-28T04:31:03Z</time>
      </trkpt>
      <trkpt lat="-21.18405" lon="55.53664">
        <ele>765</ele>
        <time>2013-08-28T04:31:15Z</time>
      </trkpt>
      <trkpt lat="-21.18403" lon="55.53663">
        <ele>764.8</ele>
        <time>2013-08-28T04:31:17Z</time>
      </trkpt>
      <trkpt lat="-21.18386" lon="55.53654">
        <ele>759</ele>
        <time>2013-08-28T04:31:55Z</time>
      </trkpt>
      <trkpt lat="-21.18377" lon="55.53655">
        <ele>755</ele>
        <time>2013-08-28T04:32:11Z</time>
      </trkpt>
      <trkpt lat="-21.18368" lon="55.53649">
        <ele>751</ele>
        <time>2013-08-28T04:32:27Z</time>
      </trkpt>
      <trkpt lat="-21.18367" lon="55.53648">
        <ele>751.5</ele>
        <time>2013-08-28T04:32:29Z</time>
      </trkpt>
      <trkpt lat="-21.18354" lon="55.53633">
        <ele>747.3</ele>
        <time>2013-08-28T04:32:49Z</time>
      </trkpt>
      <trkpt lat="-21.18353" lon="55.53624">
        <ele>744.6</ele>
        <time>2013-08-28T04:33:00Z</time>
      </trkpt>
      <trkpt lat="-21.18353" lon="55.53614">
        <ele>741.7</ele>
        <time>2013-08-28T04:33:31Z</time>
      </trkpt>
      <trkpt lat="-21.18353" lon="55.53614">
        <ele>741.9</ele>
        <time>2013-08-28T04:33:32Z</time>
      </trkpt>
      <trkpt lat="-21.18339" lon="55.53603">
        <ele>739</ele>
        <time>2013-08-28T04:33:47Z</time>
      </trkpt>
      <trkpt lat="-21.18332" lon="55.53598">
        <ele>735.9</ele>
        <time>2013-08-28T04:33:56Z</time>
      </trkpt>
      <trkpt lat="-21.18327" lon="55.53593">
        <ele>734.1</ele>
        <time>2013-08-28T04:34:03Z</time>
      </trkpt>
      <trkpt lat="-21.18321" lon="55.53585">
        <ele>733.1</ele>
        <time>2013-08-28T04:34:11Z</time>
      </trkpt>
      <trkpt lat="-21.18316" lon="55.53578">
        <ele>729.4</ele>
        <time>2013-08-28T04:34:24Z</time>
      </trkpt>
      <trkpt lat="-21.18313" lon="55.5357">
        <ele>728.2</ele>
        <time>2013-08-28T04:34:36Z</time>
      </trkpt>
      <trkpt lat="-21.18313" lon="55.53568">
        <ele>727.8</ele>
        <time>2013-08-28T04:34:37Z</time>
      </trkpt>
      <trkpt lat="-21.18304" lon="55.53554">
        <ele>724.4</ele>
        <time>2013-08-28T04:34:51Z</time>
      </trkpt>
      <trkpt lat="-21.18304" lon="55.53545">
        <ele>722</ele>
        <time>2013-08-28T04:35:01Z</time>
      </trkpt>
      <trkpt lat="-21.18304" lon="55.53537">
        <ele>721</ele>
        <time>2013-08-28T04:35:06Z</time>
      </trkpt>
      <trkpt lat="-21.18302" lon="55.53527">
        <ele>720.2</ele>
        <time>2013-08-28T04:35:12Z</time>
      </trkpt>
      <trkpt lat="-21.18302" lon="55.53518">
        <ele>718.8</ele>
        <time>2013-08-28T04:35:19Z</time>
      </trkpt>
      <trkpt lat="-21.18303" lon="55.53509">
        <ele>717.7</ele>
        <time>2013-08-28T04:35:33Z</time>
      </trkpt>
      <trkpt lat="-21.18301" lon="55.535">
        <ele>716.2</ele>
        <time>2013-08-28T04:36:39Z</time>
      </trkpt>
      <trkpt lat="-21.18301" lon="55.53499">
        <ele>716.2</ele>
        <time>2013-08-28T04:36:40Z</time>
      </trkpt>
      <trkpt lat="-21.18289" lon="55.5349">
        <ele>717</ele>
        <time>2013-08-28T04:37:07Z</time>
      </trkpt>
      <trkpt lat="-21.18279" lon="55.5349">
        <ele>717</ele>
        <time>2013-08-28T04:37:38Z</time>
      </trkpt>
      <trkpt lat="-21.18271" lon="55.53492">
        <ele>721.3</ele>
        <time>2013-08-28T04:39:17Z</time>
      </trkpt>
      <trkpt lat="-21.1827" lon="55.53492">
        <ele>721.4</ele>
        <time>2013-08-28T04:39:18Z</time>
      </trkpt>
      <trkpt lat="-21.18267" lon="55.53475">
        <ele>727.8</ele>
        <time>2013-08-28T04:39:47Z</time>
      </trkpt>
      <trkpt lat="-21.18263" lon="55.53466">
        <ele>730.5</ele>
        <time>2013-08-28T04:40:00Z</time>
      </trkpt>
      <trkpt lat="-21.18254" lon="55.53462">
        <ele>732.3</ele>
        <time>2013-08-28T04:40:10Z</time>
      </trkpt>
      <trkpt lat="-21.18246" lon="55.53463">
        <ele>732.1</ele>
        <time>2013-08-28T04:40:16Z</time>
      </trkpt>
      <trkpt lat="-21.18237" lon="55.53462">
        <ele>732.2</ele>
        <time>2013-08-28T04:40:23Z</time>
      </trkpt>
      <trkpt lat="-21.18236" lon="55.53462">
        <ele>732.1</ele>
        <time>2013-08-28T04:40:24Z</time>
      </trkpt>
      <trkpt lat="-21.18223" lon="55.53452">
        <ele>732.9</ele>
        <time>2013-08-28T04:40:40Z</time>
      </trkpt>
      <trkpt lat="-21.18217" lon="55.53446">
        <ele>732.6</ele>
        <time>2013-08-28T04:40:49Z</time>
      </trkpt>
      <trkpt lat="-21.1821" lon="55.53441">
        <ele>732.4</ele>
        <time>2013-08-28T04:41:08Z</time>
      </trkpt>
      <trkpt lat="-21.18201" lon="55.53441">
        <ele>733.5</ele>
        <time>2013-08-28T04:42:29Z</time>
      </trkpt>
      <trkpt lat="-21.18201" lon="55.53442">
        <ele>733.9</ele>
        <time>2013-08-28T04:42:30Z</time>
      </trkpt>
      <trkpt lat="-21.18193" lon="55.53456">
        <ele>733.9</ele>
        <time>2013-08-28T04:42:46Z</time>
      </trkpt>
      <trkpt lat="-21.18187" lon="55.53463">
        <ele>734.5</ele>
        <time>2013-08-28T04:42:54Z</time>
      </trkpt>
      <trkpt lat="-21.1818" lon="55.53468">
        <ele>734.7</ele>
        <time>2013-08-28T04:42:59Z</time>
      </trkpt>
      <trkpt lat="-21.18175" lon="55.53475">
        <ele>735.7</ele>
        <time>2013-08-28T04:43:05Z</time>
      </trkpt>
      <trkpt lat="-21.1817" lon="55.53483">
        <ele>736.6</ele>
        <time>2013-08-28T04:43:11Z</time>
      </trkpt>
      <trkpt lat="-21.18164" lon="55.53488">
        <ele>736.8</ele>
        <time>2013-08-28T04:43:17Z</time>
      </trkpt>
      <trkpt lat="-21.18157" lon="55.53493">
        <ele>737.4</ele>
        <time>2013-08-28T04:43:23Z</time>
      </trkpt>
      <trkpt lat="-21.18149" lon="55.53497">
        <ele>737.3</ele>
        <time>2013-08-28T04:43:29Z</time>
      </trkpt>
      <trkpt lat="-21.18142" lon="55.53503">
        <ele>737.3</ele>
        <time>2013-08-28T04:43:38Z</time>
      </trkpt>
      <trkpt lat="-21.18141" lon="55.53503">
        <ele>737.1</ele>
        <time>2013-08-28T04:43:39Z</time>
      </trkpt>
      <trkpt lat="-21.18131" lon="55.53516">
        <ele>737.1</ele>
        <time>2013-08-28T04:43:58Z</time>
      </trkpt>
      <trkpt lat="-21.18125" lon="55.53523">
        <ele>738.8</ele>
        <time>2013-08-28T04:44:08Z</time>
      </trkpt>
      <trkpt lat="-21.18118" lon="55.53528">
        <ele>740.1</ele>
        <time>2013-08-28T04:44:15Z</time>
      </trkpt>
      <trkpt lat="-21.18112" lon="55.53534">
        <ele>740.6</ele>
        <time>2013-08-28T04:44:24Z</time>
      </trkpt>
      <trkpt lat="-21.18106" lon="55.53539">
        <ele>741.4</ele>
        <time>2013-08-28T04:44:30Z</time>
      </trkpt>
      <trkpt lat="-21.18099" lon="55.53545">
        <ele>743</ele>
        <time>2013-08-28T04:44:38Z</time>
      </trkpt>
      <trkpt lat="-21.18093" lon="55.53551">
        <ele>743.7</ele>
        <time>2013-08-28T04:44:44Z</time>
      </trkpt>
      <trkpt lat="-21.18092" lon="55.53552">
        <ele>744.3</ele>
        <time>2013-08-28T04:44:45Z</time>
      </trkpt>
      <trkpt lat="-21.18078" lon="55.53558">
        <ele>745.4</ele>
        <time>2013-08-28T04:44:59Z</time>
      </trkpt>
      <trkpt lat="-21.18071" lon="55.53564">
        <ele>745.4</ele>
        <time>2013-08-28T04:45:04Z</time>
      </trkpt>
      <trkpt lat="-21.18065" lon="55.53569">
        <ele>747.6</ele>
        <time>2013-08-28T04:45:11Z</time>
      </trkpt>
      <trkpt lat="-21.18058" lon="55.53574">
        <ele>748.2</ele>
        <time>2013-08-28T04:45:17Z</time>
      </trkpt>
      <trkpt lat="-21.18052" lon="55.5358">
        <ele>748.3</ele>
        <time>2013-08-28T04:45:22Z</time>
      </trkpt>
      <trkpt lat="-21.18046" lon="55.53587">
        <ele>750.3</ele>
        <time>2013-08-28T04:45:29Z</time>
      </trkpt>
      <trkpt lat="-21.18039" lon="55.53591">
        <ele>751.7</ele>
        <time>2013-08-28T04:45:36Z</time>
      </trkpt>
      <trkpt lat="-21.18032" lon="55.53597">
        <ele>753</ele>
        <time>2013-08-28T04:45:45Z</time>
      </trkpt>
      <trkpt lat="-21.18031" lon="55.53598">
        <ele>753.7</ele>
        <time>2013-08-28T04:45:46Z</time>
      </trkpt>
      <trkpt lat="-21.18021" lon="55.53611">
        <ele>756.4</ele>
        <time>2013-08-28T04:46:01Z</time>
      </trkpt>
      <trkpt lat="-21.18018" lon="55.53619">
        <ele>759.4</ele>
        <time>2013-08-28T04:46:08Z</time>
      </trkpt>
      <trkpt lat="-21.18016" lon="55.53628">
        <ele>760.8</ele>
        <time>2013-08-28T04:46:14Z</time>
      </trkpt>
      <trkpt lat="-21.18012" lon="55.53636">
        <ele>763.5</ele>
        <time>2013-08-28T04:46:23Z</time>
      </trkpt>
      <trkpt lat="-21.18006" lon="55.53642">
        <ele>765.3</ele>
        <time>2013-08-28T04:46:32Z</time>
      </trkpt>
      <trkpt lat="-21.17999" lon="55.53647">
        <ele>766.1</ele>
        <time>2013-08-28T04:46:39Z</time>
      </trkpt>
      <trkpt lat="-21.17992" lon="55.5365">
        <ele>768</ele>
        <time>2013-08-28T04:46:48Z</time>
      </trkpt>
      <trkpt lat="-21.1799" lon="55.5365">
        <ele>768.3</ele>
        <time>2013-08-28T04:46:49Z</time>
      </trkpt>
      <trkpt lat="-21.17982" lon="55.53662">
        <ele>770.6</ele>
        <time>2013-08-28T04:47:03Z</time>
      </trkpt>
      <trkpt lat="-21.17979" lon="55.53671">
        <ele>771.5</ele>
        <time>2013-08-28T04:47:07Z</time>
      </trkpt>
      <trkpt lat="-21.17971" lon="55.53674">
        <ele>773.3</ele>
        <time>2013-08-28T04:47:30Z</time>
      </trkpt>
      <trkpt lat="-21.17967" lon="55.53683">
        <ele>774.5</ele>
        <time>2013-08-28T04:47:48Z</time>
      </trkpt>
      <trkpt lat="-21.17959" lon="55.53686">
        <ele>775.8</ele>
        <time>2013-08-28T04:47:59Z</time>
      </trkpt>
      <trkpt lat="-21.17958" lon="55.53686">
        <ele>776</ele>
        <time>2013-08-28T04:48:00Z</time>
      </trkpt>
      <trkpt lat="-21.17942" lon="55.5369">
        <ele>775.5</ele>
        <time>2013-08-28T04:48:15Z</time>
      </trkpt>
      <trkpt lat="-21.17934" lon="55.53691">
        <ele>775.8</ele>
        <time>2013-08-28T04:48:21Z</time>
      </trkpt>
      <trkpt lat="-21.17926" lon="55.5369">
        <ele>775.4</ele>
        <time>2013-08-28T04:48:27Z</time>
      </trkpt>
      <trkpt lat="-21.17917" lon="55.5369">
        <ele>776</ele>
        <time>2013-08-28T04:48:34Z</time>
      </trkpt>
      <trkpt lat="-21.17909" lon="55.53692">
        <ele>776.3</ele>
        <time>2013-08-28T04:48:42Z</time>
      </trkpt>
      <trkpt lat="-21.17901" lon="55.53691">
        <ele>776.5</ele>
        <time>2013-08-28T04:48:49Z</time>
      </trkpt>
      <trkpt lat="-21.17892" lon="55.53693">
        <ele>776.9</ele>
        <time>2013-08-28T04:48:55Z</time>
      </trkpt>
      <trkpt lat="-21.17884" lon="55.53696">
        <ele>777</ele>
        <time>2013-08-28T04:49:01Z</time>
      </trkpt>
      <trkpt lat="-21.17883" lon="55.53696">
        <ele>777.2</ele>
        <time>2013-08-28T04:49:02Z</time>
      </trkpt>
      <trkpt lat="-21.17869" lon="55.537">
        <ele>779.1</ele>
        <time>2013-08-28T04:49:14Z</time>
      </trkpt>
      <trkpt lat="-21.1786" lon="55.53702">
        <ele>779.2</ele>
        <time>2013-08-28T04:49:22Z</time>
      </trkpt>
      <trkpt lat="-21.17853" lon="55.53705">
        <ele>780.2</ele>
        <time>2013-08-28T04:49:29Z</time>
      </trkpt>
      <trkpt lat="-21.17845" lon="55.53706">
        <ele>781.1</ele>
        <time>2013-08-28T04:49:36Z</time>
      </trkpt>
      <trkpt lat="-21.17837" lon="55.53708">
        <ele>782.7</ele>
        <time>2013-08-28T04:49:45Z</time>
      </trkpt>
      <trkpt lat="-21.17828" lon="55.53708">
        <ele>784.4</ele>
        <time>2013-08-28T04:49:55Z</time>
      </trkpt>
      <trkpt lat="-21.1782" lon="55.5371">
        <ele>786.4</ele>
        <time>2013-08-28T04:50:03Z</time>
      </trkpt>
      <trkpt lat="-21.17819" lon="55.5371">
        <ele>786.7</ele>
        <time>2013-08-28T04:50:04Z</time>
      </trkpt>
      <trkpt lat="-21.17802" lon="55.5372">
        <ele>789</ele>
        <time>2013-08-28T04:50:28Z</time>
      </trkpt>
      <trkpt lat="-21.17799" lon="55.53731">
        <ele>791</ele>
        <time>2013-08-28T04:50:40Z</time>
      </trkpt>
      <trkpt lat="-21.17791" lon="55.53742">
        <ele>790</ele>
        <time>2013-08-28T04:51:19Z</time>
      </trkpt>
      <trkpt lat="-21.1779" lon="55.53744">
        <ele>791.7</ele>
        <time>2013-08-28T04:51:21Z</time>
      </trkpt>
      <trkpt lat="-21.17776" lon="55.53758">
        <ele>792</ele>
        <time>2013-08-28T04:51:37Z</time>
      </trkpt>
      <trkpt lat="-21.17771" lon="55.53764">
        <ele>794.8</ele>
        <time>2013-08-28T04:51:45Z</time>
      </trkpt>
      <trkpt lat="-21.17762" lon="55.53769">
        <ele>795</ele>
        <time>2013-08-28T04:51:55Z</time>
      </trkpt>
      <trkpt lat="-21.17751" lon="55.53776">
        <ele>796</ele>
        <time>2013-08-28T04:52:07Z</time>
      </trkpt>
      <trkpt lat="-21.17741" lon="55.53783">
        <ele>799</ele>
        <time>2013-08-28T04:52:19Z</time>
      </trkpt>
      <trkpt lat="-21.17733" lon="55.53788">
        <ele>800</ele>
        <time>2013-08-28T04:52:28Z</time>
      </trkpt>
      <trkpt lat="-21.17732" lon="55.5379">
        <ele>800.7</ele>
        <time>2013-08-28T04:52:30Z</time>
      </trkpt>
      <trkpt lat="-21.17718" lon="55.53804">
        <ele>802</ele>
        <time>2013-08-28T04:52:44Z</time>
      </trkpt>
      <trkpt lat="-21.1771" lon="55.53809">
        <ele>803</ele>
        <time>2013-08-28T04:52:52Z</time>
      </trkpt>
      <trkpt lat="-21.17706" lon="55.53819">
        <ele>805</ele>
        <time>2013-08-28T04:53:00Z</time>
      </trkpt>
      <trkpt lat="-21.177" lon="55.53827">
        <ele>806</ele>
        <time>2013-08-28T04:53:08Z</time>
      </trkpt>
      <trkpt lat="-21.17691" lon="55.53835">
        <ele>809</ele>
        <time>2013-08-28T04:53:20Z</time>
      </trkpt>
      <trkpt lat="-21.17682" lon="55.53834">
        <ele>811</ele>
        <time>2013-08-28T04:53:28Z</time>
      </trkpt>
      <trkpt lat="-21.17674" lon="55.53831">
        <ele>813</ele>
        <time>2013-08-28T04:53:36Z</time>
      </trkpt>
      <trkpt lat="-21.17672" lon="55.5383">
        <ele>814.1</ele>
        <time>2013-08-28T04:53:38Z</time>
      </trkpt>
      <trkpt lat="-21.1766" lon="55.53814">
        <ele>814</ele>
        <time>2013-08-28T04:53:48Z</time>
      </trkpt>
      <trkpt lat="-21.17649" lon="55.53824">
        <ele>816</ele>
        <time>2013-08-28T04:54:00Z</time>
      </trkpt>
      <trkpt lat="-21.17641" lon="55.53832">
        <ele>816</ele>
        <time>2013-08-28T04:54:08Z</time>
      </trkpt>
      <trkpt lat="-21.17632" lon="55.5383">
        <ele>817</ele>
        <time>2013-08-28T04:54:16Z</time>
      </trkpt>
      <trkpt lat="-21.17623" lon="55.53828">
        <ele>818</ele>
        <time>2013-08-28T04:54:24Z</time>
      </trkpt>
      <trkpt lat="-21.17612" lon="55.53825">
        <ele>818</ele>
        <time>2013-08-28T04:54:32Z</time>
      </trkpt>
      <trkpt lat="-21.176" lon="55.53818">
        <ele>819</ele>
        <time>2013-08-28T04:54:40Z</time>
      </trkpt>
      <trkpt lat="-21.17598" lon="55.53817">
        <ele>819.7</ele>
        <time>2013-08-28T04:54:42Z</time>
      </trkpt>
      <trkpt lat="-21.17579" lon="55.5381">
        <ele>820</ele>
        <time>2013-08-28T04:55:00Z</time>
      </trkpt>
      <trkpt lat="-21.1757" lon="55.53811">
        <ele>822.4</ele>
        <time>2013-08-28T04:55:11Z</time>
      </trkpt>
      <trkpt lat="-21.17562" lon="55.53809">
        <ele>823.8</ele>
        <time>2013-08-28T04:55:17Z</time>
      </trkpt>
      <trkpt lat="-21.17555" lon="55.53804">
        <ele>824.6</ele>
        <time>2013-08-28T04:55:21Z</time>
      </trkpt>
      <trkpt lat="-21.17549" lon="55.53799">
        <ele>825.1</ele>
        <time>2013-08-28T04:55:26Z</time>
      </trkpt>
      <trkpt lat="-21.17543" lon="55.53792">
        <ele>825</ele>
        <time>2013-08-28T04:55:31Z</time>
      </trkpt>
      <trkpt lat="-21.17536" lon="55.53787">
        <ele>825.2</ele>
        <time>2013-08-28T04:55:37Z</time>
      </trkpt>
      <trkpt lat="-21.1753" lon="55.53782">
        <ele>825.2</ele>
        <time>2013-08-28T04:55:41Z</time>
      </trkpt>
      <trkpt lat="-21.17524" lon="55.53774">
        <ele>825.9</ele>
        <time>2013-08-28T04:55:48Z</time>
      </trkpt>
      <trkpt lat="-21.17523" lon="55.53773">
        <ele>826</ele>
        <time>2013-08-28T04:55:49Z</time>
      </trkpt>
      <trkpt lat="-21.17509" lon="55.53766">
        <ele>826.7</ele>
        <time>2013-08-28T04:56:01Z</time>
      </trkpt>
      <trkpt lat="-21.17501" lon="55.53762">
        <ele>828.2</ele>
        <time>2013-08-28T04:56:09Z</time>
      </trkpt>
      <trkpt lat="-21.17493" lon="55.53758">
        <ele>829</ele>
        <time>2013-08-28T04:56:16Z</time>
      </trkpt>
      <trkpt lat="-21.17486" lon="55.53756">
        <ele>828.9</ele>
        <time>2013-08-28T04:56:24Z</time>
      </trkpt>
      <trkpt lat="-21.17478" lon="55.53751">
        <ele>829.8</ele>
        <time>2013-08-28T04:56:31Z</time>
      </trkpt>
      <trkpt lat="-21.17472" lon="55.53746">
        <ele>830.2</ele>
        <time>2013-08-28T04:56:37Z</time>
      </trkpt>
      <trkpt lat="-21.17466" lon="55.53739">
        <ele>830.2</ele>
        <time>2013-08-28T04:56:41Z</time>
      </trkpt>
      <trkpt lat="-21.17459" lon="55.53734">
        <ele>829.7</ele>
        <time>2013-08-28T04:56:46Z</time>
      </trkpt>
      <trkpt lat="-21.17452" lon="55.53731">
        <ele>829.9</ele>
        <time>2013-08-28T04:56:52Z</time>
      </trkpt>
      <trkpt lat="-21.17451" lon="55.5373">
        <ele>829.7</ele>
        <time>2013-08-28T04:56:53Z</time>
      </trkpt>
      <trkpt lat="-21.17436" lon="55.53724">
        <ele>831.3</ele>
        <time>2013-08-28T04:57:06Z</time>
      </trkpt>
      <trkpt lat="-21.1743" lon="55.53717">
        <ele>831.8</ele>
        <time>2013-08-28T04:57:12Z</time>
      </trkpt>
      <trkpt lat="-21.17422" lon="55.53712">
        <ele>832.2</ele>
        <time>2013-08-28T04:57:19Z</time>
      </trkpt>
      <trkpt lat="-21.17416" lon="55.53708">
        <ele>832.1</ele>
        <time>2013-08-28T04:57:25Z</time>
      </trkpt>
      <trkpt lat="-21.17408" lon="55.53706">
        <ele>831.8</ele>
        <time>2013-08-28T04:57:31Z</time>
      </trkpt>
      <trkpt lat="-21.17401" lon="55.53705">
        <ele>831.7</ele>
        <time>2013-08-28T04:57:35Z</time>
      </trkpt>
      <trkpt lat="-21.17393" lon="55.53705">
        <ele>830.8</ele>
        <time>2013-08-28T04:57:40Z</time>
      </trkpt>
      <trkpt lat="-21.17385" lon="55.53704">
        <ele>830.7</ele>
        <time>2013-08-28T04:57:46Z</time>
      </trkpt>
      <trkpt lat="-21.17376" lon="55.53703">
        <ele>830.5</ele>
        <time>2013-08-28T04:57:52Z</time>
      </trkpt>
      <trkpt lat="-21.17368" lon="55.53703">
        <ele>831.5</ele>
        <time>2013-08-28T04:57:59Z</time>
      </trkpt>
      <trkpt lat="-21.17367" lon="55.53703">
        <ele>831.7</ele>
        <time>2013-08-28T04:58:00Z</time>
      </trkpt>
      <trkpt lat="-21.17352" lon="55.53702">
        <ele>832.3</ele>
        <time>2013-08-28T04:58:14Z</time>
      </trkpt>
      <trkpt lat="-21.17343" lon="55.53703">
        <ele>833.9</ele>
        <time>2013-08-28T04:58:22Z</time>
      </trkpt>
      <trkpt lat="-21.17335" lon="55.53699">
        <ele>834.8</ele>
        <time>2013-08-28T04:58:29Z</time>
      </trkpt>
      <trkpt lat="-21.17327" lon="55.53701">
        <ele>835</ele>
        <time>2013-08-28T04:58:36Z</time>
      </trkpt>
      <trkpt lat="-21.17319" lon="55.53697">
        <ele>836.9</ele>
        <time>2013-08-28T04:58:45Z</time>
      </trkpt>
      <trkpt lat="-21.17311" lon="55.53696">
        <ele>838.1</ele>
        <time>2013-08-28T04:58:54Z</time>
      </trkpt>
      <trkpt lat="-21.17302" lon="55.53694">
        <ele>838.2</ele>
        <time>2013-08-28T04:59:02Z</time>
      </trkpt>
      <trkpt lat="-21.17301" lon="55.53694">
        <ele>838.2</ele>
        <time>2013-08-28T04:59:03Z</time>
      </trkpt>
      <trkpt lat="-21.17286" lon="55.53695">
        <ele>839.9</ele>
        <time>2013-08-28T04:59:17Z</time>
      </trkpt>
      <trkpt lat="-21.17277" lon="55.53696">
        <ele>840.3</ele>
        <time>2013-08-28T04:59:23Z</time>
      </trkpt>
      <trkpt lat="-21.17269" lon="55.53693">
        <ele>840</ele>
        <time>2013-08-28T04:59:29Z</time>
      </trkpt>
      <trkpt lat="-21.17263" lon="55.53689">
        <ele>840.9</ele>
        <time>2013-08-28T04:59:35Z</time>
      </trkpt>
      <trkpt lat="-21.17255" lon="55.53685">
        <ele>841.4</ele>
        <time>2013-08-28T04:59:42Z</time>
      </trkpt>
      <trkpt lat="-21.17246" lon="55.53687">
        <ele>844.8</ele>
        <time>2013-08-28T05:00:01Z</time>
      </trkpt>
      <trkpt lat="-21.17241" lon="55.53693">
        <ele>849.6</ele>
        <time>2013-08-28T05:00:15Z</time>
      </trkpt>
      <trkpt lat="-21.1724" lon="55.53695">
        <ele>849.8</ele>
        <time>2013-08-28T05:00:16Z</time>
      </trkpt>
      <trkpt lat="-21.17225" lon="55.53698">
        <ele>855.2</ele>
        <time>2013-08-28T05:00:39Z</time>
      </trkpt>
      <trkpt lat="-21.17217" lon="55.537">
        <ele>857.9</ele>
        <time>2013-08-28T05:00:48Z</time>
      </trkpt>
      <trkpt lat="-21.17214" lon="55.53709">
        <ele>862.8</ele>
        <time>2013-08-28T05:01:16Z</time>
      </trkpt>
      <trkpt lat="-21.17214" lon="55.5371">
        <ele>863</ele>
        <time>2013-08-28T05:01:17Z</time>
      </trkpt>
      <trkpt lat="-21.17203" lon="55.53719">
        <ele>870.5</ele>
        <time>2013-08-28T05:02:02Z</time>
      </trkpt>
      <trkpt lat="-21.17202" lon="55.53728">
        <ele>875.6</ele>
        <time>2013-08-28T05:02:19Z</time>
      </trkpt>
      <trkpt lat="-21.17202" lon="55.53729">
        <ele>875.9</ele>
        <time>2013-08-28T05:02:20Z</time>
      </trkpt>
      <trkpt lat="-21.17191" lon="55.53742">
        <ele>885.3</ele>
        <time>2013-08-28T05:03:11Z</time>
      </trkpt>
      <trkpt lat="-21.17186" lon="55.53748">
        <ele>887.9</ele>
        <time>2013-08-28T05:03:19Z</time>
      </trkpt>
      <trkpt lat="-21.17182" lon="55.53756">
        <ele>891.1</ele>
        <time>2013-08-28T05:03:28Z</time>
      </trkpt>
      <trkpt lat="-21.17182" lon="55.53758">
        <ele>891.2</ele>
        <time>2013-08-28T05:03:29Z</time>
      </trkpt>
      <trkpt lat="-21.17186" lon="55.53773">
        <ele>899.9</ele>
        <time>2013-08-28T05:04:04Z</time>
      </trkpt>
      <trkpt lat="-21.17184" lon="55.53782">
        <ele>903.2</ele>
        <time>2013-08-28T05:04:18Z</time>
      </trkpt>
      <trkpt lat="-21.17183" lon="55.53791">
        <ele>905</ele>
        <time>2013-08-28T05:04:27Z</time>
      </trkpt>
      <trkpt lat="-21.17183" lon="55.538">
        <ele>908</ele>
        <time>2013-08-28T05:04:37Z</time>
      </trkpt>
      <trkpt lat="-21.17183" lon="55.53801">
        <ele>908.4</ele>
        <time>2013-08-28T05:04:38Z</time>
      </trkpt>
      <trkpt lat="-21.1718" lon="55.53816">
        <ele>909.4</ele>
        <time>2013-08-28T05:04:46Z</time>
      </trkpt>
      <trkpt lat="-21.17184" lon="55.53824">
        <ele>911.6</ele>
        <time>2013-08-28T05:04:58Z</time>
      </trkpt>
      <trkpt lat="-21.17181" lon="55.53832">
        <ele>915</ele>
        <time>2013-08-28T05:05:13Z</time>
      </trkpt>
      <trkpt lat="-21.17177" lon="55.5384">
        <ele>918</ele>
        <time>2013-08-28T05:05:27Z</time>
      </trkpt>
      <trkpt lat="-21.17171" lon="55.53847">
        <ele>921.7</ele>
        <time>2013-08-28T05:05:46Z</time>
      </trkpt>
      <trkpt lat="-21.17171" lon="55.5385">
        <ele>922.2</ele>
        <time>2013-08-28T05:05:47Z</time>
      </trkpt>
      <trkpt lat="-21.17159" lon="55.53857">
        <ele>926.6</ele>
        <time>2013-08-28T05:06:07Z</time>
      </trkpt>
      <trkpt lat="-21.17159" lon="55.53884">
        <ele>928</ele>
        <time>2013-08-28T05:06:16Z</time>
      </trkpt>
      <trkpt lat="-21.17159" lon="55.53894">
        <ele>929</ele>
        <time>2013-08-28T05:06:20Z</time>
      </trkpt>
      <trkpt lat="-21.17161" lon="55.53903">
        <ele>931</ele>
        <time>2013-08-28T05:06:28Z</time>
      </trkpt>
      <trkpt lat="-21.17148" lon="55.539">
        <ele>934</ele>
        <time>2013-08-28T05:06:44Z</time>
      </trkpt>
      <trkpt lat="-21.17143" lon="55.53908">
        <ele>942</ele>
        <time>2013-08-28T05:07:12Z</time>
      </trkpt>
      <trkpt lat="-21.17143" lon="55.5391">
        <ele>942.8</ele>
        <time>2013-08-28T05:07:14Z</time>
      </trkpt>
      <trkpt lat="-21.17129" lon="55.53927">
        <ele>946</ele>
        <time>2013-08-28T05:07:37Z</time>
      </trkpt>
      <trkpt lat="-21.1712" lon="55.53923">
        <ele>948</ele>
        <time>2013-08-28T05:07:51Z</time>
      </trkpt>
      <trkpt lat="-21.17116" lon="55.53934">
        <ele>951</ele>
        <time>2013-08-28T05:08:11Z</time>
      </trkpt>
      <trkpt lat="-21.17118" lon="55.53944">
        <ele>952</ele>
        <time>2013-08-28T05:08:46Z</time>
      </trkpt>
      <trkpt lat="-21.17116" lon="55.53941">
        <ele>952.8</ele>
        <time>2013-08-28T05:08:47Z</time>
      </trkpt>
      <trkpt lat="-21.17107" lon="55.53954">
        <ele>960</ele>
        <time>2013-08-28T05:09:21Z</time>
      </trkpt>
      <trkpt lat="-21.17088" lon="55.53946">
        <ele>967</ele>
        <time>2013-08-28T05:09:52Z</time>
      </trkpt>
      <trkpt lat="-21.17082" lon="55.53951">
        <ele>968.6</ele>
        <time>2013-08-28T05:09:56Z</time>
      </trkpt>
      <trkpt lat="-21.1708" lon="55.53967">
        <ele>973</ele>
        <time>2013-08-28T05:10:22Z</time>
      </trkpt>
      <trkpt lat="-21.17069" lon="55.5397">
        <ele>973</ele>
        <time>2013-08-28T05:10:30Z</time>
      </trkpt>
      <trkpt lat="-21.17061" lon="55.53978">
        <ele>974</ele>
        <time>2013-08-28T05:10:42Z</time>
      </trkpt>
      <trkpt lat="-21.17051" lon="55.53979">
        <ele>977</ele>
        <time>2013-08-28T05:10:54Z</time>
      </trkpt>
      <trkpt lat="-21.1704" lon="55.53984">
        <ele>980</ele>
        <time>2013-08-28T05:11:06Z</time>
      </trkpt>
      <trkpt lat="-21.17038" lon="55.53983">
        <ele>980.1</ele>
        <time>2013-08-28T05:11:08Z</time>
      </trkpt>
      <trkpt lat="-21.17037" lon="55.54003">
        <ele>981</ele>
        <time>2013-08-28T05:11:22Z</time>
      </trkpt>
      <trkpt lat="-21.1703" lon="55.54011">
        <ele>984</ele>
        <time>2013-08-28T05:11:43Z</time>
      </trkpt>
      <trkpt lat="-21.17026" lon="55.54021">
        <ele>988</ele>
        <time>2013-08-28T05:12:03Z</time>
      </trkpt>
      <trkpt lat="-21.1702" lon="55.54034">
        <ele>990</ele>
        <time>2013-08-28T05:12:19Z</time>
      </trkpt>
      <trkpt lat="-21.1702" lon="55.54037">
        <ele>991.9</ele>
        <time>2013-08-28T05:12:21Z</time>
      </trkpt>
      <trkpt lat="-21.17017" lon="55.54033">
        <ele>992</ele>
        <time>2013-08-28T05:12:40Z</time>
      </trkpt>
      <trkpt lat="-21.17016" lon="55.54013">
        <ele>992</ele>
        <time>2013-08-28T05:12:48Z</time>
      </trkpt>
      <trkpt lat="-21.17012" lon="55.54003">
        <ele>992</ele>
        <time>2013-08-28T05:12:53Z</time>
      </trkpt>
      <trkpt lat="-21.17004" lon="55.53989">
        <ele>992</ele>
        <time>2013-08-28T05:13:00Z</time>
      </trkpt>
      <trkpt lat="-21.17015" lon="55.54021">
        <ele>992</ele>
        <time>2013-08-28T05:13:07Z</time>
      </trkpt>
      <trkpt lat="-21.17016" lon="55.54035">
        <ele>992</ele>
        <time>2013-08-28T05:13:12Z</time>
      </trkpt>
      <trkpt lat="-21.17016" lon="55.54046">
        <ele>992</ele>
        <time>2013-08-28T05:13:45Z</time>
      </trkpt>
      <trkpt lat="-21.17016" lon="55.54049">
        <ele>992.6</ele>
        <time>2013-08-28T05:13:47Z</time>
      </trkpt>
      <trkpt lat="-21.17012" lon="55.5405">
        <ele>997</ele>
        <time>2013-08-28T05:14:33Z</time>
      </trkpt>
      <trkpt lat="-21.1701" lon="55.5406">
        <ele>997</ele>
        <time>2013-08-28T05:14:45Z</time>
      </trkpt>
      <trkpt lat="-21.17012" lon="55.54076">
        <ele>998</ele>
        <time>2013-08-28T05:14:57Z</time>
      </trkpt>
      <trkpt lat="-21.17014" lon="55.54082">
        <ele>998.4</ele>
        <time>2013-08-28T05:14:59Z</time>
      </trkpt>
      <trkpt lat="-21.17013" lon="55.54086">
        <ele>998.3</ele>
        <time>2013-08-28T05:15:03Z</time>
      </trkpt>
      <trkpt lat="-21.17012" lon="55.54077">
        <ele>998.3</ele>
        <time>2013-08-28T05:15:04Z</time>
      </trkpt>
      <trkpt lat="-21.17011" lon="55.54068">
        <ele>998.5</ele>
        <time>2013-08-28T05:15:06Z</time>
      </trkpt>
      <trkpt lat="-21.1701" lon="55.54061">
        <ele>998.2</ele>
        <time>2013-08-28T05:15:08Z</time>
      </trkpt>
      <trkpt lat="-21.1701" lon="55.54053">
        <ele>997.2</ele>
        <time>2013-08-28T05:15:14Z</time>
      </trkpt>
      <trkpt lat="-21.17009" lon="55.54062">
        <ele>1000</ele>
        <time>2013-08-28T05:16:08Z</time>
      </trkpt>
      <trkpt lat="-21.17009" lon="55.54064">
        <ele>1000.5</ele>
        <time>2013-08-28T05:16:09Z</time>
      </trkpt>
      <trkpt lat="-21.17002" lon="55.54079">
        <ele>1009.7</ele>
        <time>2013-08-28T05:16:58Z</time>
      </trkpt>
      <trkpt lat="-21.16999" lon="55.54088">
        <ele>1011.3</ele>
        <time>2013-08-28T05:17:06Z</time>
      </trkpt>
      <trkpt lat="-21.16994" lon="55.54095">
        <ele>1013.6</ele>
        <time>2013-08-28T05:17:33Z</time>
      </trkpt>
      <trkpt lat="-21.16993" lon="55.54095">
        <ele>1013.7</ele>
        <time>2013-08-28T05:17:34Z</time>
      </trkpt>
      <trkpt lat="-21.16991" lon="55.54112">
        <ele>1017.4</ele>
        <time>2013-08-28T05:17:54Z</time>
      </trkpt>
      <trkpt lat="-21.16984" lon="55.54115">
        <ele>1021.2</ele>
        <time>2013-08-28T05:18:15Z</time>
      </trkpt>
      <trkpt lat="-21.1698" lon="55.54124">
        <ele>1023.5</ele>
        <time>2013-08-28T05:18:24Z</time>
      </trkpt>
      <trkpt lat="-21.16979" lon="55.54132">
        <ele>1026.1</ele>
        <time>2013-08-28T05:18:35Z</time>
      </trkpt>
      <trkpt lat="-21.16979" lon="55.54134">
        <ele>1026.4</ele>
        <time>2013-08-28T05:18:36Z</time>
      </trkpt>
      <trkpt lat="-21.16982" lon="55.54148">
        <ele>1036.4</ele>
        <time>2013-08-28T05:19:16Z</time>
      </trkpt>
      <trkpt lat="-21.16988" lon="55.54154">
        <ele>1039.8</ele>
        <time>2013-08-28T05:19:26Z</time>
      </trkpt>
      <trkpt lat="-21.16992" lon="55.54162">
        <ele>1041.6</ele>
        <time>2013-08-28T05:19:33Z</time>
      </trkpt>
      <trkpt lat="-21.16995" lon="55.54171">
        <ele>1041.7</ele>
        <time>2013-08-28T05:19:36Z</time>
      </trkpt>
      <trkpt lat="-21.16994" lon="55.5418">
        <ele>1046.9</ele>
        <time>2013-08-28T05:19:58Z</time>
      </trkpt>
      <trkpt lat="-21.16995" lon="55.5418">
        <ele>1047.5</ele>
        <time>2013-08-28T05:19:59Z</time>
      </trkpt>
      <trkpt lat="-21.16985" lon="55.54202">
        <ele>1051</ele>
        <time>2013-08-28T05:20:48Z</time>
      </trkpt>
      <trkpt lat="-21.16985" lon="55.54218">
        <ele>1053</ele>
        <time>2013-08-28T05:20:56Z</time>
      </trkpt>
      <trkpt lat="-21.16973" lon="55.54229">
        <ele>1054</ele>
        <time>2013-08-28T05:21:02Z</time>
      </trkpt>
      <trkpt lat="-21.16969" lon="55.54232">
        <ele>1055.4</ele>
        <time>2013-08-28T05:21:04Z</time>
      </trkpt>
      <trkpt lat="-21.16969" lon="55.54227">
        <ele>1058.8</ele>
        <time>2013-08-28T05:21:18Z</time>
      </trkpt>
      <trkpt lat="-21.16975" lon="55.54221">
        <ele>1060.2</ele>
        <time>2013-08-28T05:21:23Z</time>
      </trkpt>
      <trkpt lat="-21.16967" lon="55.54226">
        <ele>1062</ele>
        <time>2013-08-28T05:22:21Z</time>
      </trkpt>
      <trkpt lat="-21.16969" lon="55.54227">
        <ele>1062.7</ele>
        <time>2013-08-28T05:22:23Z</time>
      </trkpt>
      <trkpt lat="-21.16984" lon="55.54226">
        <ele>1064.4</ele>
        <time>2013-08-28T05:22:36Z</time>
      </trkpt>
      <trkpt lat="-21.16978" lon="55.54219">
        <ele>1067.7</ele>
        <time>2013-08-28T05:22:51Z</time>
      </trkpt>
      <trkpt lat="-21.1697" lon="55.5422">
        <ele>1068.9</ele>
        <time>2013-08-28T05:22:55Z</time>
      </trkpt>
      <trkpt lat="-21.16962" lon="55.54219">
        <ele>1070.4</ele>
        <time>2013-08-28T05:22:59Z</time>
      </trkpt>
      <trkpt lat="-21.16963" lon="55.54233">
        <ele>1072</ele>
        <time>2013-08-28T05:23:11Z</time>
      </trkpt>
      <trkpt lat="-21.16956" lon="55.5424">
        <ele>1073</ele>
        <time>2013-08-28T05:23:23Z</time>
      </trkpt>
      <trkpt lat="-21.16952" lon="55.54242">
        <ele>1074.5</ele>
        <time>2013-08-28T05:23:25Z</time>
      </trkpt>
      <trkpt lat="-21.16956" lon="55.54243">
        <ele>1075.8</ele>
        <time>2013-08-28T05:23:55Z</time>
      </trkpt>
      <trkpt lat="-21.16963" lon="55.54246">
        <ele>1077.2</ele>
        <time>2013-08-28T05:24:01Z</time>
      </trkpt>
      <trkpt lat="-21.16972" lon="55.54245">
        <ele>1078.5</ele>
        <time>2013-08-28T05:24:08Z</time>
      </trkpt>
      <trkpt lat="-21.16961" lon="55.54258">
        <ele>1081</ele>
        <time>2013-08-28T05:24:32Z</time>
      </trkpt>
      <trkpt lat="-21.16959" lon="55.54259">
        <ele>1082.8</ele>
        <time>2013-08-28T05:24:34Z</time>
      </trkpt>
      <trkpt lat="-21.16942" lon="55.54267">
        <ele>1085</ele>
        <time>2013-08-28T05:24:48Z</time>
      </trkpt>
      <trkpt lat="-21.16931" lon="55.54267">
        <ele>1092</ele>
        <time>2013-08-28T05:25:25Z</time>
      </trkpt>
      <trkpt lat="-21.16942" lon="55.54271">
        <ele>1095</ele>
        <time>2013-08-28T05:25:54Z</time>
      </trkpt>
      <trkpt lat="-21.16942" lon="55.54272">
        <ele>1097</ele>
        <time>2013-08-28T05:25:58Z</time>
      </trkpt>
      <trkpt lat="-21.16943" lon="55.5428">
        <ele>1101</ele>
        <time>2013-08-28T05:26:17Z</time>
      </trkpt>
      <trkpt lat="-21.16933" lon="55.54283">
        <ele>1108</ele>
        <time>2013-08-28T05:26:54Z</time>
      </trkpt>
      <trkpt lat="-21.16925" lon="55.54289">
        <ele>1111</ele>
        <time>2013-08-28T05:27:04Z</time>
      </trkpt>
      <trkpt lat="-21.16924" lon="55.5429">
        <ele>1112</ele>
        <time>2013-08-28T05:27:06Z</time>
      </trkpt>
      <trkpt lat="-21.16928" lon="55.54304">
        <ele>1126</ele>
        <time>2013-08-28T05:28:08Z</time>
      </trkpt>
      <trkpt lat="-21.16926" lon="55.54304">
        <ele>1126.2</ele>
        <time>2013-08-28T05:28:10Z</time>
      </trkpt>
      <trkpt lat="-21.16915" lon="55.54294">
        <ele>1130</ele>
        <time>2013-08-28T05:28:35Z</time>
      </trkpt>
      <trkpt lat="-21.16919" lon="55.5429">
        <ele>1129.9</ele>
        <time>2013-08-28T05:28:36Z</time>
      </trkpt>
      <trkpt lat="-21.16922" lon="55.54283">
        <ele>1130.2</ele>
        <time>2013-08-28T05:28:39Z</time>
      </trkpt>
      <trkpt lat="-21.16925" lon="55.54276">
        <ele>1130.3</ele>
        <time>2013-08-28T05:28:42Z</time>
      </trkpt>
      <trkpt lat="-21.16927" lon="55.5427">
        <ele>1130.1</ele>
        <time>2013-08-28T05:28:44Z</time>
      </trkpt>
      <trkpt lat="-21.16926" lon="55.54261">
        <ele>1129.5</ele>
        <time>2013-08-28T05:28:48Z</time>
      </trkpt>
      <trkpt lat="-21.16924" lon="55.54253">
        <ele>1129.7</ele>
        <time>2013-08-28T05:28:52Z</time>
      </trkpt>
      <trkpt lat="-21.16922" lon="55.54245">
        <ele>1129.8</ele>
        <time>2013-08-28T05:28:55Z</time>
      </trkpt>
      <trkpt lat="-21.16921" lon="55.54237">
        <ele>1129.9</ele>
        <time>2013-08-28T05:28:58Z</time>
      </trkpt>
      <trkpt lat="-21.1692" lon="55.54229">
        <ele>1130.3</ele>
        <time>2013-08-28T05:29:01Z</time>
      </trkpt>
      <trkpt lat="-21.16917" lon="55.54222">
        <ele>1130.6</ele>
        <time>2013-08-28T05:29:04Z</time>
      </trkpt>
      <trkpt lat="-21.16914" lon="55.54215">
        <ele>1132.1</ele>
        <time>2013-08-28T05:29:07Z</time>
      </trkpt>
      <trkpt lat="-21.16908" lon="55.54207">
        <ele>1133</ele>
        <time>2013-08-28T05:29:11Z</time>
      </trkpt>
      <trkpt lat="-21.16907" lon="55.54206">
        <ele>1132.9</ele>
        <time>2013-08-28T05:29:12Z</time>
      </trkpt>
      <trkpt lat="-21.16901" lon="55.5419">
        <ele>1132.6</ele>
        <time>2013-08-28T05:29:24Z</time>
      </trkpt>
      <trkpt lat="-21.16895" lon="55.54196">
        <ele>1137.7</ele>
        <time>2013-08-28T05:29:52Z</time>
      </trkpt>
      <trkpt lat="-21.16898" lon="55.54208">
        <ele>1145</ele>
        <time>2013-08-28T05:30:25Z</time>
      </trkpt>
      <trkpt lat="-21.16898" lon="55.5421">
        <ele>1145.3</ele>
        <time>2013-08-28T05:30:27Z</time>
      </trkpt>
      <trkpt lat="-21.16892" lon="55.54229">
        <ele>1144</ele>
        <time>2013-08-28T05:30:49Z</time>
      </trkpt>
      <trkpt lat="-21.16881" lon="55.54228">
        <ele>1143</ele>
        <time>2013-08-28T05:31:17Z</time>
      </trkpt>
      <trkpt lat="-21.16888" lon="55.54219">
        <ele>1143</ele>
        <time>2013-08-28T05:31:51Z</time>
      </trkpt>
      <trkpt lat="-21.16888" lon="55.54219">
        <ele>1144</ele>
        <time>2013-08-28T05:31:55Z</time>
      </trkpt>
      <trkpt lat="-21.16872" lon="55.5424">
        <ele>1153</ele>
        <time>2013-08-28T05:32:50Z</time>
      </trkpt>
      <trkpt lat="-21.1686" lon="55.54249">
        <ele>1154</ele>
        <time>2013-08-28T05:32:56Z</time>
      </trkpt>
      <trkpt lat="-21.16858" lon="55.5425">
        <ele>1155.3</ele>
        <time>2013-08-28T05:32:58Z</time>
      </trkpt>
      <trkpt lat="-21.1689" lon="55.54252">
        <ele>1160</ele>
        <time>2013-08-28T05:33:21Z</time>
      </trkpt>
      <trkpt lat="-21.169" lon="55.54253">
        <ele>1160</ele>
        <time>2013-08-28T05:33:25Z</time>
      </trkpt>
      <trkpt lat="-21.16892" lon="55.54265">
        <ele>1162</ele>
        <time>2013-08-28T05:33:37Z</time>
      </trkpt>
      <trkpt lat="-21.16883" lon="55.54266">
        <ele>1163</ele>
        <time>2013-08-28T05:33:45Z</time>
      </trkpt>
      <trkpt lat="-21.1689" lon="55.54259">
        <ele>1168</ele>
        <time>2013-08-28T05:34:17Z</time>
      </trkpt>
      <trkpt lat="-21.16891" lon="55.54259">
        <ele>1168.4</ele>
        <time>2013-08-28T05:34:19Z</time>
      </trkpt>
      <trkpt lat="-21.1691" lon="55.54271">
        <ele>1174</ele>
        <time>2013-08-28T05:35:04Z</time>
      </trkpt>
      <trkpt lat="-21.16918" lon="55.54279">
        <ele>1176</ele>
        <time>2013-08-28T05:35:14Z</time>
      </trkpt>
      <trkpt lat="-21.16912" lon="55.54288">
        <ele>1178</ele>
        <time>2013-08-28T05:35:28Z</time>
      </trkpt>
      <trkpt lat="-21.16911" lon="55.54288">
        <ele>1179.4</ele>
        <time>2013-08-28T05:35:30Z</time>
      </trkpt>
      <trkpt lat="-21.16908" lon="55.54285">
        <ele>1184</ele>
        <time>2013-08-28T05:36:00Z</time>
      </trkpt>
      <trkpt lat="-21.16894" lon="55.5429">
        <ele>1185</ele>
        <time>2013-08-28T05:37:39Z</time>
      </trkpt>
      <trkpt lat="-21.16892" lon="55.54291">
        <ele>1186.6</ele>
        <time>2013-08-28T05:37:41Z</time>
      </trkpt>
      <trkpt lat="-21.16883" lon="55.54308">
        <ele>1200</ele>
        <time>2013-08-28T05:38:51Z</time>
      </trkpt>
      <trkpt lat="-21.16882" lon="55.54309">
        <ele>1201.7</ele>
        <time>2013-08-28T05:38:53Z</time>
      </trkpt>
      <trkpt lat="-21.16882" lon="55.5433">
        <ele>1213</ele>
        <time>2013-08-28T05:40:15Z</time>
      </trkpt>
      <trkpt lat="-21.16884" lon="55.54331">
        <ele>1213.4</ele>
        <time>2013-08-28T05:40:17Z</time>
      </trkpt>
      <trkpt lat="-21.16889" lon="55.54342">
        <ele>1222.9</ele>
        <time>2013-08-28T05:41:34Z</time>
      </trkpt>
      <trkpt lat="-21.1689" lon="55.54342">
        <ele>1223</ele>
        <time>2013-08-28T05:41:35Z</time>
      </trkpt>
      <trkpt lat="-21.16899" lon="55.54346">
        <ele>1222.6</ele>
        <time>2013-08-28T05:42:15Z</time>
      </trkpt>
      <trkpt lat="-21.16902" lon="55.54335">
        <ele>1227</ele>
        <time>2013-08-28T05:42:40Z</time>
      </trkpt>
      <trkpt lat="-21.16902" lon="55.54333">
        <ele>1227.5</ele>
        <time>2013-08-28T05:42:42Z</time>
      </trkpt>
      <trkpt lat="-21.16894" lon="55.54318">
        <ele>1239.2</ele>
        <time>2013-08-28T05:43:39Z</time>
      </trkpt>
      <trkpt lat="-21.16885" lon="55.5432">
        <ele>1240.4</ele>
        <time>2013-08-28T05:43:46Z</time>
      </trkpt>
      <trkpt lat="-21.16884" lon="55.54319">
        <ele>1240.4</ele>
        <time>2013-08-28T05:43:47Z</time>
      </trkpt>
      <trkpt lat="-21.16874" lon="55.54302">
        <ele>1241.8</ele>
        <time>2013-08-28T05:44:29Z</time>
      </trkpt>
      <trkpt lat="-21.16867" lon="55.54297">
        <ele>1242</ele>
        <time>2013-08-28T05:44:38Z</time>
      </trkpt>
      <trkpt lat="-21.16858" lon="55.54296">
        <ele>1248.2</ele>
        <time>2013-08-28T05:45:02Z</time>
      </trkpt>
      <trkpt lat="-21.16858" lon="55.54296">
        <ele>1248.3</ele>
        <time>2013-08-28T05:45:03Z</time>
      </trkpt>
      <trkpt lat="-21.16842" lon="55.5429">
        <ele>1257.7</ele>
        <time>2013-08-28T05:45:37Z</time>
      </trkpt>
      <trkpt lat="-21.16835" lon="55.54295">
        <ele>1262.6</ele>
        <time>2013-08-28T05:45:57Z</time>
      </trkpt>
      <trkpt lat="-21.16834" lon="55.54304">
        <ele>1264</ele>
        <time>2013-08-28T05:46:03Z</time>
      </trkpt>
      <trkpt lat="-21.16834" lon="55.54305">
        <ele>1264.2</ele>
        <time>2013-08-28T05:46:04Z</time>
      </trkpt>
      <trkpt lat="-21.16848" lon="55.54308">
        <ele>1270.2</ele>
        <time>2013-08-28T05:46:33Z</time>
      </trkpt>
      <trkpt lat="-21.16841" lon="55.54311">
        <ele>1276.6</ele>
        <time>2013-08-28T05:47:01Z</time>
      </trkpt>
      <trkpt lat="-21.16834" lon="55.54316">
        <ele>1279.1</ele>
        <time>2013-08-28T05:47:09Z</time>
      </trkpt>
      <trkpt lat="-21.16833" lon="55.54316">
        <ele>1279.4</ele>
        <time>2013-08-28T05:47:10Z</time>
      </trkpt>
      <trkpt lat="-21.16825" lon="55.54327">
        <ele>1287.5</ele>
        <time>2013-08-28T05:47:46Z</time>
      </trkpt>
      <trkpt lat="-21.16827" lon="55.54336">
        <ele>1290.7</ele>
        <time>2013-08-28T05:48:00Z</time>
      </trkpt>
      <trkpt lat="-21.16816" lon="55.54333">
        <ele>1300</ele>
        <time>2013-08-28T05:48:38Z</time>
      </trkpt>
      <trkpt lat="-21.16815" lon="55.54334">
        <ele>1301.5</ele>
        <time>2013-08-28T05:48:40Z</time>
      </trkpt>
      <trkpt lat="-21.16811" lon="55.54348">
        <ele>1307.6</ele>
        <time>2013-08-28T05:49:04Z</time>
      </trkpt>
      <trkpt lat="-21.16806" lon="55.54356">
        <ele>1311.7</ele>
        <time>2013-08-28T05:49:25Z</time>
      </trkpt>
      <trkpt lat="-21.16815" lon="55.54355">
        <ele>1320.6</ele>
        <time>2013-08-28T05:50:02Z</time>
      </trkpt>
      <trkpt lat="-21.16816" lon="55.54355">
        <ele>1320.9</ele>
        <time>2013-08-28T05:50:03Z</time>
      </trkpt>
      <trkpt lat="-21.16815" lon="55.54371">
        <ele>1327.8</ele>
        <time>2013-08-28T05:50:35Z</time>
      </trkpt>
      <trkpt lat="-21.16814" lon="55.5438">
        <ele>1329.2</ele>
        <time>2013-08-28T05:50:44Z</time>
      </trkpt>
      <trkpt lat="-21.16818" lon="55.54388">
        <ele>1331.4</ele>
        <time>2013-08-28T05:50:55Z</time>
      </trkpt>
      <trkpt lat="-21.16823" lon="55.54396">
        <ele>1333.5</ele>
        <time>2013-08-28T05:51:02Z</time>
      </trkpt>
      <trkpt lat="-21.16827" lon="55.54401">
        <ele>1333.9</ele>
        <time>2013-08-28T05:51:05Z</time>
      </trkpt>
      <trkpt lat="-21.16829" lon="55.54404">
        <ele>1334</ele>
        <time>2013-08-28T05:51:06Z</time>
      </trkpt>
      <trkpt lat="-21.16827" lon="55.54419">
        <ele>1338.7</ele>
        <time>2013-08-28T05:51:34Z</time>
      </trkpt>
      <trkpt lat="-21.16832" lon="55.54425">
        <ele>1340.4</ele>
        <time>2013-08-28T05:51:49Z</time>
      </trkpt>
      <trkpt lat="-21.1684" lon="55.54425">
        <ele>1342.4</ele>
        <time>2013-08-28T05:52:04Z</time>
      </trkpt>
      <trkpt lat="-21.16845" lon="55.54431">
        <ele>1348.2</ele>
        <time>2013-08-28T05:52:28Z</time>
      </trkpt>
      <trkpt lat="-21.16846" lon="55.54433">
        <ele>1348.2</ele>
        <time>2013-08-28T05:52:29Z</time>
      </trkpt>
      <trkpt lat="-21.16861" lon="55.54444">
        <ele>1353</ele>
        <time>2013-08-28T05:52:58Z</time>
      </trkpt>
      <trkpt lat="-21.16865" lon="55.54453">
        <ele>1355</ele>
        <time>2013-08-28T05:53:04Z</time>
      </trkpt>
      <trkpt lat="-21.16871" lon="55.5446">
        <ele>1364.7</ele>
        <time>2013-08-28T05:53:44Z</time>
      </trkpt>
      <trkpt lat="-21.16872" lon="55.5446">
        <ele>1364.9</ele>
        <time>2013-08-28T05:53:45Z</time>
      </trkpt>
      <trkpt lat="-21.16875" lon="55.5446">
        <ele>1371.7</ele>
        <time>2013-08-28T05:54:11Z</time>
      </trkpt>
      <trkpt lat="-21.16885" lon="55.54455">
        <ele>1376</ele>
        <time>2013-08-28T05:54:32Z</time>
      </trkpt>
      <trkpt lat="-21.16895" lon="55.54499">
        <ele>1380</ele>
        <time>2013-08-28T05:54:50Z</time>
      </trkpt>
      <trkpt lat="-21.16922" lon="55.54593">
        <ele>1383</ele>
        <time>2013-08-28T05:55:01Z</time>
      </trkpt>
      <trkpt lat="-21.16905" lon="55.54503">
        <ele>1389</ele>
        <time>2013-08-28T05:55:24Z</time>
      </trkpt>
      <trkpt lat="-21.169" lon="55.54493">
        <ele>1391</ele>
        <time>2013-08-28T05:55:47Z</time>
      </trkpt>
      <trkpt lat="-21.169" lon="55.54504">
        <ele>1391</ele>
        <time>2013-08-28T05:57:49Z</time>
      </trkpt>
      <trkpt lat="-21.169" lon="55.54504">
        <ele>1391.5</ele>
        <time>2013-08-28T05:57:51Z</time>
      </trkpt>
      <trkpt lat="-21.16902" lon="55.54503">
        <ele>1391</ele>
        <time>2013-08-28T06:00:12Z</time>
      </trkpt>
      <trkpt lat="-21.16903" lon="55.54507">
        <ele>1391.4</ele>
        <time>2013-08-28T06:00:14Z</time>
      </trkpt>
      <trkpt lat="-21.16893" lon="55.54504">
        <ele>1391.5</ele>
        <time>2013-08-28T06:01:30Z</time>
      </trkpt>
      <trkpt lat="-21.16877" lon="55.54514">
        <ele>1396</ele>
        <time>2013-08-28T06:02:00Z</time>
      </trkpt>
      <trkpt lat="-21.16867" lon="55.54533">
        <ele>1400</ele>
        <time>2013-08-28T06:02:42Z</time>
      </trkpt>
      <trkpt lat="-21.1686" lon="55.54555">
        <ele>1401.9</ele>
        <time>2013-08-28T06:02:49Z</time>
      </trkpt>
      <trkpt lat="-21.16874" lon="55.54517">
        <ele>1409</ele>
        <time>2013-08-28T06:03:32Z</time>
      </trkpt>
      <trkpt lat="-21.16886" lon="55.54548">
        <ele>1413</ele>
        <time>2013-08-28T06:03:49Z</time>
      </trkpt>
      <trkpt lat="-21.16888" lon="55.54544">
        <ele>1415.8</ele>
        <time>2013-08-28T06:03:57Z</time>
      </trkpt>
      <trkpt lat="-21.169" lon="55.54535">
        <ele>1422</ele>
        <time>2013-08-28T06:04:41Z</time>
      </trkpt>
      <trkpt lat="-21.16914" lon="55.54532">
        <ele>1421</ele>
        <time>2013-08-28T06:04:57Z</time>
      </trkpt>
      <trkpt lat="-21.16917" lon="55.54537">
        <ele>1420.7</ele>
        <time>2013-08-28T06:05:04Z</time>
      </trkpt>
      <trkpt lat="-21.16931" lon="55.54539">
        <ele>1421</ele>
        <time>2013-08-28T06:05:30Z</time>
      </trkpt>
      <trkpt lat="-21.16928" lon="55.54529">
        <ele>1421</ele>
        <time>2013-08-28T06:06:53Z</time>
      </trkpt>
      <trkpt lat="-21.16923" lon="55.54508">
        <ele>1421.4</ele>
        <time>2013-08-28T06:07:00Z</time>
      </trkpt>
      <trkpt lat="-21.16937" lon="55.54498">
        <ele>1421</ele>
        <time>2013-08-28T06:07:19Z</time>
      </trkpt>
      <trkpt lat="-21.1694" lon="55.54486">
        <ele>1421</ele>
        <time>2013-08-28T06:07:27Z</time>
      </trkpt>
      <trkpt lat="-21.16937" lon="55.54497">
        <ele>1422</ele>
        <time>2013-08-28T06:07:32Z</time>
      </trkpt>
      <trkpt lat="-21.16934" lon="55.54511">
        <ele>1421</ele>
        <time>2013-08-28T06:07:40Z</time>
      </trkpt>
      <trkpt lat="-21.16936" lon="55.54525">
        <ele>1421</ele>
        <time>2013-08-28T06:07:48Z</time>
      </trkpt>
      <trkpt lat="-21.16943" lon="55.54533">
        <ele>1421</ele>
        <time>2013-08-28T06:07:56Z</time>
      </trkpt>
      <trkpt lat="-21.16956" lon="55.54535">
        <ele>1421</ele>
        <time>2013-08-28T06:08:12Z</time>
      </trkpt>
      <trkpt lat="-21.16958" lon="55.54534">
        <ele>1421.8</ele>
        <time>2013-08-28T06:08:16Z</time>
      </trkpt>
      <trkpt lat="-21.16978" lon="55.54528">
        <ele>1418</ele>
        <time>2013-08-28T06:08:44Z</time>
      </trkpt>
      <trkpt lat="-21.1699" lon="55.54532">
        <ele>1425</ele>
        <time>2013-08-28T06:09:09Z</time>
      </trkpt>
      <trkpt lat="-21.17001" lon="55.54532">
        <ele>1427</ele>
        <time>2013-08-28T06:09:21Z</time>
      </trkpt>
      <trkpt lat="-21.16999" lon="55.54532">
        <ele>1427.2</ele>
        <time>2013-08-28T06:09:24Z</time>
      </trkpt>
      <trkpt lat="-21.17001" lon="55.54522">
        <ele>1430</ele>
        <time>2013-08-28T06:10:10Z</time>
      </trkpt>
      <trkpt lat="-21.17005" lon="55.54506">
        <ele>1431</ele>
        <time>2013-08-28T06:10:18Z</time>
      </trkpt>
      <trkpt lat="-21.17014" lon="55.54532">
        <ele>1435</ele>
        <time>2013-08-28T06:10:31Z</time>
      </trkpt>
      <trkpt lat="-21.17014" lon="55.54545">
        <ele>1436.9</ele>
        <time>2013-08-28T06:10:34Z</time>
      </trkpt>
      <trkpt lat="-21.17029" lon="55.54541">
        <ele>1439</ele>
        <time>2013-08-28T06:10:54Z</time>
      </trkpt>
      <trkpt lat="-21.17031" lon="55.54531">
        <ele>1440</ele>
        <time>2013-08-28T06:11:00Z</time>
      </trkpt>
      <trkpt lat="-21.17033" lon="55.54515">
        <ele>1439</ele>
        <time>2013-08-28T06:11:08Z</time>
      </trkpt>
      <trkpt lat="-21.17035" lon="55.54505">
        <ele>1439</ele>
        <time>2013-08-28T06:11:16Z</time>
      </trkpt>
      <trkpt lat="-21.1704" lon="55.54492">
        <ele>1439</ele>
        <time>2013-08-28T06:11:25Z</time>
      </trkpt>
      <trkpt lat="-21.17034" lon="55.54525">
        <ele>1440</ele>
        <time>2013-08-28T06:12:04Z</time>
      </trkpt>
      <trkpt lat="-21.17028" lon="55.54496">
        <ele>1443.5</ele>
        <time>2013-08-28T06:12:12Z</time>
      </trkpt>
      <trkpt lat="-21.17027" lon="55.54503">
        <ele>1451</ele>
        <time>2013-08-28T06:12:37Z</time>
      </trkpt>
      <trkpt lat="-21.1703" lon="55.54489">
        <ele>1453</ele>
        <time>2013-08-28T06:12:45Z</time>
      </trkpt>
      <trkpt lat="-21.1704" lon="55.5448">
        <ele>1457</ele>
        <time>2013-08-28T06:13:13Z</time>
      </trkpt>
      <trkpt lat="-21.1704" lon="55.54481">
        <ele>1457.9</ele>
        <time>2013-08-28T06:13:14Z</time>
      </trkpt>
      <trkpt lat="-21.17041" lon="55.54509">
        <ele>1456</ele>
        <time>2013-08-28T06:13:54Z</time>
      </trkpt>
      <trkpt lat="-21.17043" lon="55.54499">
        <ele>1457</ele>
        <time>2013-08-28T06:14:02Z</time>
      </trkpt>
      <trkpt lat="-21.17041" lon="55.54509">
        <ele>1457</ele>
        <time>2013-08-28T06:14:17Z</time>
      </trkpt>
      <trkpt lat="-21.17041" lon="55.54553">
        <ele>1457.9</ele>
        <time>2013-08-28T06:14:22Z</time>
      </trkpt>
      <trkpt lat="-21.17072" lon="55.54472">
        <ele>1459</ele>
        <time>2013-08-28T06:14:41Z</time>
      </trkpt>
      <trkpt lat="-21.17071" lon="55.54531">
        <ele>1460</ele>
        <time>2013-08-28T06:14:50Z</time>
      </trkpt>
      <trkpt lat="-21.17084" lon="55.54509">
        <ele>1460</ele>
        <time>2013-08-28T06:15:06Z</time>
      </trkpt>
      <trkpt lat="-21.17086" lon="55.54473">
        <ele>1461</ele>
        <time>2013-08-28T06:15:13Z</time>
      </trkpt>
      <trkpt lat="-21.17086" lon="55.54482">
        <ele>1462.3</ele>
        <time>2013-08-28T06:15:16Z</time>
      </trkpt>
      <trkpt lat="-21.17079" lon="55.54475">
        <ele>1459</ele>
        <time>2013-08-28T06:15:59Z</time>
      </trkpt>
      <trkpt lat="-21.17079" lon="55.54475">
        <ele>1459.5</ele>
        <time>2013-08-28T06:16:01Z</time>
      </trkpt>
      <trkpt lat="-21.17088" lon="55.54494">
        <ele>1462</ele>
        <time>2013-08-28T06:18:13Z</time>
      </trkpt>
      <trkpt lat="-21.17086" lon="55.54494">
        <ele>1462.3</ele>
        <time>2013-08-28T06:18:15Z</time>
      </trkpt>
      <trkpt lat="-21.17072" lon="55.54511">
        <ele>1465</ele>
        <time>2013-08-28T06:18:58Z</time>
      </trkpt>
      <trkpt lat="-21.17085" lon="55.54492">
        <ele>1466</ele>
        <time>2013-08-28T06:19:18Z</time>
      </trkpt>
      <trkpt lat="-21.171" lon="55.54479">
        <ele>1467.7</ele>
        <time>2013-08-28T06:19:23Z</time>
      </trkpt>
      <trkpt lat="-21.17114" lon="55.54465">
        <ele>1468</ele>
        <time>2013-08-28T06:19:29Z</time>
      </trkpt>
      <trkpt lat="-21.17124" lon="55.54466">
        <ele>1473</ele>
        <time>2013-08-28T06:20:15Z</time>
      </trkpt>
      <trkpt lat="-21.17126" lon="55.54474">
        <ele>1474.9</ele>
        <time>2013-08-28T06:20:19Z</time>
      </trkpt>
      <trkpt lat="-21.17131" lon="55.54482">
        <ele>1475</ele>
        <time>2013-08-28T06:20:26Z</time>
      </trkpt>
      <trkpt lat="-21.17131" lon="55.54483">
        <ele>1474.8</ele>
        <time>2013-08-28T06:20:27Z</time>
      </trkpt>
      <trkpt lat="-21.17141" lon="55.54517">
        <ele>1482</ele>
        <time>2013-08-28T06:21:08Z</time>
      </trkpt>
      <trkpt lat="-21.17147" lon="55.54495">
        <ele>1485</ele>
        <time>2013-08-28T06:21:17Z</time>
      </trkpt>
      <trkpt lat="-21.17143" lon="55.54479">
        <ele>1487</ele>
        <time>2013-08-28T06:21:31Z</time>
      </trkpt>
      <trkpt lat="-21.17136" lon="55.54494">
        <ele>1488.6</ele>
        <time>2013-08-28T06:21:40Z</time>
      </trkpt>
      <trkpt lat="-21.17129" lon="55.54495">
        <ele>1490</ele>
        <time>2013-08-28T06:21:55Z</time>
      </trkpt>
      <trkpt lat="-21.17133" lon="55.54523">
        <ele>1499</ele>
        <time>2013-08-28T06:22:45Z</time>
      </trkpt>
      <trkpt lat="-21.17132" lon="55.54529">
        <ele>1500.9</ele>
        <time>2013-08-28T06:22:49Z</time>
      </trkpt>
      <trkpt lat="-21.17136" lon="55.54499">
        <ele>1505</ele>
        <time>2013-08-28T06:23:09Z</time>
      </trkpt>
      <trkpt lat="-21.17144" lon="55.54544">
        <ele>1508</ele>
        <time>2013-08-28T06:23:43Z</time>
      </trkpt>
      <trkpt lat="-21.17149" lon="55.54543">
        <ele>1508.7</ele>
        <time>2013-08-28T06:23:52Z</time>
      </trkpt>
      <trkpt lat="-21.17151" lon="55.54494">
        <ele>1509</ele>
        <time>2013-08-28T06:24:07Z</time>
      </trkpt>
      <trkpt lat="-21.17145" lon="55.54504">
        <ele>1509</ele>
        <time>2013-08-28T06:24:24Z</time>
      </trkpt>
      <trkpt lat="-21.17136" lon="55.545">
        <ele>1508</ele>
        <time>2013-08-28T06:24:33Z</time>
      </trkpt>
      <trkpt lat="-21.17142" lon="55.54512">
        <ele>1508</ele>
        <time>2013-08-28T06:24:37Z</time>
      </trkpt>
      <trkpt lat="-21.17154" lon="55.54511">
        <ele>1510</ele>
        <time>2013-08-28T06:24:53Z</time>
      </trkpt>
      <trkpt lat="-21.17154" lon="55.54511">
        <ele>1511.3</ele>
        <time>2013-08-28T06:24:54Z</time>
      </trkpt>
      <trkpt lat="-21.17155" lon="55.54512">
        <ele>1516</ele>
        <time>2013-08-28T06:25:25Z</time>
      </trkpt>
      <trkpt lat="-21.17143" lon="55.5452">
        <ele>1521</ele>
        <time>2013-08-28T06:25:42Z</time>
      </trkpt>
      <trkpt lat="-21.17143" lon="55.5453">
        <ele>1528</ele>
        <time>2013-08-28T06:26:13Z</time>
      </trkpt>
      <trkpt lat="-21.17144" lon="55.5453">
        <ele>1529.1</ele>
        <time>2013-08-28T06:26:15Z</time>
      </trkpt>
      <trkpt lat="-21.17132" lon="55.54536">
        <ele>1538</ele>
        <time>2013-08-28T06:27:05Z</time>
      </trkpt>
      <trkpt lat="-21.17122" lon="55.54539">
        <ele>1541</ele>
        <time>2013-08-28T06:27:21Z</time>
      </trkpt>
      <trkpt lat="-21.17121" lon="55.5454">
        <ele>1542.3</ele>
        <time>2013-08-28T06:27:23Z</time>
      </trkpt>
      <trkpt lat="-21.17118" lon="55.54553">
        <ele>1549.7</ele>
        <time>2013-08-28T06:27:57Z</time>
      </trkpt>
      <trkpt lat="-21.17117" lon="55.54562">
        <ele>1552.3</ele>
        <time>2013-08-28T06:28:22Z</time>
      </trkpt>
      <trkpt lat="-21.17113" lon="55.54571">
        <ele>1554.4</ele>
        <time>2013-08-28T06:28:40Z</time>
      </trkpt>
      <trkpt lat="-21.17113" lon="55.54571">
        <ele>1554.6</ele>
        <time>2013-08-28T06:28:41Z</time>
      </trkpt>
      <trkpt lat="-21.17104" lon="55.54585">
        <ele>1560.5</ele>
        <time>2013-08-28T06:29:02Z</time>
      </trkpt>
      <trkpt lat="-21.17098" lon="55.54592">
        <ele>1559.5</ele>
        <time>2013-08-28T06:29:09Z</time>
      </trkpt>
      <trkpt lat="-21.17096" lon="55.54601">
        <ele>1558.5</ele>
        <time>2013-08-28T06:29:15Z</time>
      </trkpt>
      <trkpt lat="-21.17096" lon="55.54609">
        <ele>1560.6</ele>
        <time>2013-08-28T06:29:29Z</time>
      </trkpt>
      <trkpt lat="-21.17093" lon="55.54618">
        <ele>1561.4</ele>
        <time>2013-08-28T06:29:34Z</time>
      </trkpt>
      <trkpt lat="-21.17092" lon="55.54626">
        <ele>1561.5</ele>
        <time>2013-08-28T06:29:39Z</time>
      </trkpt>
      <trkpt lat="-21.1709" lon="55.54634">
        <ele>1562</ele>
        <time>2013-08-28T06:29:45Z</time>
      </trkpt>
      <trkpt lat="-21.17089" lon="55.54636">
        <ele>1562.4</ele>
        <time>2013-08-28T06:29:46Z</time>
      </trkpt>
      <trkpt lat="-21.17079" lon="55.54648">
        <ele>1564.2</ele>
        <time>2013-08-28T06:29:58Z</time>
      </trkpt>
      <trkpt lat="-21.17073" lon="55.54654">
        <ele>1565.1</ele>
        <time>2013-08-28T06:30:04Z</time>
      </trkpt>
      <trkpt lat="-21.17068" lon="55.54661">
        <ele>1565.2</ele>
        <time>2013-08-28T06:30:10Z</time>
      </trkpt>
      <trkpt lat="-21.17061" lon="55.54667">
        <ele>1566.6</ele>
        <time>2013-08-28T06:30:18Z</time>
      </trkpt>
      <trkpt lat="-21.17056" lon="55.54675">
        <ele>1566.9</ele>
        <time>2013-08-28T06:30:37Z</time>
      </trkpt>
      <trkpt lat="-21.17049" lon="55.54679">
        <ele>1565.6</ele>
        <time>2013-08-28T06:30:45Z</time>
      </trkpt>
      <trkpt lat="-21.17041" lon="55.54683">
        <ele>1563.6</ele>
        <time>2013-08-28T06:30:54Z</time>
      </trkpt>
      <trkpt lat="-21.1704" lon="55.54684">
        <ele>1563.5</ele>
        <time>2013-08-28T06:30:55Z</time>
      </trkpt>
      <trkpt lat="-21.17024" lon="55.54687">
        <ele>1563.6</ele>
        <time>2013-08-28T06:31:08Z</time>
      </trkpt>
      <trkpt lat="-21.17016" lon="55.54687">
        <ele>1564.3</ele>
        <time>2013-08-28T06:31:18Z</time>
      </trkpt>
      <trkpt lat="-21.17007" lon="55.54685">
        <ele>1566.4</ele>
        <time>2013-08-28T06:31:29Z</time>
      </trkpt>
      <trkpt lat="-21.17004" lon="55.54694">
        <ele>1568.9</ele>
        <time>2013-08-28T06:31:43Z</time>
      </trkpt>
      <trkpt lat="-21.17006" lon="55.54703">
        <ele>1569.6</ele>
        <time>2013-08-28T06:31:52Z</time>
      </trkpt>
      <trkpt lat="-21.1701" lon="55.54711">
        <ele>1569.6</ele>
        <time>2013-08-28T06:32:02Z</time>
      </trkpt>
      <trkpt lat="-21.1701" lon="55.54712">
        <ele>1569.6</ele>
        <time>2013-08-28T06:32:03Z</time>
      </trkpt>
      <trkpt lat="-21.17009" lon="55.54729">
        <ele>1571.7</ele>
        <time>2013-08-28T06:32:18Z</time>
      </trkpt>
      <trkpt lat="-21.17002" lon="55.54735">
        <ele>1572.8</ele>
        <time>2013-08-28T06:32:29Z</time>
      </trkpt>
      <trkpt lat="-21.17002" lon="55.54745">
        <ele>1571.1</ele>
        <time>2013-08-28T06:32:36Z</time>
      </trkpt>
      <trkpt lat="-21.16999" lon="55.54753">
        <ele>1572.9</ele>
        <time>2013-08-28T06:32:49Z</time>
      </trkpt>
      <trkpt lat="-21.16999" lon="55.54762">
        <ele>1574.4</ele>
        <time>2013-08-28T06:32:56Z</time>
      </trkpt>
      <trkpt lat="-21.16998" lon="55.54771">
        <ele>1572.9</ele>
        <time>2013-08-28T06:33:04Z</time>
      </trkpt>
      <trkpt lat="-21.16998" lon="55.54772">
        <ele>1572.6</ele>
        <time>2013-08-28T06:33:05Z</time>
      </trkpt>
      <trkpt lat="-21.16994" lon="55.54788">
        <ele>1570.5</ele>
        <time>2013-08-28T06:33:16Z</time>
      </trkpt>
      <trkpt lat="-21.16989" lon="55.54796">
        <ele>1570</ele>
        <time>2013-08-28T06:33:23Z</time>
      </trkpt>
      <trkpt lat="-21.16988" lon="55.54805">
        <ele>1572.7</ele>
        <time>2013-08-28T06:33:34Z</time>
      </trkpt>
      <trkpt lat="-21.16981" lon="55.54811">
        <ele>1573.9</ele>
        <time>2013-08-28T06:33:45Z</time>
      </trkpt>
      <trkpt lat="-21.16975" lon="55.54817">
        <ele>1574.6</ele>
        <time>2013-08-28T06:33:52Z</time>
      </trkpt>
      <trkpt lat="-21.16974" lon="55.54826">
        <ele>1574.9</ele>
        <time>2013-08-28T06:34:00Z</time>
      </trkpt>
      <trkpt lat="-21.16973" lon="55.54836">
        <ele>1575.2</ele>
        <time>2013-08-28T06:34:10Z</time>
      </trkpt>
      <trkpt lat="-21.16973" lon="55.54836">
        <ele>1575.1</ele>
        <time>2013-08-28T06:34:11Z</time>
      </trkpt>
      <trkpt lat="-21.1698" lon="55.54852">
        <ele>1577.5</ele>
        <time>2013-08-28T06:35:31Z</time>
      </trkpt>
      <trkpt lat="-21.1698" lon="55.54853">
        <ele>1577.7</ele>
        <time>2013-08-28T06:35:32Z</time>
      </trkpt>
      <trkpt lat="-21.1698" lon="55.5487">
        <ele>1579.1</ele>
        <time>2013-08-28T06:35:50Z</time>
      </trkpt>
      <trkpt lat="-21.16979" lon="55.54879">
        <ele>1580.3</ele>
        <time>2013-08-28T06:35:56Z</time>
      </trkpt>
      <trkpt lat="-21.16973" lon="55.54885">
        <ele>1579.9</ele>
        <time>2013-08-28T06:36:07Z</time>
      </trkpt>
      <trkpt lat="-21.16971" lon="55.54894">
        <ele>1579.9</ele>
        <time>2013-08-28T06:36:21Z</time>
      </trkpt>
      <trkpt lat="-21.16972" lon="55.54904">
        <ele>1581.8</ele>
        <time>2013-08-28T06:36:37Z</time>
      </trkpt>
      <trkpt lat="-21.16972" lon="55.54904">
        <ele>1582.2</ele>
        <time>2013-08-28T06:36:38Z</time>
      </trkpt>
      <trkpt lat="-21.16964" lon="55.54919">
        <ele>1590.4</ele>
        <time>2013-08-28T06:37:06Z</time>
      </trkpt>
      <trkpt lat="-21.16961" lon="55.54928">
        <ele>1592.2</ele>
        <time>2013-08-28T06:37:18Z</time>
      </trkpt>
      <trkpt lat="-21.16953" lon="55.5493">
        <ele>1594.1</ele>
        <time>2013-08-28T06:37:47Z</time>
      </trkpt>
      <trkpt lat="-21.16953" lon="55.5493">
        <ele>1593.9</ele>
        <time>2013-08-28T06:37:48Z</time>
      </trkpt>
      <trkpt lat="-21.16938" lon="55.54941">
        <ele>1596.4</ele>
        <time>2013-08-28T06:38:17Z</time>
      </trkpt>
      <trkpt lat="-21.1693" lon="55.54942">
        <ele>1596.1</ele>
        <time>2013-08-28T06:38:24Z</time>
      </trkpt>
      <trkpt lat="-21.16921" lon="55.54945">
        <ele>1596.3</ele>
        <time>2013-08-28T06:38:29Z</time>
      </trkpt>
      <trkpt lat="-21.16912" lon="55.54951">
        <ele>1598</ele>
        <time>2013-08-28T06:38:36Z</time>
      </trkpt>
      <trkpt lat="-21.16906" lon="55.54958">
        <ele>1599.3</ele>
        <time>2013-08-28T06:38:42Z</time>
      </trkpt>
      <trkpt lat="-21.169" lon="55.54964">
        <ele>1600.2</ele>
        <time>2013-08-28T06:38:48Z</time>
      </trkpt>
      <trkpt lat="-21.169" lon="55.54965">
        <ele>1600.5</ele>
        <time>2013-08-28T06:38:49Z</time>
      </trkpt>
      <trkpt lat="-21.16909" lon="55.54979">
        <ele>1598.2</ele>
        <time>2013-08-28T06:39:09Z</time>
      </trkpt>
      <trkpt lat="-21.16908" lon="55.54988">
        <ele>1599.5</ele>
        <time>2013-08-28T06:39:25Z</time>
      </trkpt>
      <trkpt lat="-21.16904" lon="55.54996">
        <ele>1601.1</ele>
        <time>2013-08-28T06:39:35Z</time>
      </trkpt>
      <trkpt lat="-21.16903" lon="55.55004">
        <ele>1600.8</ele>
        <time>2013-08-28T06:39:43Z</time>
      </trkpt>
      <trkpt lat="-21.169" lon="55.55012">
        <ele>1599.8</ele>
        <time>2013-08-28T06:39:50Z</time>
      </trkpt>
      <trkpt lat="-21.169" lon="55.55014">
        <ele>1599.9</ele>
        <time>2013-08-28T06:39:51Z</time>
      </trkpt>
      <trkpt lat="-21.16893" lon="55.55027">
        <ele>1600.9</ele>
        <time>2013-08-28T06:40:06Z</time>
      </trkpt>
      <trkpt lat="-21.16888" lon="55.55034">
        <ele>1601.7</ele>
        <time>2013-08-28T06:40:13Z</time>
      </trkpt>
      <trkpt lat="-21.1688" lon="55.55037">
        <ele>1602.5</ele>
        <time>2013-08-28T06:40:25Z</time>
      </trkpt>
      <trkpt lat="-21.16875" lon="55.55045">
        <ele>1602.7</ele>
        <time>2013-08-28T06:40:39Z</time>
      </trkpt>
      <trkpt lat="-21.16871" lon="55.55053">
        <ele>1605.3</ele>
        <time>2013-08-28T06:40:52Z</time>
      </trkpt>
      <trkpt lat="-21.16871" lon="55.55054">
        <ele>1605.7</ele>
        <time>2013-08-28T06:40:53Z</time>
      </trkpt>
      <trkpt lat="-21.16854" lon="55.55056">
        <ele>1608.9</ele>
        <time>2013-08-28T06:41:19Z</time>
      </trkpt>
      <trkpt lat="-21.16845" lon="55.55056">
        <ele>1609.4</ele>
        <time>2013-08-28T06:41:31Z</time>
      </trkpt>
      <trkpt lat="-21.16841" lon="55.55063">
        <ele>1614.3</ele>
        <time>2013-08-28T06:41:46Z</time>
      </trkpt>
      <trkpt lat="-21.16834" lon="55.55069">
        <ele>1617.2</ele>
        <time>2013-08-28T06:41:59Z</time>
      </trkpt>
      <trkpt lat="-21.16833" lon="55.5507">
        <ele>1617.6</ele>
        <time>2013-08-28T06:42:00Z</time>
      </trkpt>
      <trkpt lat="-21.16828" lon="55.55077">
        <ele>1616.4</ele>
        <time>2013-08-28T06:43:29Z</time>
      </trkpt>
      <trkpt lat="-21.16813" lon="55.55078">
        <ele>1613.9</ele>
        <time>2013-08-28T06:43:41Z</time>
      </trkpt>
      <trkpt lat="-21.16806" lon="55.55077">
        <ele>1614.3</ele>
        <time>2013-08-28T06:43:45Z</time>
      </trkpt>
      <trkpt lat="-21.16797" lon="55.55076">
        <ele>1614.3</ele>
        <time>2013-08-28T06:43:50Z</time>
      </trkpt>
      <trkpt lat="-21.16789" lon="55.55075">
        <ele>1615</ele>
        <time>2013-08-28T06:43:56Z</time>
      </trkpt>
      <trkpt lat="-21.16781" lon="55.55079">
        <ele>1615.5</ele>
        <time>2013-08-28T06:44:05Z</time>
      </trkpt>
      <trkpt lat="-21.16773" lon="55.55077">
        <ele>1616.7</ele>
        <time>2013-08-28T06:44:14Z</time>
      </trkpt>
      <trkpt lat="-21.16765" lon="55.5508">
        <ele>1617.5</ele>
        <time>2013-08-28T06:44:20Z</time>
      </trkpt>
      <trkpt lat="-21.16757" lon="55.55083">
        <ele>1619.2</ele>
        <time>2013-08-28T06:44:28Z</time>
      </trkpt>
      <trkpt lat="-21.1675" lon="55.55088">
        <ele>1620.2</ele>
        <time>2013-08-28T06:44:36Z</time>
      </trkpt>
      <trkpt lat="-21.16749" lon="55.55089">
        <ele>1620.2</ele>
        <time>2013-08-28T06:44:37Z</time>
      </trkpt>
      <trkpt lat="-21.16736" lon="55.55098">
        <ele>1623.6</ele>
        <time>2013-08-28T06:45:02Z</time>
      </trkpt>
      <trkpt lat="-21.1673" lon="55.55103">
        <ele>1623.1</ele>
        <time>2013-08-28T06:45:11Z</time>
      </trkpt>
      <trkpt lat="-21.16727" lon="55.55112">
        <ele>1624.7</ele>
        <time>2013-08-28T06:45:24Z</time>
      </trkpt>
      <trkpt lat="-21.16722" lon="55.55119">
        <ele>1627.1</ele>
        <time>2013-08-28T06:45:35Z</time>
      </trkpt>
      <trkpt lat="-21.16713" lon="55.55122">
        <ele>1627.7</ele>
        <time>2013-08-28T06:45:48Z</time>
      </trkpt>
      <trkpt lat="-21.16712" lon="55.55122">
        <ele>1627.5</ele>
        <time>2013-08-28T06:45:49Z</time>
      </trkpt>
      <trkpt lat="-21.16705" lon="55.55136">
        <ele>1629.1</ele>
        <time>2013-08-28T06:46:04Z</time>
      </trkpt>
      <trkpt lat="-21.167" lon="55.55144">
        <ele>1629.6</ele>
        <time>2013-08-28T06:46:13Z</time>
      </trkpt>
      <trkpt lat="-21.16693" lon="55.55149">
        <ele>1631.3</ele>
        <time>2013-08-28T06:46:23Z</time>
      </trkpt>
      <trkpt lat="-21.16692" lon="55.55158">
        <ele>1634.2</ele>
        <time>2013-08-28T06:46:37Z</time>
      </trkpt>
      <trkpt lat="-21.16683" lon="55.55156">
        <ele>1635.1</ele>
        <time>2013-08-28T06:46:45Z</time>
      </trkpt>
      <trkpt lat="-21.1668" lon="55.55164">
        <ele>1637.8</ele>
        <time>2013-08-28T06:46:56Z</time>
      </trkpt>
      <trkpt lat="-21.1668" lon="55.55165">
        <ele>1637.9</ele>
        <time>2013-08-28T06:46:57Z</time>
      </trkpt>
      <trkpt lat="-21.16669" lon="55.55179">
        <ele>1646.4</ele>
        <time>2013-08-28T06:47:28Z</time>
      </trkpt>
      <trkpt lat="-21.16666" lon="55.55188">
        <ele>1648</ele>
        <time>2013-08-28T06:47:39Z</time>
      </trkpt>
      <trkpt lat="-21.16666" lon="55.55197">
        <ele>1651.7</ele>
        <time>2013-08-28T06:47:54Z</time>
      </trkpt>
      <trkpt lat="-21.16657" lon="55.55198">
        <ele>1654.9</ele>
        <time>2013-08-28T06:48:56Z</time>
      </trkpt>
      <trkpt lat="-21.16657" lon="55.55198">
        <ele>1655.1</ele>
        <time>2013-08-28T06:48:57Z</time>
      </trkpt>
      <trkpt lat="-21.16644" lon="55.55206">
        <ele>1657</ele>
        <time>2013-08-28T06:49:18Z</time>
      </trkpt>
      <trkpt lat="-21.16638" lon="55.55212">
        <ele>1658.2</ele>
        <time>2013-08-28T06:49:28Z</time>
      </trkpt>
      <trkpt lat="-21.16631" lon="55.55218">
        <ele>1658.2</ele>
        <time>2013-08-28T06:49:37Z</time>
      </trkpt>
      <trkpt lat="-21.16627" lon="55.55226">
        <ele>1659.6</ele>
        <time>2013-08-28T06:49:52Z</time>
      </trkpt>
      <trkpt lat="-21.16624" lon="55.55235">
        <ele>1661.5</ele>
        <time>2013-08-28T06:50:08Z</time>
      </trkpt>
      <trkpt lat="-21.16624" lon="55.55236">
        <ele>1662</ele>
        <time>2013-08-28T06:50:09Z</time>
      </trkpt>
      <trkpt lat="-21.16624" lon="55.55251">
        <ele>1663.2</ele>
        <time>2013-08-28T06:50:22Z</time>
      </trkpt>
      <trkpt lat="-21.16619" lon="55.55259">
        <ele>1662.9</ele>
        <time>2013-08-28T06:50:29Z</time>
      </trkpt>
      <trkpt lat="-21.16617" lon="55.55267">
        <ele>1661.1</ele>
        <time>2013-08-28T06:50:38Z</time>
      </trkpt>
      <trkpt lat="-21.16612" lon="55.55275">
        <ele>1661.9</ele>
        <time>2013-08-28T06:50:45Z</time>
      </trkpt>
      <trkpt lat="-21.16605" lon="55.55279">
        <ele>1661</ele>
        <time>2013-08-28T06:51:01Z</time>
      </trkpt>
      <trkpt lat="-21.16602" lon="55.55287">
        <ele>1660.9</ele>
        <time>2013-08-28T06:51:07Z</time>
      </trkpt>
      <trkpt lat="-21.16595" lon="55.55293">
        <ele>1661.2</ele>
        <time>2013-08-28T06:51:13Z</time>
      </trkpt>
      <trkpt lat="-21.16594" lon="55.55293">
        <ele>1661.2</ele>
        <time>2013-08-28T06:51:14Z</time>
      </trkpt>
      <trkpt lat="-21.16583" lon="55.55305">
        <ele>1663.9</ele>
        <time>2013-08-28T06:51:42Z</time>
      </trkpt>
      <trkpt lat="-21.16576" lon="55.55311">
        <ele>1664.7</ele>
        <time>2013-08-28T06:51:51Z</time>
      </trkpt>
      <trkpt lat="-21.1657" lon="55.55318">
        <ele>1664.2</ele>
        <time>2013-08-28T06:51:58Z</time>
      </trkpt>
      <trkpt lat="-21.16563" lon="55.55322">
        <ele>1662</ele>
        <time>2013-08-28T06:52:07Z</time>
      </trkpt>
      <trkpt lat="-21.16556" lon="55.55327">
        <ele>1666.2</ele>
        <time>2013-08-28T06:52:19Z</time>
      </trkpt>
      <trkpt lat="-21.16555" lon="55.55328">
        <ele>1666.4</ele>
        <time>2013-08-28T06:52:20Z</time>
      </trkpt>
      <trkpt lat="-21.16546" lon="55.55341">
        <ele>1671.7</ele>
        <time>2013-08-28T06:52:43Z</time>
      </trkpt>
      <trkpt lat="-21.16539" lon="55.55346">
        <ele>1675.3</ele>
        <time>2013-08-28T06:52:58Z</time>
      </trkpt>
      <trkpt lat="-21.16533" lon="55.55352">
        <ele>1679.6</ele>
        <time>2013-08-28T06:53:21Z</time>
      </trkpt>
      <trkpt lat="-21.16532" lon="55.55353">
        <ele>1679.7</ele>
        <time>2013-08-28T06:53:22Z</time>
      </trkpt>
      <trkpt lat="-21.16517" lon="55.55357">
        <ele>1681.9</ele>
        <time>2013-08-28T06:54:09Z</time>
      </trkpt>
      <trkpt lat="-21.1651" lon="55.55363">
        <ele>1683.2</ele>
        <time>2013-08-28T06:54:17Z</time>
      </trkpt>
      <trkpt lat="-21.16503" lon="55.55367">
        <ele>1685.2</ele>
        <time>2013-08-28T06:54:27Z</time>
      </trkpt>
      <trkpt lat="-21.16502" lon="55.55368">
        <ele>1685.7</ele>
        <time>2013-08-28T06:54:28Z</time>
      </trkpt>
      <trkpt lat="-21.16489" lon="55.55375">
        <ele>1689.9</ele>
        <time>2013-08-28T06:54:47Z</time>
      </trkpt>
      <trkpt lat="-21.1648" lon="55.55377">
        <ele>1692.4</ele>
        <time>2013-08-28T06:54:58Z</time>
      </trkpt>
      <trkpt lat="-21.16472" lon="55.55377">
        <ele>1695.1</ele>
        <time>2013-08-28T06:55:05Z</time>
      </trkpt>
      <trkpt lat="-21.16463" lon="55.55379">
        <ele>1696.3</ele>
        <time>2013-08-28T06:55:13Z</time>
      </trkpt>
      <trkpt lat="-21.16455" lon="55.55381">
        <ele>1696.3</ele>
        <time>2013-08-28T06:55:21Z</time>
      </trkpt>
      <trkpt lat="-21.16447" lon="55.55384">
        <ele>1698.5</ele>
        <time>2013-08-28T06:55:29Z</time>
      </trkpt>
      <trkpt lat="-21.16446" lon="55.55385">
        <ele>1698.7</ele>
        <time>2013-08-28T06:55:30Z</time>
      </trkpt>
      <trkpt lat="-21.16432" lon="55.55393">
        <ele>1705</ele>
        <time>2013-08-28T06:55:53Z</time>
      </trkpt>
      <trkpt lat="-21.16423" lon="55.55393">
        <ele>1706.7</ele>
        <time>2013-08-28T06:56:07Z</time>
      </trkpt>
      <trkpt lat="-21.16414" lon="55.55391">
        <ele>1708.9</ele>
        <time>2013-08-28T06:56:15Z</time>
      </trkpt>
      <trkpt lat="-21.16406" lon="55.5539">
        <ele>1711.5</ele>
        <time>2013-08-28T06:56:23Z</time>
      </trkpt>
      <trkpt lat="-21.16398" lon="55.55392">
        <ele>1712</ele>
        <time>2013-08-28T06:56:29Z</time>
      </trkpt>
      <trkpt lat="-21.1639" lon="55.55394">
        <ele>1714.2</ele>
        <time>2013-08-28T06:56:38Z</time>
      </trkpt>
      <trkpt lat="-21.16389" lon="55.55394">
        <ele>1714.5</ele>
        <time>2013-08-28T06:56:39Z</time>
      </trkpt>
      <trkpt lat="-21.16375" lon="55.55404">
        <ele>1717.5</ele>
        <time>2013-08-28T06:57:00Z</time>
      </trkpt>
      <trkpt lat="-21.16367" lon="55.55407">
        <ele>1719.7</ele>
        <time>2013-08-28T06:57:08Z</time>
      </trkpt>
      <trkpt lat="-21.16358" lon="55.55408">
        <ele>1723</ele>
        <time>2013-08-28T06:57:18Z</time>
      </trkpt>
      <trkpt lat="-21.1635" lon="55.55408">
        <ele>1724.5</ele>
        <time>2013-08-28T06:57:25Z</time>
      </trkpt>
      <trkpt lat="-21.16341" lon="55.55408">
        <ele>1727.1</ele>
        <time>2013-08-28T06:57:37Z</time>
      </trkpt>
      <trkpt lat="-21.16333" lon="55.55409">
        <ele>1728.5</ele>
        <time>2013-08-28T06:57:46Z</time>
      </trkpt>
      <trkpt lat="-21.16332" lon="55.55409">
        <ele>1729</ele>
        <time>2013-08-28T06:57:47Z</time>
      </trkpt>
      <trkpt lat="-21.16316" lon="55.55413">
        <ele>1731</ele>
        <time>2013-08-28T06:58:05Z</time>
      </trkpt>
      <trkpt lat="-21.16308" lon="55.55416">
        <ele>1731.7</ele>
        <time>2013-08-28T06:58:15Z</time>
      </trkpt>
      <trkpt lat="-21.16299" lon="55.55418">
        <ele>1732</ele>
        <time>2013-08-28T06:58:25Z</time>
      </trkpt>
      <trkpt lat="-21.16291" lon="55.55421">
        <ele>1734.7</ele>
        <time>2013-08-28T06:58:37Z</time>
      </trkpt>
      <trkpt lat="-21.16283" lon="55.55423">
        <ele>1736.7</ele>
        <time>2013-08-28T06:58:48Z</time>
      </trkpt>
      <trkpt lat="-21.16282" lon="55.55423">
        <ele>1736.8</ele>
        <time>2013-08-28T06:58:49Z</time>
      </trkpt>
      <trkpt lat="-21.16266" lon="55.55424">
        <ele>1739.4</ele>
        <time>2013-08-28T06:59:04Z</time>
      </trkpt>
      <trkpt lat="-21.16258" lon="55.55426">
        <ele>1742.4</ele>
        <time>2013-08-28T06:59:14Z</time>
      </trkpt>
      <trkpt lat="-21.16249" lon="55.55428">
        <ele>1742.5</ele>
        <time>2013-08-28T06:59:27Z</time>
      </trkpt>
      <trkpt lat="-21.16243" lon="55.55435">
        <ele>1742</ele>
        <time>2013-08-28T07:03:18Z</time>
      </trkpt>
      <trkpt lat="-21.16243" lon="55.55435">
        <ele>1741.7</ele>
        <time>2013-08-28T07:03:19Z</time>
      </trkpt>
      <trkpt lat="-21.16232" lon="55.55448">
        <ele>1738.6</ele>
        <time>2013-08-28T07:03:35Z</time>
      </trkpt>
      <trkpt lat="-21.16226" lon="55.55455">
        <ele>1738.6</ele>
        <time>2013-08-28T07:03:42Z</time>
      </trkpt>
      <trkpt lat="-21.1622" lon="55.55461">
        <ele>1737</ele>
        <time>2013-08-28T07:03:48Z</time>
      </trkpt>
      <trkpt lat="-21.16213" lon="55.55468">
        <ele>1736.2</ele>
        <time>2013-08-28T07:03:56Z</time>
      </trkpt>
      <trkpt lat="-21.16208" lon="55.55474">
        <ele>1735.3</ele>
        <time>2013-08-28T07:04:04Z</time>
      </trkpt>
      <trkpt lat="-21.16202" lon="55.55481">
        <ele>1734.9</ele>
        <time>2013-08-28T07:04:11Z</time>
      </trkpt>
      <trkpt lat="-21.16199" lon="55.5549">
        <ele>1733.9</ele>
        <time>2013-08-28T07:05:18Z</time>
      </trkpt>
      <trkpt lat="-21.16198" lon="55.55491">
        <ele>1734.3</ele>
        <time>2013-08-28T07:05:19Z</time>
      </trkpt>
      <trkpt lat="-21.1619" lon="55.55493">
        <ele>1733.7</ele>
        <time>2013-08-28T07:08:40Z</time>
      </trkpt>
      <trkpt lat="-21.1618" lon="55.55507">
        <ele>1731</ele>
        <time>2013-08-28T07:08:57Z</time>
      </trkpt>
      <trkpt lat="-21.16174" lon="55.55514">
        <ele>1732.1</ele>
        <time>2013-08-28T07:09:14Z</time>
      </trkpt>
      <trkpt lat="-21.16168" lon="55.55521">
        <ele>1734.4</ele>
        <time>2013-08-28T07:09:27Z</time>
      </trkpt>
      <trkpt lat="-21.16162" lon="55.55528">
        <ele>1736.2</ele>
        <time>2013-08-28T07:09:35Z</time>
      </trkpt>
      <trkpt lat="-21.16159" lon="55.55536">
        <ele>1735.5</ele>
        <time>2013-08-28T07:09:42Z</time>
      </trkpt>
      <trkpt lat="-21.16159" lon="55.55537">
        <ele>1735.4</ele>
        <time>2013-08-28T07:09:43Z</time>
      </trkpt>
      <trkpt lat="-21.16151" lon="55.55553">
        <ele>1731.6</ele>
        <time>2013-08-28T07:09:59Z</time>
      </trkpt>
      <trkpt lat="-21.16145" lon="55.55558">
        <ele>1730</ele>
        <time>2013-08-28T07:10:06Z</time>
      </trkpt>
      <trkpt lat="-21.16139" lon="55.55566">
        <ele>1729</ele>
        <time>2013-08-28T07:10:13Z</time>
      </trkpt>
      <trkpt lat="-21.16134" lon="55.55573">
        <ele>1728.9</ele>
        <time>2013-08-28T07:10:19Z</time>
      </trkpt>
      <trkpt lat="-21.16128" lon="55.5558">
        <ele>1727.8</ele>
        <time>2013-08-28T07:10:25Z</time>
      </trkpt>
      <trkpt lat="-21.16123" lon="55.55587">
        <ele>1726.8</ele>
        <time>2013-08-28T07:10:30Z</time>
      </trkpt>
      <trkpt lat="-21.16117" lon="55.55594">
        <ele>1725.4</ele>
        <time>2013-08-28T07:10:36Z</time>
      </trkpt>
      <trkpt lat="-21.16113" lon="55.55602">
        <ele>1724.7</ele>
        <time>2013-08-28T07:10:41Z</time>
      </trkpt>
      <trkpt lat="-21.16107" lon="55.55607">
        <ele>1724.5</ele>
        <time>2013-08-28T07:10:46Z</time>
      </trkpt>
      <trkpt lat="-21.16107" lon="55.55608">
        <ele>1724.5</ele>
        <time>2013-08-28T07:10:47Z</time>
      </trkpt>
      <trkpt lat="-21.16098" lon="55.5562">
        <ele>1723.1</ele>
        <time>2013-08-28T07:11:00Z</time>
      </trkpt>
      <trkpt lat="-21.16095" lon="55.55628">
        <ele>1722.2</ele>
        <time>2013-08-28T07:11:07Z</time>
      </trkpt>
      <trkpt lat="-21.16089" lon="55.55634">
        <ele>1722</ele>
        <time>2013-08-28T07:11:13Z</time>
      </trkpt>
      <trkpt lat="-21.16083" lon="55.5564">
        <ele>1721.2</ele>
        <time>2013-08-28T07:11:19Z</time>
      </trkpt>
      <trkpt lat="-21.16077" lon="55.55645">
        <ele>1720.3</ele>
        <time>2013-08-28T07:11:24Z</time>
      </trkpt>
      <trkpt lat="-21.16072" lon="55.55652">
        <ele>1719.2</ele>
        <time>2013-08-28T07:11:29Z</time>
      </trkpt>
      <trkpt lat="-21.16067" lon="55.5566">
        <ele>1717.2</ele>
        <time>2013-08-28T07:11:35Z</time>
      </trkpt>
      <trkpt lat="-21.1606" lon="55.55666">
        <ele>1715.5</ele>
        <time>2013-08-28T07:11:45Z</time>
      </trkpt>
      <trkpt lat="-21.16057" lon="55.55674">
        <ele>1712.3</ele>
        <time>2013-08-28T07:12:00Z</time>
      </trkpt>
      <trkpt lat="-21.16056" lon="55.55675">
        <ele>1712.6</ele>
        <time>2013-08-28T07:12:01Z</time>
      </trkpt>
      <trkpt lat="-21.16046" lon="55.55687">
        <ele>1713.3</ele>
        <time>2013-08-28T07:12:18Z</time>
      </trkpt>
      <trkpt lat="-21.1604" lon="55.55693">
        <ele>1712.7</ele>
        <time>2013-08-28T07:12:27Z</time>
      </trkpt>
      <trkpt lat="-21.16036" lon="55.55701">
        <ele>1713.9</ele>
        <time>2013-08-28T07:12:34Z</time>
      </trkpt>
      <trkpt lat="-21.16037" lon="55.55709">
        <ele>1714.9</ele>
        <time>2013-08-28T07:12:41Z</time>
      </trkpt>
      <trkpt lat="-21.16037" lon="55.55718">
        <ele>1715.2</ele>
        <time>2013-08-28T07:12:48Z</time>
      </trkpt>
      <trkpt lat="-21.16036" lon="55.55727">
        <ele>1714.9</ele>
        <time>2013-08-28T07:12:55Z</time>
      </trkpt>
      <trkpt lat="-21.16032" lon="55.55734">
        <ele>1713.9</ele>
        <time>2013-08-28T07:13:03Z</time>
      </trkpt>
      <trkpt lat="-21.16032" lon="55.55736">
        <ele>1713.5</ele>
        <time>2013-08-28T07:13:04Z</time>
      </trkpt>
      <trkpt lat="-21.16024" lon="55.5575">
        <ele>1709</ele>
        <time>2013-08-28T07:13:21Z</time>
      </trkpt>
      <trkpt lat="-21.16024" lon="55.55758">
        <ele>1707.6</ele>
        <time>2013-08-28T07:13:29Z</time>
      </trkpt>
      <trkpt lat="-21.16024" lon="55.55767">
        <ele>1706.6</ele>
        <time>2013-08-28T07:13:35Z</time>
      </trkpt>
      <trkpt lat="-21.16024" lon="55.55776">
        <ele>1703.1</ele>
        <time>2013-08-28T07:13:42Z</time>
      </trkpt>
      <trkpt lat="-21.16022" lon="55.55785">
        <ele>1700.3</ele>
        <time>2013-08-28T07:13:51Z</time>
      </trkpt>
      <trkpt lat="-21.16017" lon="55.55793">
        <ele>1698.2</ele>
        <time>2013-08-28T07:14:03Z</time>
      </trkpt>
      <trkpt lat="-21.16012" lon="55.55801">
        <ele>1696</ele>
        <time>2013-08-28T07:14:18Z</time>
      </trkpt>
      <trkpt lat="-21.1601" lon="55.55801">
        <ele>1695.9</ele>
        <time>2013-08-28T07:14:19Z</time>
      </trkpt>
      <trkpt lat="-21.16004" lon="55.55816">
        <ele>1692.5</ele>
        <time>2013-08-28T07:14:33Z</time>
      </trkpt>
      <trkpt lat="-21.15996" lon="55.55816">
        <ele>1691</ele>
        <time>2013-08-28T07:14:45Z</time>
      </trkpt>
      <trkpt lat="-21.15987" lon="55.55819">
        <ele>1693.1</ele>
        <time>2013-08-28T07:14:55Z</time>
      </trkpt>
      <trkpt lat="-21.15979" lon="55.55821">
        <ele>1693.6</ele>
        <time>2013-08-28T07:15:05Z</time>
      </trkpt>
      <trkpt lat="-21.15971" lon="55.5582">
        <ele>1693.3</ele>
        <time>2013-08-28T07:15:12Z</time>
      </trkpt>
      <trkpt lat="-21.15962" lon="55.5582">
        <ele>1693.6</ele>
        <time>2013-08-28T07:15:18Z</time>
      </trkpt>
      <trkpt lat="-21.15954" lon="55.55819">
        <ele>1694</ele>
        <time>2013-08-28T07:15:26Z</time>
      </trkpt>
      <trkpt lat="-21.15952" lon="55.55818">
        <ele>1694.3</ele>
        <time>2013-08-28T07:15:27Z</time>
      </trkpt>
      <trkpt lat="-21.15938" lon="55.55812">
        <ele>1694.7</ele>
        <time>2013-08-28T07:15:38Z</time>
      </trkpt>
      <trkpt lat="-21.1593" lon="55.55811">
        <ele>1696.7</ele>
        <time>2013-08-28T07:15:48Z</time>
      </trkpt>
      <trkpt lat="-21.15922" lon="55.5581">
        <ele>1697.9</ele>
        <time>2013-08-28T07:15:57Z</time>
      </trkpt>
      <trkpt lat="-21.15914" lon="55.55807">
        <ele>1699.7</ele>
        <time>2013-08-28T07:16:04Z</time>
      </trkpt>
      <trkpt lat="-21.15905" lon="55.55807">
        <ele>1701.5</ele>
        <time>2013-08-28T07:16:12Z</time>
      </trkpt>
      <trkpt lat="-21.15898" lon="55.55803">
        <ele>1703.8</ele>
        <time>2013-08-28T07:16:26Z</time>
      </trkpt>
      <trkpt lat="-21.15892" lon="55.55796">
        <ele>1706.1</ele>
        <time>2013-08-28T07:16:35Z</time>
      </trkpt>
      <trkpt lat="-21.15891" lon="55.55795">
        <ele>1706.4</ele>
        <time>2013-08-28T07:16:36Z</time>
      </trkpt>
      <trkpt lat="-21.1588" lon="55.55784">
        <ele>1707.8</ele>
        <time>2013-08-28T07:16:51Z</time>
      </trkpt>
      <trkpt lat="-21.15878" lon="55.55776">
        <ele>1710.5</ele>
        <time>2013-08-28T07:17:03Z</time>
      </trkpt>
      <trkpt lat="-21.1587" lon="55.55771">
        <ele>1712</ele>
        <time>2013-08-28T07:17:32Z</time>
      </trkpt>
      <trkpt lat="-21.15864" lon="55.55764">
        <ele>1714</ele>
        <time>2013-08-28T07:17:46Z</time>
      </trkpt>
      <trkpt lat="-21.15863" lon="55.55764">
        <ele>1714.2</ele>
        <time>2013-08-28T07:17:47Z</time>
      </trkpt>
      <trkpt lat="-21.15849" lon="55.55758">
        <ele>1714</ele>
        <time>2013-08-28T07:18:09Z</time>
      </trkpt>
      <trkpt lat="-21.15842" lon="55.55753">
        <ele>1713.5</ele>
        <time>2013-08-28T07:18:24Z</time>
      </trkpt>
      <trkpt lat="-21.15834" lon="55.5575">
        <ele>1712</ele>
        <time>2013-08-28T07:18:31Z</time>
      </trkpt>
      <trkpt lat="-21.15828" lon="55.55744">
        <ele>1711.3</ele>
        <time>2013-08-28T07:18:37Z</time>
      </trkpt>
      <trkpt lat="-21.15822" lon="55.55739">
        <ele>1710</ele>
        <time>2013-08-28T07:18:43Z</time>
      </trkpt>
      <trkpt lat="-21.15814" lon="55.55738">
        <ele>1709.7</ele>
        <time>2013-08-28T07:18:49Z</time>
      </trkpt>
      <trkpt lat="-21.15813" lon="55.55738">
        <ele>1709.4</ele>
        <time>2013-08-28T07:18:50Z</time>
      </trkpt>
      <trkpt lat="-21.158" lon="55.55744">
        <ele>1707</ele>
        <time>2013-08-28T07:19:05Z</time>
      </trkpt>
      <trkpt lat="-21.15794" lon="55.55751">
        <ele>1704.8</ele>
        <time>2013-08-28T07:19:13Z</time>
      </trkpt>
      <trkpt lat="-21.15796" lon="55.5576">
        <ele>1700.3</ele>
        <time>2013-08-28T07:19:32Z</time>
      </trkpt>
      <trkpt lat="-21.15797" lon="55.55769">
        <ele>1698.5</ele>
        <time>2013-08-28T07:19:41Z</time>
      </trkpt>
      <trkpt lat="-21.15794" lon="55.55777">
        <ele>1700.2</ele>
        <time>2013-08-28T07:19:49Z</time>
      </trkpt>
      <trkpt lat="-21.15795" lon="55.55786">
        <ele>1697.3</ele>
        <time>2013-08-28T07:19:59Z</time>
      </trkpt>
      <trkpt lat="-21.15794" lon="55.55787">
        <ele>1697.3</ele>
        <time>2013-08-28T07:20:00Z</time>
      </trkpt>
      <trkpt lat="-21.15793" lon="55.55805">
        <ele>1691.1</ele>
        <time>2013-08-28T07:20:36Z</time>
      </trkpt>
      <trkpt lat="-21.15794" lon="55.55814">
        <ele>1690.4</ele>
        <time>2013-08-28T07:21:04Z</time>
      </trkpt>
      <trkpt lat="-21.15793" lon="55.55815">
        <ele>1690.2</ele>
        <time>2013-08-28T07:21:05Z</time>
      </trkpt>
      <trkpt lat="-21.15781" lon="55.55827">
        <ele>1692.4</ele>
        <time>2013-08-28T07:21:28Z</time>
      </trkpt>
      <trkpt lat="-21.15775" lon="55.55833">
        <ele>1693</ele>
        <time>2013-08-28T07:21:37Z</time>
      </trkpt>
      <trkpt lat="-21.15771" lon="55.5584">
        <ele>1692.8</ele>
        <time>2013-08-28T07:21:44Z</time>
      </trkpt>
      <trkpt lat="-21.15764" lon="55.55847">
        <ele>1691.7</ele>
        <time>2013-08-28T07:21:52Z</time>
      </trkpt>
      <trkpt lat="-21.15756" lon="55.5585">
        <ele>1690.6</ele>
        <time>2013-08-28T07:22:00Z</time>
      </trkpt>
      <trkpt lat="-21.1575" lon="55.55858">
        <ele>1689.6</ele>
        <time>2013-08-28T07:22:08Z</time>
      </trkpt>
      <trkpt lat="-21.1575" lon="55.55859">
        <ele>1689.3</ele>
        <time>2013-08-28T07:22:09Z</time>
      </trkpt>
      <trkpt lat="-21.15745" lon="55.55874">
        <ele>1688</ele>
        <time>2013-08-28T07:22:27Z</time>
      </trkpt>
      <trkpt lat="-21.15742" lon="55.55883">
        <ele>1686.4</ele>
        <time>2013-08-28T07:22:34Z</time>
      </trkpt>
      <trkpt lat="-21.15741" lon="55.55891">
        <ele>1685.4</ele>
        <time>2013-08-28T07:22:43Z</time>
      </trkpt>
      <trkpt lat="-21.15739" lon="55.55899">
        <ele>1683</ele>
        <time>2013-08-28T07:22:50Z</time>
      </trkpt>
      <trkpt lat="-21.15733" lon="55.55906">
        <ele>1681.7</ele>
        <time>2013-08-28T07:22:55Z</time>
      </trkpt>
      <trkpt lat="-21.1573" lon="55.55913">
        <ele>1680.1</ele>
        <time>2013-08-28T07:23:00Z</time>
      </trkpt>
      <trkpt lat="-21.15732" lon="55.55923">
        <ele>1679.2</ele>
        <time>2013-08-28T07:23:05Z</time>
      </trkpt>
      <trkpt lat="-21.15736" lon="55.55929">
        <ele>1679.4</ele>
        <time>2013-08-28T07:23:08Z</time>
      </trkpt>
      <trkpt lat="-21.15738" lon="55.55938">
        <ele>1679.9</ele>
        <time>2013-08-28T07:23:13Z</time>
      </trkpt>
      <trkpt lat="-21.15739" lon="55.55939">
        <ele>1679.9</ele>
        <time>2013-08-28T07:23:14Z</time>
      </trkpt>
      <trkpt lat="-21.15736" lon="55.55954">
        <ele>1679.8</ele>
        <time>2013-08-28T07:23:23Z</time>
      </trkpt>
      <trkpt lat="-21.15729" lon="55.5596">
        <ele>1680.5</ele>
        <time>2013-08-28T07:23:28Z</time>
      </trkpt>
      <trkpt lat="-21.15725" lon="55.55968">
        <ele>1679.2</ele>
        <time>2013-08-28T07:23:35Z</time>
      </trkpt>
      <trkpt lat="-21.15724" lon="55.55977">
        <ele>1679.7</ele>
        <time>2013-08-28T07:23:43Z</time>
      </trkpt>
      <trkpt lat="-21.15721" lon="55.55986">
        <ele>1678.8</ele>
        <time>2013-08-28T07:23:52Z</time>
      </trkpt>
      <trkpt lat="-21.15717" lon="55.55993">
        <ele>1676.4</ele>
        <time>2013-08-28T07:23:57Z</time>
      </trkpt>
      <trkpt lat="-21.15711" lon="55.56">
        <ele>1673.8</ele>
        <time>2013-08-28T07:24:04Z</time>
      </trkpt>
      <trkpt lat="-21.15708" lon="55.56008">
        <ele>1672.2</ele>
        <time>2013-08-28T07:24:11Z</time>
      </trkpt>
      <trkpt lat="-21.15704" lon="55.56017">
        <ele>1669.5</ele>
        <time>2013-08-28T07:24:21Z</time>
      </trkpt>
      <trkpt lat="-21.15704" lon="55.56017">
        <ele>1669.7</ele>
        <time>2013-08-28T07:24:22Z</time>
      </trkpt>
      <trkpt lat="-21.15694" lon="55.5603">
        <ele>1665.3</ele>
        <time>2013-08-28T07:24:38Z</time>
      </trkpt>
      <trkpt lat="-21.15689" lon="55.56038">
        <ele>1663.2</ele>
        <time>2013-08-28T07:24:47Z</time>
      </trkpt>
      <trkpt lat="-21.15684" lon="55.56045">
        <ele>1661.8</ele>
        <time>2013-08-28T07:24:53Z</time>
      </trkpt>
      <trkpt lat="-21.1568" lon="55.56053">
        <ele>1660.7</ele>
        <time>2013-08-28T07:25:00Z</time>
      </trkpt>
      <trkpt lat="-21.15678" lon="55.56061">
        <ele>1659.6</ele>
        <time>2013-08-28T07:25:05Z</time>
      </trkpt>
      <trkpt lat="-21.15674" lon="55.56069">
        <ele>1657.5</ele>
        <time>2013-08-28T07:25:10Z</time>
      </trkpt>
      <trkpt lat="-21.15668" lon="55.56076">
        <ele>1656.1</ele>
        <time>2013-08-28T07:25:17Z</time>
      </trkpt>
      <trkpt lat="-21.15664" lon="55.56083">
        <ele>1652.5</ele>
        <time>2013-08-28T07:25:26Z</time>
      </trkpt>
      <trkpt lat="-21.15663" lon="55.56084">
        <ele>1652.1</ele>
        <time>2013-08-28T07:25:27Z</time>
      </trkpt>
      <trkpt lat="-21.15655" lon="55.56096">
        <ele>1650.5</ele>
        <time>2013-08-28T07:25:42Z</time>
      </trkpt>
      <trkpt lat="-21.15648" lon="55.561">
        <ele>1651.4</ele>
        <time>2013-08-28T07:25:49Z</time>
      </trkpt>
      <trkpt lat="-21.15641" lon="55.56106">
        <ele>1651.1</ele>
        <time>2013-08-28T07:25:56Z</time>
      </trkpt>
      <trkpt lat="-21.15635" lon="55.56112">
        <ele>1651.1</ele>
        <time>2013-08-28T07:26:04Z</time>
      </trkpt>
      <trkpt lat="-21.15628" lon="55.56116">
        <ele>1650.1</ele>
        <time>2013-08-28T07:26:11Z</time>
      </trkpt>
      <trkpt lat="-21.15622" lon="55.56123">
        <ele>1649.9</ele>
        <time>2013-08-28T07:26:17Z</time>
      </trkpt>
      <trkpt lat="-21.15617" lon="55.5613">
        <ele>1649.5</ele>
        <time>2013-08-28T07:26:23Z</time>
      </trkpt>
      <trkpt lat="-21.15611" lon="55.56135">
        <ele>1649.1</ele>
        <time>2013-08-28T07:26:29Z</time>
      </trkpt>
      <trkpt lat="-21.1561" lon="55.56136">
        <ele>1649.1</ele>
        <time>2013-08-28T07:26:30Z</time>
      </trkpt>
      <trkpt lat="-21.15599" lon="55.56148">
        <ele>1649.8</ele>
        <time>2013-08-28T07:26:44Z</time>
      </trkpt>
      <trkpt lat="-21.15592" lon="55.56153">
        <ele>1649.7</ele>
        <time>2013-08-28T07:27:19Z</time>
      </trkpt>
      <trkpt lat="-21.15594" lon="55.56163">
        <ele>1649.7</ele>
        <time>2013-08-28T07:28:28Z</time>
      </trkpt>
      <trkpt lat="-21.15594" lon="55.56164">
        <ele>1649.7</ele>
        <time>2013-08-28T07:28:29Z</time>
      </trkpt>
      <trkpt lat="-21.15599" lon="55.5618">
        <ele>1645.8</ele>
        <time>2013-08-28T07:28:42Z</time>
      </trkpt>
      <trkpt lat="-21.15601" lon="55.56189">
        <ele>1645.2</ele>
        <time>2013-08-28T07:28:48Z</time>
      </trkpt>
      <trkpt lat="-21.15604" lon="55.56197">
        <ele>1644.8</ele>
        <time>2013-08-28T07:28:54Z</time>
      </trkpt>
      <trkpt lat="-21.15607" lon="55.56205">
        <ele>1644.7</ele>
        <time>2013-08-28T07:29:00Z</time>
      </trkpt>
      <trkpt lat="-21.15611" lon="55.56213">
        <ele>1643.5</ele>
        <time>2013-08-28T07:29:07Z</time>
      </trkpt>
      <trkpt lat="-21.15614" lon="55.5622">
        <ele>1644</ele>
        <time>2013-08-28T07:29:12Z</time>
      </trkpt>
      <trkpt lat="-21.15617" lon="55.56228">
        <ele>1644.3</ele>
        <time>2013-08-28T07:29:18Z</time>
      </trkpt>
      <trkpt lat="-21.1562" lon="55.56236">
        <ele>1644.1</ele>
        <time>2013-08-28T07:29:23Z</time>
      </trkpt>
      <trkpt lat="-21.15622" lon="55.56245">
        <ele>1643.9</ele>
        <time>2013-08-28T07:29:29Z</time>
      </trkpt>
      <trkpt lat="-21.15623" lon="55.56247">
        <ele>1644</ele>
        <time>2013-08-28T07:29:30Z</time>
      </trkpt>
      <trkpt lat="-21.15631" lon="55.56259">
        <ele>1642.1</ele>
        <time>2013-08-28T07:29:39Z</time>
      </trkpt>
      <trkpt lat="-21.15634" lon="55.56266">
        <ele>1640.6</ele>
        <time>2013-08-28T07:29:44Z</time>
      </trkpt>
      <trkpt lat="-21.15638" lon="55.56273">
        <ele>1639.9</ele>
        <time>2013-08-28T07:29:49Z</time>
      </trkpt>
      <trkpt lat="-21.15644" lon="55.5628">
        <ele>1639.5</ele>
        <time>2013-08-28T07:29:55Z</time>
      </trkpt>
      <trkpt lat="-21.1565" lon="55.56287">
        <ele>1639.2</ele>
        <time>2013-08-28T07:30:01Z</time>
      </trkpt>
      <trkpt lat="-21.15655" lon="55.56294">
        <ele>1638.6</ele>
        <time>2013-08-28T07:30:06Z</time>
      </trkpt>
      <trkpt lat="-21.1566" lon="55.56302">
        <ele>1637.7</ele>
        <time>2013-08-28T07:30:14Z</time>
      </trkpt>
      <trkpt lat="-21.15663" lon="55.5631">
        <ele>1637</ele>
        <time>2013-08-28T07:30:18Z</time>
      </trkpt>
      <trkpt lat="-21.15668" lon="55.56317">
        <ele>1636.2</ele>
        <time>2013-08-28T07:30:23Z</time>
      </trkpt>
      <trkpt lat="-21.15672" lon="55.56325">
        <ele>1635.1</ele>
        <time>2013-08-28T07:30:29Z</time>
      </trkpt>
      <trkpt lat="-21.15676" lon="55.56333">
        <ele>1634.4</ele>
        <time>2013-08-28T07:30:35Z</time>
      </trkpt>
      <trkpt lat="-21.15677" lon="55.56335">
        <ele>1634.1</ele>
        <time>2013-08-28T07:30:36Z</time>
      </trkpt>
      <trkpt lat="-21.15685" lon="55.56348">
        <ele>1632.3</ele>
        <time>2013-08-28T07:30:45Z</time>
      </trkpt>
      <trkpt lat="-21.15689" lon="55.56354">
        <ele>1632.5</ele>
        <time>2013-08-28T07:30:50Z</time>
      </trkpt>
      <trkpt lat="-21.15695" lon="55.56361">
        <ele>1632.9</ele>
        <time>2013-08-28T07:30:56Z</time>
      </trkpt>
      <trkpt lat="-21.15701" lon="55.56368">
        <ele>1632.7</ele>
        <time>2013-08-28T07:31:01Z</time>
      </trkpt>
      <trkpt lat="-21.15707" lon="55.56374">
        <ele>1632.5</ele>
        <time>2013-08-28T07:31:06Z</time>
      </trkpt>
      <trkpt lat="-21.15712" lon="55.5638">
        <ele>1631.9</ele>
        <time>2013-08-28T07:31:11Z</time>
      </trkpt>
      <trkpt lat="-21.15717" lon="55.56387">
        <ele>1631.5</ele>
        <time>2013-08-28T07:31:16Z</time>
      </trkpt>
      <trkpt lat="-21.15723" lon="55.56393">
        <ele>1631.3</ele>
        <time>2013-08-28T07:31:21Z</time>
      </trkpt>
      <trkpt lat="-21.15729" lon="55.56398">
        <ele>1631</ele>
        <time>2013-08-28T07:31:26Z</time>
      </trkpt>
      <trkpt lat="-21.15735" lon="55.56404">
        <ele>1631.5</ele>
        <time>2013-08-28T07:31:32Z</time>
      </trkpt>
      <trkpt lat="-21.15738" lon="55.56412">
        <ele>1631</ele>
        <time>2013-08-28T07:31:39Z</time>
      </trkpt>
      <trkpt lat="-21.15739" lon="55.56413">
        <ele>1630.6</ele>
        <time>2013-08-28T07:31:40Z</time>
      </trkpt>
      <trkpt lat="-21.15742" lon="55.56429">
        <ele>1630.4</ele>
        <time>2013-08-28T07:31:52Z</time>
      </trkpt>
      <trkpt lat="-21.15743" lon="55.56437">
        <ele>1630.6</ele>
        <time>2013-08-28T07:31:57Z</time>
      </trkpt>
      <trkpt lat="-21.15745" lon="55.56445">
        <ele>1629.6</ele>
        <time>2013-08-28T07:32:02Z</time>
      </trkpt>
      <trkpt lat="-21.15747" lon="55.56454">
        <ele>1629.5</ele>
        <time>2013-08-28T07:32:07Z</time>
      </trkpt>
      <trkpt lat="-21.1575" lon="55.56463">
        <ele>1629.2</ele>
        <time>2013-08-28T07:32:12Z</time>
      </trkpt>
      <trkpt lat="-21.15751" lon="55.56471">
        <ele>1629.5</ele>
        <time>2013-08-28T07:32:18Z</time>
      </trkpt>
      <trkpt lat="-21.15754" lon="55.56479">
        <ele>1629.1</ele>
        <time>2013-08-28T07:32:23Z</time>
      </trkpt>
      <trkpt lat="-21.15758" lon="55.56486">
        <ele>1628.7</ele>
        <time>2013-08-28T07:32:28Z</time>
      </trkpt>
      <trkpt lat="-21.15763" lon="55.56493">
        <ele>1628.1</ele>
        <time>2013-08-28T07:32:33Z</time>
      </trkpt>
      <trkpt lat="-21.15767" lon="55.56501">
        <ele>1627.6</ele>
        <time>2013-08-28T07:32:38Z</time>
      </trkpt>
      <trkpt lat="-21.15774" lon="55.56505">
        <ele>1628.6</ele>
        <time>2013-08-28T07:32:47Z</time>
      </trkpt>
      <trkpt lat="-21.15775" lon="55.56506">
        <ele>1628.7</ele>
        <time>2013-08-28T07:32:48Z</time>
      </trkpt>
      <trkpt lat="-21.15785" lon="55.56517">
        <ele>1627.6</ele>
        <time>2013-08-28T07:32:57Z</time>
      </trkpt>
      <trkpt lat="-21.15789" lon="55.56523">
        <ele>1627.7</ele>
        <time>2013-08-28T07:33:02Z</time>
      </trkpt>
      <trkpt lat="-21.15796" lon="55.56527">
        <ele>1626.3</ele>
        <time>2013-08-28T07:33:07Z</time>
      </trkpt>
      <trkpt lat="-21.15803" lon="55.56533">
        <ele>1625.7</ele>
        <time>2013-08-28T07:33:13Z</time>
      </trkpt>
      <trkpt lat="-21.15812" lon="55.56535">
        <ele>1626.6</ele>
        <time>2013-08-28T07:33:19Z</time>
      </trkpt>
      <trkpt lat="-21.15819" lon="55.56538">
        <ele>1626.6</ele>
        <time>2013-08-28T07:33:27Z</time>
      </trkpt>
      <trkpt lat="-21.15824" lon="55.56545">
        <ele>1626.3</ele>
        <time>2013-08-28T07:33:32Z</time>
      </trkpt>
      <trkpt lat="-21.15831" lon="55.5655">
        <ele>1625.8</ele>
        <time>2013-08-28T07:33:37Z</time>
      </trkpt>
      <trkpt lat="-21.15839" lon="55.56552">
        <ele>1625.8</ele>
        <time>2013-08-28T07:33:42Z</time>
      </trkpt>
      <trkpt lat="-21.15848" lon="55.56556">
        <ele>1626.2</ele>
        <time>2013-08-28T07:33:48Z</time>
      </trkpt>
      <trkpt lat="-21.15849" lon="55.56556">
        <ele>1626</ele>
        <time>2013-08-28T07:33:49Z</time>
      </trkpt>
      <trkpt lat="-21.15863" lon="55.56561">
        <ele>1626.4</ele>
        <time>2013-08-28T07:33:59Z</time>
      </trkpt>
      <trkpt lat="-21.15869" lon="55.56566">
        <ele>1625.8</ele>
        <time>2013-08-28T07:34:04Z</time>
      </trkpt>
      <trkpt lat="-21.15872" lon="55.56575">
        <ele>1626.7</ele>
        <time>2013-08-28T07:34:10Z</time>
      </trkpt>
      <trkpt lat="-21.15873" lon="55.56583">
        <ele>1627.1</ele>
        <time>2013-08-28T07:34:15Z</time>
      </trkpt>
      <trkpt lat="-21.15876" lon="55.56592">
        <ele>1627.1</ele>
        <time>2013-08-28T07:34:21Z</time>
      </trkpt>
      <trkpt lat="-21.15881" lon="55.56599">
        <ele>1627.1</ele>
        <time>2013-08-28T07:34:26Z</time>
      </trkpt>
      <trkpt lat="-21.15884" lon="55.56607">
        <ele>1626.9</ele>
        <time>2013-08-28T07:34:33Z</time>
      </trkpt>
      <trkpt lat="-21.1589" lon="55.56613">
        <ele>1626.8</ele>
        <time>2013-08-28T07:34:44Z</time>
      </trkpt>
      <trkpt lat="-21.15898" lon="55.56615">
        <ele>1625.7</ele>
        <time>2013-08-28T07:34:50Z</time>
      </trkpt>
      <trkpt lat="-21.15899" lon="55.56616">
        <ele>1625.7</ele>
        <time>2013-08-28T07:34:51Z</time>
      </trkpt>
      <trkpt lat="-21.15914" lon="55.5662">
        <ele>1625.1</ele>
        <time>2013-08-28T07:35:04Z</time>
      </trkpt>
      <trkpt lat="-21.15921" lon="55.56625">
        <ele>1625.5</ele>
        <time>2013-08-28T07:35:11Z</time>
      </trkpt>
      <trkpt lat="-21.15928" lon="55.56632">
        <ele>1624.4</ele>
        <time>2013-08-28T07:35:22Z</time>
      </trkpt>
      <trkpt lat="-21.15931" lon="55.5664">
        <ele>1624.7</ele>
        <time>2013-08-28T07:35:29Z</time>
      </trkpt>
      <trkpt lat="-21.15939" lon="55.56645">
        <ele>1624.6</ele>
        <time>2013-08-28T07:35:37Z</time>
      </trkpt>
      <trkpt lat="-21.15947" lon="55.56649">
        <ele>1624.6</ele>
        <time>2013-08-28T07:35:46Z</time>
      </trkpt>
      <trkpt lat="-21.15949" lon="55.56657">
        <ele>1624.7</ele>
        <time>2013-08-28T07:35:53Z</time>
      </trkpt>
      <trkpt lat="-21.1595" lon="55.56659">
        <ele>1624.6</ele>
        <time>2013-08-28T07:35:54Z</time>
      </trkpt>
      <trkpt lat="-21.15957" lon="55.56673">
        <ele>1622.7</ele>
        <time>2013-08-28T07:36:03Z</time>
      </trkpt>
      <trkpt lat="-21.15962" lon="55.5668">
        <ele>1621.7</ele>
        <time>2013-08-28T07:36:08Z</time>
      </trkpt>
      <trkpt lat="-21.15966" lon="55.56687">
        <ele>1620.4</ele>
        <time>2013-08-28T07:36:21Z</time>
      </trkpt>
      <trkpt lat="-21.15972" lon="55.56694">
        <ele>1619</ele>
        <time>2013-08-28T07:36:27Z</time>
      </trkpt>
      <trkpt lat="-21.15975" lon="55.56701">
        <ele>1619.8</ele>
        <time>2013-08-28T07:36:32Z</time>
      </trkpt>
      <trkpt lat="-21.15978" lon="55.56709">
        <ele>1617.7</ele>
        <time>2013-08-28T07:36:36Z</time>
      </trkpt>
      <trkpt lat="-21.15982" lon="55.56715">
        <ele>1616.6</ele>
        <time>2013-08-28T07:36:41Z</time>
      </trkpt>
      <trkpt lat="-21.15988" lon="55.56722">
        <ele>1617.4</ele>
        <time>2013-08-28T07:36:47Z</time>
      </trkpt>
      <trkpt lat="-21.15992" lon="55.56729">
        <ele>1616.8</ele>
        <time>2013-08-28T07:36:52Z</time>
      </trkpt>
      <trkpt lat="-21.15998" lon="55.56736">
        <ele>1616.8</ele>
        <time>2013-08-28T07:36:59Z</time>
      </trkpt>
      <trkpt lat="-21.15999" lon="55.56736">
        <ele>1616.9</ele>
        <time>2013-08-28T07:37:00Z</time>
      </trkpt>
      <trkpt lat="-21.16006" lon="55.56751">
        <ele>1616.1</ele>
        <time>2013-08-28T07:37:20Z</time>
      </trkpt>
      <trkpt lat="-21.16011" lon="55.56759">
        <ele>1616.2</ele>
        <time>2013-08-28T07:37:28Z</time>
      </trkpt>
      <trkpt lat="-21.16015" lon="55.56766">
        <ele>1615.4</ele>
        <time>2013-08-28T07:37:36Z</time>
      </trkpt>
      <trkpt lat="-21.16018" lon="55.56775">
        <ele>1615.1</ele>
        <time>2013-08-28T07:37:42Z</time>
      </trkpt>
      <trkpt lat="-21.16018" lon="55.56784">
        <ele>1615.4</ele>
        <time>2013-08-28T07:37:46Z</time>
      </trkpt>
      <trkpt lat="-21.16019" lon="55.56792">
        <ele>1614.3</ele>
        <time>2013-08-28T07:37:50Z</time>
      </trkpt>
      <trkpt lat="-21.1602" lon="55.56801">
        <ele>1612.6</ele>
        <time>2013-08-28T07:37:55Z</time>
      </trkpt>
      <trkpt lat="-21.16022" lon="55.56809">
        <ele>1612.4</ele>
        <time>2013-08-28T07:37:59Z</time>
      </trkpt>
      <trkpt lat="-21.16025" lon="55.56817">
        <ele>1611.1</ele>
        <time>2013-08-28T07:38:04Z</time>
      </trkpt>
      <trkpt lat="-21.16025" lon="55.5682">
        <ele>1611</ele>
        <time>2013-08-28T07:38:05Z</time>
      </trkpt>
      <trkpt lat="-21.16032" lon="55.56834">
        <ele>1611.4</ele>
        <time>2013-08-28T07:38:35Z</time>
      </trkpt>
      <trkpt lat="-21.16038" lon="55.5684">
        <ele>1611.4</ele>
        <time>2013-08-28T07:38:46Z</time>
      </trkpt>
      <trkpt lat="-21.16044" lon="55.56847">
        <ele>1610.9</ele>
        <time>2013-08-28T07:38:54Z</time>
      </trkpt>
      <trkpt lat="-21.16049" lon="55.56854">
        <ele>1610.2</ele>
        <time>2013-08-28T07:39:01Z</time>
      </trkpt>
      <trkpt lat="-21.16053" lon="55.56862">
        <ele>1609.6</ele>
        <time>2013-08-28T07:39:07Z</time>
      </trkpt>
      <trkpt lat="-21.16054" lon="55.56863">
        <ele>1609.5</ele>
        <time>2013-08-28T07:39:08Z</time>
      </trkpt>
      <trkpt lat="-21.16057" lon="55.56879">
        <ele>1609.3</ele>
        <time>2013-08-28T07:39:19Z</time>
      </trkpt>
      <trkpt lat="-21.16057" lon="55.56887">
        <ele>1609.8</ele>
        <time>2013-08-28T07:39:24Z</time>
      </trkpt>
      <trkpt lat="-21.16057" lon="55.56897">
        <ele>1610.4</ele>
        <time>2013-08-28T07:39:30Z</time>
      </trkpt>
      <trkpt lat="-21.16057" lon="55.56905">
        <ele>1610.8</ele>
        <time>2013-08-28T07:39:35Z</time>
      </trkpt>
      <trkpt lat="-21.16057" lon="55.56913">
        <ele>1610.1</ele>
        <time>2013-08-28T07:39:40Z</time>
      </trkpt>
      <trkpt lat="-21.16059" lon="55.56922">
        <ele>1609.2</ele>
        <time>2013-08-28T07:39:46Z</time>
      </trkpt>
      <trkpt lat="-21.1606" lon="55.56932">
        <ele>1608.4</ele>
        <time>2013-08-28T07:39:52Z</time>
      </trkpt>
      <trkpt lat="-21.16061" lon="55.56941">
        <ele>1608.5</ele>
        <time>2013-08-28T07:39:58Z</time>
      </trkpt>
      <trkpt lat="-21.16063" lon="55.56949">
        <ele>1608.9</ele>
        <time>2013-08-28T07:40:04Z</time>
      </trkpt>
      <trkpt lat="-21.16063" lon="55.56958">
        <ele>1608.9</ele>
        <time>2013-08-28T07:40:10Z</time>
      </trkpt>
      <trkpt lat="-21.16063" lon="55.56959">
        <ele>1608.5</ele>
        <time>2013-08-28T07:40:11Z</time>
      </trkpt>
      <trkpt lat="-21.16064" lon="55.56974">
        <ele>1607</ele>
        <time>2013-08-28T07:40:21Z</time>
      </trkpt>
      <trkpt lat="-21.16065" lon="55.56982">
        <ele>1607.8</ele>
        <time>2013-08-28T07:40:26Z</time>
      </trkpt>
      <trkpt lat="-21.16066" lon="55.56991">
        <ele>1608</ele>
        <time>2013-08-28T07:40:31Z</time>
      </trkpt>
      <trkpt lat="-21.16068" lon="55.56999">
        <ele>1607.7</ele>
        <time>2013-08-28T07:40:36Z</time>
      </trkpt>
      <trkpt lat="-21.16071" lon="55.57007">
        <ele>1607.2</ele>
        <time>2013-08-28T07:40:41Z</time>
      </trkpt>
      <trkpt lat="-21.16075" lon="55.57015">
        <ele>1606.6</ele>
        <time>2013-08-28T07:40:47Z</time>
      </trkpt>
      <trkpt lat="-21.16078" lon="55.57023">
        <ele>1606.1</ele>
        <time>2013-08-28T07:40:52Z</time>
      </trkpt>
      <trkpt lat="-21.16083" lon="55.57031">
        <ele>1606.1</ele>
        <time>2013-08-28T07:40:58Z</time>
      </trkpt>
      <trkpt lat="-21.16087" lon="55.57038">
        <ele>1606</ele>
        <time>2013-08-28T07:41:03Z</time>
      </trkpt>
      <trkpt lat="-21.16091" lon="55.57046">
        <ele>1605.5</ele>
        <time>2013-08-28T07:41:09Z</time>
      </trkpt>
      <trkpt lat="-21.16095" lon="55.57053">
        <ele>1605.7</ele>
        <time>2013-08-28T07:41:14Z</time>
      </trkpt>
      <trkpt lat="-21.16096" lon="55.57055">
        <ele>1605.3</ele>
        <time>2013-08-28T07:41:15Z</time>
      </trkpt>
      <trkpt lat="-21.16101" lon="55.5707">
        <ele>1604.6</ele>
        <time>2013-08-28T07:41:25Z</time>
      </trkpt>
      <trkpt lat="-21.16101" lon="55.5708">
        <ele>1604.2</ele>
        <time>2013-08-28T07:41:32Z</time>
      </trkpt>
      <trkpt lat="-21.16102" lon="55.57089">
        <ele>1605.2</ele>
        <time>2013-08-28T07:41:39Z</time>
      </trkpt>
      <trkpt lat="-21.16109" lon="55.57093">
        <ele>1605</ele>
        <time>2013-08-28T07:41:45Z</time>
      </trkpt>
      <trkpt lat="-21.16116" lon="55.57096">
        <ele>1605.1</ele>
        <time>2013-08-28T07:41:50Z</time>
      </trkpt>
      <trkpt lat="-21.16123" lon="55.57099">
        <ele>1604.5</ele>
        <time>2013-08-28T07:41:56Z</time>
      </trkpt>
      <trkpt lat="-21.1613" lon="55.57103">
        <ele>1605.3</ele>
        <time>2013-08-28T07:42:01Z</time>
      </trkpt>
      <trkpt lat="-21.16137" lon="55.57107">
        <ele>1605.2</ele>
        <time>2013-08-28T07:42:06Z</time>
      </trkpt>
      <trkpt lat="-21.16145" lon="55.5711">
        <ele>1605.3</ele>
        <time>2013-08-28T07:42:12Z</time>
      </trkpt>
      <trkpt lat="-21.16151" lon="55.57114">
        <ele>1605.1</ele>
        <time>2013-08-28T07:42:17Z</time>
      </trkpt>
      <trkpt lat="-21.16153" lon="55.57115">
        <ele>1604.9</ele>
        <time>2013-08-28T07:42:18Z</time>
      </trkpt>
      <trkpt lat="-21.16164" lon="55.57126">
        <ele>1605.5</ele>
        <time>2013-08-28T07:42:31Z</time>
      </trkpt>
      <trkpt lat="-21.1617" lon="55.5713">
        <ele>1606.5</ele>
        <time>2013-08-28T07:42:37Z</time>
      </trkpt>
      <trkpt lat="-21.16177" lon="55.57135">
        <ele>1606.6</ele>
        <time>2013-08-28T07:42:43Z</time>
      </trkpt>
      <trkpt lat="-21.16183" lon="55.57142">
        <ele>1606.5</ele>
        <time>2013-08-28T07:42:49Z</time>
      </trkpt>
      <trkpt lat="-21.16187" lon="55.5715">
        <ele>1605.9</ele>
        <time>2013-08-28T07:43:02Z</time>
      </trkpt>
      <trkpt lat="-21.16194" lon="55.57155">
        <ele>1607.2</ele>
        <time>2013-08-28T07:43:11Z</time>
      </trkpt>
      <trkpt lat="-21.16199" lon="55.57161">
        <ele>1607.5</ele>
        <time>2013-08-28T07:43:17Z</time>
      </trkpt>
      <trkpt lat="-21.16206" lon="55.57166">
        <ele>1607</ele>
        <time>2013-08-28T07:43:25Z</time>
      </trkpt>
      <trkpt lat="-21.16207" lon="55.57167">
        <ele>1606.8</ele>
        <time>2013-08-28T07:43:26Z</time>
      </trkpt>
      <trkpt lat="-21.16219" lon="55.57178">
        <ele>1605.7</ele>
        <time>2013-08-28T07:43:38Z</time>
      </trkpt>
      <trkpt lat="-21.16225" lon="55.57183">
        <ele>1605.8</ele>
        <time>2013-08-28T07:43:44Z</time>
      </trkpt>
      <trkpt lat="-21.16232" lon="55.57189">
        <ele>1605.8</ele>
        <time>2013-08-28T07:43:50Z</time>
      </trkpt>
      <trkpt lat="-21.16238" lon="55.57196">
        <ele>1606</ele>
        <time>2013-08-28T07:43:56Z</time>
      </trkpt>
      <trkpt lat="-21.16243" lon="55.57203">
        <ele>1606</ele>
        <time>2013-08-28T07:44:06Z</time>
      </trkpt>
      <trkpt lat="-21.16248" lon="55.57209">
        <ele>1605.6</ele>
        <time>2013-08-28T07:44:13Z</time>
      </trkpt>
      <trkpt lat="-21.16253" lon="55.57217">
        <ele>1605.9</ele>
        <time>2013-08-28T07:44:23Z</time>
      </trkpt>
      <trkpt lat="-21.16257" lon="55.57223">
        <ele>1605.6</ele>
        <time>2013-08-28T07:44:31Z</time>
      </trkpt>
      <trkpt lat="-21.16257" lon="55.57226">
        <ele>1605.4</ele>
        <time>2013-08-28T07:44:32Z</time>
      </trkpt>
      <trkpt lat="-21.16267" lon="55.57237">
        <ele>1603.8</ele>
        <time>2013-08-28T07:44:45Z</time>
      </trkpt>
      <trkpt lat="-21.16273" lon="55.57244">
        <ele>1604.8</ele>
        <time>2013-08-28T07:45:00Z</time>
      </trkpt>
      <trkpt lat="-21.1628" lon="55.5725">
        <ele>1604.5</ele>
        <time>2013-08-28T07:45:11Z</time>
      </trkpt>
      <trkpt lat="-21.16286" lon="55.57256">
        <ele>1604.1</ele>
        <time>2013-08-28T07:45:19Z</time>
      </trkpt>
      <trkpt lat="-21.16293" lon="55.57262">
        <ele>1603.9</ele>
        <time>2013-08-28T07:45:26Z</time>
      </trkpt>
      <trkpt lat="-21.16299" lon="55.57268">
        <ele>1603.6</ele>
        <time>2013-08-28T07:45:33Z</time>
      </trkpt>
      <trkpt lat="-21.163" lon="55.57269">
        <ele>1603.7</ele>
        <time>2013-08-28T07:45:34Z</time>
      </trkpt>
      <trkpt lat="-21.16312" lon="55.57279">
        <ele>1603.7</ele>
        <time>2013-08-28T07:45:45Z</time>
      </trkpt>
      <trkpt lat="-21.16318" lon="55.57285">
        <ele>1603.3</ele>
        <time>2013-08-28T07:45:51Z</time>
      </trkpt>
      <trkpt lat="-21.16324" lon="55.57291">
        <ele>1603.1</ele>
        <time>2013-08-28T07:45:57Z</time>
      </trkpt>
      <trkpt lat="-21.16331" lon="55.57296">
        <ele>1602.6</ele>
        <time>2013-08-28T07:46:03Z</time>
      </trkpt>
      <trkpt lat="-21.16337" lon="55.573">
        <ele>1602.4</ele>
        <time>2013-08-28T07:46:08Z</time>
      </trkpt>
      <trkpt lat="-21.16342" lon="55.57307">
        <ele>1602.3</ele>
        <time>2013-08-28T07:46:13Z</time>
      </trkpt>
      <trkpt lat="-21.16348" lon="55.57314">
        <ele>1601.4</ele>
        <time>2013-08-28T07:46:21Z</time>
      </trkpt>
      <trkpt lat="-21.16354" lon="55.57321">
        <ele>1602.1</ele>
        <time>2013-08-28T07:46:27Z</time>
      </trkpt>
      <trkpt lat="-21.16359" lon="55.57328">
        <ele>1601.5</ele>
        <time>2013-08-28T07:46:32Z</time>
      </trkpt>
      <trkpt lat="-21.16364" lon="55.57334">
        <ele>1601.2</ele>
        <time>2013-08-28T07:46:37Z</time>
      </trkpt>
      <trkpt lat="-21.16365" lon="55.57336">
        <ele>1601.3</ele>
        <time>2013-08-28T07:46:38Z</time>
      </trkpt>
      <trkpt lat="-21.16375" lon="55.57348">
        <ele>1601.2</ele>
        <time>2013-08-28T07:46:49Z</time>
      </trkpt>
      <trkpt lat="-21.1638" lon="55.57355">
        <ele>1602.3</ele>
        <time>2013-08-28T07:46:54Z</time>
      </trkpt>
      <trkpt lat="-21.16385" lon="55.57361">
        <ele>1602.1</ele>
        <time>2013-08-28T07:47:00Z</time>
      </trkpt>
      <trkpt lat="-21.16391" lon="55.57367">
        <ele>1601.5</ele>
        <time>2013-08-28T07:47:07Z</time>
      </trkpt>
      <trkpt lat="-21.16397" lon="55.57373">
        <ele>1601.4</ele>
        <time>2013-08-28T07:47:13Z</time>
      </trkpt>
      <trkpt lat="-21.16403" lon="55.5738">
        <ele>1601.5</ele>
        <time>2013-08-28T07:47:20Z</time>
      </trkpt>
      <trkpt lat="-21.16411" lon="55.57378">
        <ele>1602.2</ele>
        <time>2013-08-28T07:47:46Z</time>
      </trkpt>
      <trkpt lat="-21.16412" lon="55.57377">
        <ele>1601.9</ele>
        <time>2013-08-28T07:47:47Z</time>
      </trkpt>
      <trkpt lat="-21.16423" lon="55.57364">
        <ele>1603</ele>
        <time>2013-08-28T07:48:52Z</time>
      </trkpt>
      <trkpt lat="-21.16423" lon="55.57363">
        <ele>1603</ele>
        <time>2013-08-28T07:48:53Z</time>
      </trkpt>
      <trkpt lat="-21.16423" lon="55.57347">
        <ele>1603.8</ele>
        <time>2013-08-28T07:49:13Z</time>
      </trkpt>
      <trkpt lat="-21.16426" lon="55.57339">
        <ele>1602.9</ele>
        <time>2013-08-28T07:49:21Z</time>
      </trkpt>
      <trkpt lat="-21.16429" lon="55.57331">
        <ele>1603.2</ele>
        <time>2013-08-28T07:49:29Z</time>
      </trkpt>
      <trkpt lat="-21.1643" lon="55.57321">
        <ele>1602.8</ele>
        <time>2013-08-28T07:49:47Z</time>
      </trkpt>
      <trkpt lat="-21.16434" lon="55.57313">
        <ele>1604.3</ele>
        <time>2013-08-28T07:49:54Z</time>
      </trkpt>
      <trkpt lat="-21.16435" lon="55.57311">
        <ele>1604</ele>
        <time>2013-08-28T07:49:55Z</time>
      </trkpt>
      <trkpt lat="-21.1644" lon="55.57297">
        <ele>1604.3</ele>
        <time>2013-08-28T07:50:05Z</time>
      </trkpt>
      <trkpt lat="-21.16444" lon="55.57288">
        <ele>1603</ele>
        <time>2013-08-28T07:50:20Z</time>
      </trkpt>
      <trkpt lat="-21.16446" lon="55.57281">
        <ele>1604.2</ele>
        <time>2013-08-28T07:50:24Z</time>
      </trkpt>
      <trkpt lat="-21.16449" lon="55.57273">
        <ele>1604.8</ele>
        <time>2013-08-28T07:50:28Z</time>
      </trkpt>
      <trkpt lat="-21.16451" lon="55.57264">
        <ele>1603.9</ele>
        <time>2013-08-28T07:50:33Z</time>
      </trkpt>
      <trkpt lat="-21.16454" lon="55.57256">
        <ele>1603.7</ele>
        <time>2013-08-28T07:50:38Z</time>
      </trkpt>
      <trkpt lat="-21.16455" lon="55.57248">
        <ele>1605.2</ele>
        <time>2013-08-28T07:50:42Z</time>
      </trkpt>
      <trkpt lat="-21.16455" lon="55.57241">
        <ele>1605.3</ele>
        <time>2013-08-28T07:50:45Z</time>
      </trkpt>
      <trkpt lat="-21.16455" lon="55.57232">
        <ele>1605.3</ele>
        <time>2013-08-28T07:50:48Z</time>
      </trkpt>
      <trkpt lat="-21.16455" lon="55.57223">
        <ele>1605.1</ele>
        <time>2013-08-28T07:50:51Z</time>
      </trkpt>
      <trkpt lat="-21.16455" lon="55.57214">
        <ele>1605.5</ele>
        <time>2013-08-28T07:50:54Z</time>
      </trkpt>
      <trkpt lat="-21.16453" lon="55.57206">
        <ele>1605.5</ele>
        <time>2013-08-28T07:50:57Z</time>
      </trkpt>
      <trkpt lat="-21.16453" lon="55.57203">
        <ele>1605.6</ele>
        <time>2013-08-28T07:50:58Z</time>
      </trkpt>
      <trkpt lat="-21.1645" lon="55.57189">
        <ele>1605.9</ele>
        <time>2013-08-28T07:51:03Z</time>
      </trkpt>
      <trkpt lat="-21.16449" lon="55.57181">
        <ele>1605.6</ele>
        <time>2013-08-28T07:51:06Z</time>
      </trkpt>
      <trkpt lat="-21.16447" lon="55.57173">
        <ele>1606.8</ele>
        <time>2013-08-28T07:51:09Z</time>
      </trkpt>
      <trkpt lat="-21.16446" lon="55.57165">
        <ele>1607</ele>
        <time>2013-08-28T07:51:12Z</time>
      </trkpt>
      <trkpt lat="-21.16445" lon="55.57157">
        <ele>1606.9</ele>
        <time>2013-08-28T07:51:15Z</time>
      </trkpt>
      <trkpt lat="-21.16445" lon="55.57149">
        <ele>1607.8</ele>
        <time>2013-08-28T07:51:18Z</time>
      </trkpt>
      <trkpt lat="-21.16444" lon="55.5714">
        <ele>1608</ele>
        <time>2013-08-28T07:51:21Z</time>
      </trkpt>
      <trkpt lat="-21.16444" lon="55.57133">
        <ele>1607.9</ele>
        <time>2013-08-28T07:51:24Z</time>
      </trkpt>
      <trkpt lat="-21.16444" lon="55.57123">
        <ele>1607.9</ele>
        <time>2013-08-28T07:51:28Z</time>
      </trkpt>
      <trkpt lat="-21.16445" lon="55.57114">
        <ele>1608.4</ele>
        <time>2013-08-28T07:51:32Z</time>
      </trkpt>
      <trkpt lat="-21.16447" lon="55.57107">
        <ele>1608.3</ele>
        <time>2013-08-28T07:51:35Z</time>
      </trkpt>
      <trkpt lat="-21.16449" lon="55.57097">
        <ele>1608.2</ele>
        <time>2013-08-28T07:51:39Z</time>
      </trkpt>
      <trkpt lat="-21.1645" lon="55.57089">
        <ele>1608.8</ele>
        <time>2013-08-28T07:51:43Z</time>
      </trkpt>
      <trkpt lat="-21.16451" lon="55.57081">
        <ele>1608</ele>
        <time>2013-08-28T07:51:46Z</time>
      </trkpt>
      <trkpt lat="-21.16453" lon="55.57074">
        <ele>1608</ele>
        <time>2013-08-28T07:51:49Z</time>
      </trkpt>
      <trkpt lat="-21.16456" lon="55.57066">
        <ele>1607.9</ele>
        <time>2013-08-28T07:51:52Z</time>
      </trkpt>
      <trkpt lat="-21.16458" lon="55.57059">
        <ele>1608.2</ele>
        <time>2013-08-28T07:51:55Z</time>
      </trkpt>
      <trkpt lat="-21.16459" lon="55.57051">
        <ele>1608.1</ele>
        <time>2013-08-28T07:51:58Z</time>
      </trkpt>
      <trkpt lat="-21.1646" lon="55.57049">
        <ele>1608.5</ele>
        <time>2013-08-28T07:51:59Z</time>
      </trkpt>
      <trkpt lat="-21.16462" lon="55.57035">
        <ele>1609.1</ele>
        <time>2013-08-28T07:52:05Z</time>
      </trkpt>
      <trkpt lat="-21.16463" lon="55.57026">
        <ele>1608.8</ele>
        <time>2013-08-28T07:52:09Z</time>
      </trkpt>
      <trkpt lat="-21.16465" lon="55.57017">
        <ele>1608.7</ele>
        <time>2013-08-28T07:52:14Z</time>
      </trkpt>
      <trkpt lat="-21.16468" lon="55.57008">
        <ele>1609.3</ele>
        <time>2013-08-28T07:52:18Z</time>
      </trkpt>
      <trkpt lat="-21.1647" lon="55.57">
        <ele>1609.3</ele>
        <time>2013-08-28T07:52:22Z</time>
      </trkpt>
      <trkpt lat="-21.16471" lon="55.5699">
        <ele>1609.8</ele>
        <time>2013-08-28T07:52:26Z</time>
      </trkpt>
      <trkpt lat="-21.16472" lon="55.56983">
        <ele>1609.5</ele>
        <time>2013-08-28T07:52:29Z</time>
      </trkpt>
      <trkpt lat="-21.16474" lon="55.56976">
        <ele>1609.8</ele>
        <time>2013-08-28T07:52:32Z</time>
      </trkpt>
      <trkpt lat="-21.16474" lon="55.56966">
        <ele>1609.8</ele>
        <time>2013-08-28T07:52:36Z</time>
      </trkpt>
      <trkpt lat="-21.16475" lon="55.56957">
        <ele>1610</ele>
        <time>2013-08-28T07:52:41Z</time>
      </trkpt>
      <trkpt lat="-21.16475" lon="55.56948">
        <ele>1610.6</ele>
        <time>2013-08-28T07:52:47Z</time>
      </trkpt>
      <trkpt lat="-21.16474" lon="55.5694">
        <ele>1611.6</ele>
        <time>2013-08-28T07:52:52Z</time>
      </trkpt>
      <trkpt lat="-21.16473" lon="55.56931">
        <ele>1611.7</ele>
        <time>2013-08-28T07:52:58Z</time>
      </trkpt>
      <trkpt lat="-21.16473" lon="55.56922">
        <ele>1612.4</ele>
        <time>2013-08-28T07:53:04Z</time>
      </trkpt>
      <trkpt lat="-21.16474" lon="55.5692">
        <ele>1612.4</ele>
        <time>2013-08-28T07:53:05Z</time>
      </trkpt>
      <trkpt lat="-21.16483" lon="55.56908">
        <ele>1615.3</ele>
        <time>2013-08-28T07:53:17Z</time>
      </trkpt>
      <trkpt lat="-21.16489" lon="55.56903">
        <ele>1616.1</ele>
        <time>2013-08-28T07:53:22Z</time>
      </trkpt>
      <trkpt lat="-21.16496" lon="55.56898">
        <ele>1615.6</ele>
        <time>2013-08-28T07:53:26Z</time>
      </trkpt>
      <trkpt lat="-21.16503" lon="55.56893">
        <ele>1616.1</ele>
        <time>2013-08-28T07:53:30Z</time>
      </trkpt>
      <trkpt lat="-21.16511" lon="55.56888">
        <ele>1615.4</ele>
        <time>2013-08-28T07:53:34Z</time>
      </trkpt>
      <trkpt lat="-21.16517" lon="55.56882">
        <ele>1616.3</ele>
        <time>2013-08-28T07:53:38Z</time>
      </trkpt>
      <trkpt lat="-21.16524" lon="55.56875">
        <ele>1616.2</ele>
        <time>2013-08-28T07:53:42Z</time>
      </trkpt>
      <trkpt lat="-21.16528" lon="55.5687">
        <ele>1616.3</ele>
        <time>2013-08-28T07:53:45Z</time>
      </trkpt>
      <trkpt lat="-21.16534" lon="55.56864">
        <ele>1617.4</ele>
        <time>2013-08-28T07:53:49Z</time>
      </trkpt>
      <trkpt lat="-21.16539" lon="55.56858">
        <ele>1617.6</ele>
        <time>2013-08-28T07:53:53Z</time>
      </trkpt>
      <trkpt lat="-21.16545" lon="55.56853">
        <ele>1617.9</ele>
        <time>2013-08-28T07:53:57Z</time>
      </trkpt>
      <trkpt lat="-21.16551" lon="55.56847">
        <ele>1618.3</ele>
        <time>2013-08-28T07:54:00Z</time>
      </trkpt>
      <trkpt lat="-21.16556" lon="55.56841">
        <ele>1618.1</ele>
        <time>2013-08-28T07:54:03Z</time>
      </trkpt>
      <trkpt lat="-21.1656" lon="55.56836">
        <ele>1617.6</ele>
        <time>2013-08-28T07:54:06Z</time>
      </trkpt>
      <trkpt lat="-21.16562" lon="55.56834">
        <ele>1617.7</ele>
        <time>2013-08-28T07:54:07Z</time>
      </trkpt>
      <trkpt lat="-21.1657" lon="55.56823">
        <ele>1616.8</ele>
        <time>2013-08-28T07:54:13Z</time>
      </trkpt>
      <trkpt lat="-21.16575" lon="55.56817">
        <ele>1616.7</ele>
        <time>2013-08-28T07:54:16Z</time>
      </trkpt>
      <trkpt lat="-21.16579" lon="55.56809">
        <ele>1617.2</ele>
        <time>2013-08-28T07:54:20Z</time>
      </trkpt>
      <trkpt lat="-21.16582" lon="55.568">
        <ele>1617.8</ele>
        <time>2013-08-28T07:54:24Z</time>
      </trkpt>
      <trkpt lat="-21.16583" lon="55.56791">
        <ele>1619.4</ele>
        <time>2013-08-28T07:54:28Z</time>
      </trkpt>
      <trkpt lat="-21.16583" lon="55.56783">
        <ele>1619.8</ele>
        <time>2013-08-28T07:54:31Z</time>
      </trkpt>
      <trkpt lat="-21.16584" lon="55.56776">
        <ele>1620.8</ele>
        <time>2013-08-28T07:54:34Z</time>
      </trkpt>
      <trkpt lat="-21.16586" lon="55.56767">
        <ele>1620.8</ele>
        <time>2013-08-28T07:54:38Z</time>
      </trkpt>
      <trkpt lat="-21.16592" lon="55.5676">
        <ele>1620.8</ele>
        <time>2013-08-28T07:54:42Z</time>
      </trkpt>
      <trkpt lat="-21.16597" lon="55.56753">
        <ele>1620.9</ele>
        <time>2013-08-28T07:54:46Z</time>
      </trkpt>
      <trkpt lat="-21.16602" lon="55.56746">
        <ele>1621.2</ele>
        <time>2013-08-28T07:54:50Z</time>
      </trkpt>
      <trkpt lat="-21.16607" lon="55.5674">
        <ele>1621</ele>
        <time>2013-08-28T07:54:54Z</time>
      </trkpt>
      <trkpt lat="-21.16613" lon="55.56733">
        <ele>1621.2</ele>
        <time>2013-08-28T07:54:58Z</time>
      </trkpt>
      <trkpt lat="-21.16616" lon="55.56725">
        <ele>1621.6</ele>
        <time>2013-08-28T07:55:04Z</time>
      </trkpt>
      <trkpt lat="-21.1662" lon="55.56717">
        <ele>1622.8</ele>
        <time>2013-08-28T07:55:11Z</time>
      </trkpt>
      <trkpt lat="-21.16621" lon="55.56716">
        <ele>1622.6</ele>
        <time>2013-08-28T07:55:12Z</time>
      </trkpt>
      <trkpt lat="-21.16628" lon="55.567">
        <ele>1624.9</ele>
        <time>2013-08-28T07:55:25Z</time>
      </trkpt>
      <trkpt lat="-21.16631" lon="55.56692">
        <ele>1626.2</ele>
        <time>2013-08-28T07:55:31Z</time>
      </trkpt>
      <trkpt lat="-21.16633" lon="55.56683">
        <ele>1626</ele>
        <time>2013-08-28T07:55:37Z</time>
      </trkpt>
      <trkpt lat="-21.16633" lon="55.56675">
        <ele>1626.1</ele>
        <time>2013-08-28T07:55:42Z</time>
      </trkpt>
      <trkpt lat="-21.16634" lon="55.56666">
        <ele>1625.6</ele>
        <time>2013-08-28T07:55:47Z</time>
      </trkpt>
      <trkpt lat="-21.16635" lon="55.56658">
        <ele>1626</ele>
        <time>2013-08-28T07:55:50Z</time>
      </trkpt>
      <trkpt lat="-21.16635" lon="55.56651">
        <ele>1626.1</ele>
        <time>2013-08-28T07:55:53Z</time>
      </trkpt>
      <trkpt lat="-21.16636" lon="55.56644">
        <ele>1626</ele>
        <time>2013-08-28T07:55:56Z</time>
      </trkpt>
      <trkpt lat="-21.16635" lon="55.56636">
        <ele>1626.6</ele>
        <time>2013-08-28T07:55:59Z</time>
      </trkpt>
      <trkpt lat="-21.16635" lon="55.56628">
        <ele>1627</ele>
        <time>2013-08-28T07:56:02Z</time>
      </trkpt>
      <trkpt lat="-21.16633" lon="55.56619">
        <ele>1627.2</ele>
        <time>2013-08-28T07:56:05Z</time>
      </trkpt>
      <trkpt lat="-21.16632" lon="55.56611">
        <ele>1627.2</ele>
        <time>2013-08-28T07:56:08Z</time>
      </trkpt>
      <trkpt lat="-21.16631" lon="55.56603">
        <ele>1627.7</ele>
        <time>2013-08-28T07:56:11Z</time>
      </trkpt>
      <trkpt lat="-21.16628" lon="55.56596">
        <ele>1628</ele>
        <time>2013-08-28T07:56:14Z</time>
      </trkpt>
      <trkpt lat="-21.16627" lon="55.56593">
        <ele>1628.5</ele>
        <time>2013-08-28T07:56:15Z</time>
      </trkpt>
      <trkpt lat="-21.16625" lon="55.5658">
        <ele>1630.3</ele>
        <time>2013-08-28T07:56:20Z</time>
      </trkpt>
      <trkpt lat="-21.16624" lon="55.56571">
        <ele>1629.6</ele>
        <time>2013-08-28T07:56:24Z</time>
      </trkpt>
      <trkpt lat="-21.16626" lon="55.56562">
        <ele>1629.3</ele>
        <time>2013-08-28T07:56:28Z</time>
      </trkpt>
      <trkpt lat="-21.16628" lon="55.56554">
        <ele>1629.7</ele>
        <time>2013-08-28T07:56:32Z</time>
      </trkpt>
      <trkpt lat="-21.16632" lon="55.56546">
        <ele>1630</ele>
        <time>2013-08-28T07:56:36Z</time>
      </trkpt>
      <trkpt lat="-21.16638" lon="55.56539">
        <ele>1629.6</ele>
        <time>2013-08-28T07:56:40Z</time>
      </trkpt>
      <trkpt lat="-21.16644" lon="55.56533">
        <ele>1630.1</ele>
        <time>2013-08-28T07:56:44Z</time>
      </trkpt>
      <trkpt lat="-21.16649" lon="55.56528">
        <ele>1630.2</ele>
        <time>2013-08-28T07:56:47Z</time>
      </trkpt>
      <trkpt lat="-21.16654" lon="55.56523">
        <ele>1631.3</ele>
        <time>2013-08-28T07:56:50Z</time>
      </trkpt>
      <trkpt lat="-21.1666" lon="55.56516">
        <ele>1632.3</ele>
        <time>2013-08-28T07:56:54Z</time>
      </trkpt>
      <trkpt lat="-21.16664" lon="55.56507">
        <ele>1632.1</ele>
        <time>2013-08-28T07:56:58Z</time>
      </trkpt>
      <trkpt lat="-21.16667" lon="55.56498">
        <ele>1632.9</ele>
        <time>2013-08-28T07:57:02Z</time>
      </trkpt>
      <trkpt lat="-21.16668" lon="55.56489">
        <ele>1634</ele>
        <time>2013-08-28T07:57:06Z</time>
      </trkpt>
      <trkpt lat="-21.16669" lon="55.5648">
        <ele>1633.7</ele>
        <time>2013-08-28T07:57:10Z</time>
      </trkpt>
      <trkpt lat="-21.16671" lon="55.56472">
        <ele>1634.6</ele>
        <time>2013-08-28T07:57:14Z</time>
      </trkpt>
      <trkpt lat="-21.16672" lon="55.56464">
        <ele>1634.3</ele>
        <time>2013-08-28T07:57:18Z</time>
      </trkpt>
      <trkpt lat="-21.16672" lon="55.56462">
        <ele>1634.3</ele>
        <time>2013-08-28T07:57:19Z</time>
      </trkpt>
      <trkpt lat="-21.16672" lon="55.56447">
        <ele>1636.9</ele>
        <time>2013-08-28T07:57:29Z</time>
      </trkpt>
      <trkpt lat="-21.16675" lon="55.56438">
        <ele>1636.9</ele>
        <time>2013-08-28T07:57:35Z</time>
      </trkpt>
      <trkpt lat="-21.16678" lon="55.56431">
        <ele>1636.9</ele>
        <time>2013-08-28T07:57:41Z</time>
      </trkpt>
      <trkpt lat="-21.16683" lon="55.56424">
        <ele>1637.3</ele>
        <time>2013-08-28T07:57:46Z</time>
      </trkpt>
      <trkpt lat="-21.16687" lon="55.56417">
        <ele>1637</ele>
        <time>2013-08-28T07:57:51Z</time>
      </trkpt>
      <trkpt lat="-21.16692" lon="55.5641">
        <ele>1637.5</ele>
        <time>2013-08-28T07:57:55Z</time>
      </trkpt>
      <trkpt lat="-21.16697" lon="55.56402">
        <ele>1637.2</ele>
        <time>2013-08-28T07:57:59Z</time>
      </trkpt>
      <trkpt lat="-21.16702" lon="55.56395">
        <ele>1636.2</ele>
        <time>2013-08-28T07:58:03Z</time>
      </trkpt>
      <trkpt lat="-21.16706" lon="55.56388">
        <ele>1634.6</ele>
        <time>2013-08-28T07:58:06Z</time>
      </trkpt>
      <trkpt lat="-21.16711" lon="55.56382">
        <ele>1633.8</ele>
        <time>2013-08-28T07:58:09Z</time>
      </trkpt>
      <trkpt lat="-21.16716" lon="55.56376">
        <ele>1633.9</ele>
        <time>2013-08-28T07:58:12Z</time>
      </trkpt>
      <trkpt lat="-21.16722" lon="55.56371">
        <ele>1633.4</ele>
        <time>2013-08-28T07:58:15Z</time>
      </trkpt>
      <trkpt lat="-21.16728" lon="55.56367">
        <ele>1633.3</ele>
        <time>2013-08-28T07:58:18Z</time>
      </trkpt>
      <trkpt lat="-21.16736" lon="55.56362">
        <ele>1633</ele>
        <time>2013-08-28T07:58:21Z</time>
      </trkpt>
      <trkpt lat="-21.16738" lon="55.56361">
        <ele>1633.1</ele>
        <time>2013-08-28T07:58:22Z</time>
      </trkpt>
      <trkpt lat="-21.16749" lon="55.56353">
        <ele>1632.7</ele>
        <time>2013-08-28T07:58:27Z</time>
      </trkpt>
      <trkpt lat="-21.16756" lon="55.56346">
        <ele>1632.5</ele>
        <time>2013-08-28T07:58:30Z</time>
      </trkpt>
      <trkpt lat="-21.1676" lon="55.56338">
        <ele>1632.2</ele>
        <time>2013-08-28T07:58:33Z</time>
      </trkpt>
      <trkpt lat="-21.16762" lon="55.5633">
        <ele>1632.5</ele>
        <time>2013-08-28T07:58:36Z</time>
      </trkpt>
      <trkpt lat="-21.16763" lon="55.56321">
        <ele>1632.6</ele>
        <time>2013-08-28T07:58:39Z</time>
      </trkpt>
      <trkpt lat="-21.16761" lon="55.56312">
        <ele>1631.5</ele>
        <time>2013-08-28T07:58:42Z</time>
      </trkpt>
      <trkpt lat="-21.1676" lon="55.56304">
        <ele>1631.8</ele>
        <time>2013-08-28T07:58:45Z</time>
      </trkpt>
      <trkpt lat="-21.16762" lon="55.56296">
        <ele>1631.5</ele>
        <time>2013-08-28T07:58:48Z</time>
      </trkpt>
      <trkpt lat="-21.16765" lon="55.56289">
        <ele>1632.9</ele>
        <time>2013-08-28T07:58:51Z</time>
      </trkpt>
      <trkpt lat="-21.16767" lon="55.5628">
        <ele>1632.2</ele>
        <time>2013-08-28T07:58:54Z</time>
      </trkpt>
      <trkpt lat="-21.1677" lon="55.56273">
        <ele>1632.2</ele>
        <time>2013-08-28T07:58:57Z</time>
      </trkpt>
      <trkpt lat="-21.16772" lon="55.56266">
        <ele>1631.9</ele>
        <time>2013-08-28T07:59:00Z</time>
      </trkpt>
      <trkpt lat="-21.16773" lon="55.56258">
        <ele>1632.6</ele>
        <time>2013-08-28T07:59:03Z</time>
      </trkpt>
      <trkpt lat="-21.16775" lon="55.5625">
        <ele>1632.3</ele>
        <time>2013-08-28T07:59:06Z</time>
      </trkpt>
      <trkpt lat="-21.16777" lon="55.56243">
        <ele>1632</ele>
        <time>2013-08-28T07:59:09Z</time>
      </trkpt>
      <trkpt lat="-21.16778" lon="55.56234">
        <ele>1631.2</ele>
        <time>2013-08-28T07:59:12Z</time>
      </trkpt>
      <trkpt lat="-21.1678" lon="55.56226">
        <ele>1631.8</ele>
        <time>2013-08-28T07:59:16Z</time>
      </trkpt>
      <trkpt lat="-21.16783" lon="55.56217">
        <ele>1632.4</ele>
        <time>2013-08-28T07:59:20Z</time>
      </trkpt>
      <trkpt lat="-21.16786" lon="55.5621">
        <ele>1632.1</ele>
        <time>2013-08-28T07:59:23Z</time>
      </trkpt>
      <trkpt lat="-21.16787" lon="55.56208">
        <ele>1632.1</ele>
        <time>2013-08-28T07:59:24Z</time>
      </trkpt>
      <trkpt lat="-21.16793" lon="55.56196">
        <ele>1632</ele>
        <time>2013-08-28T07:59:29Z</time>
      </trkpt>
      <trkpt lat="-21.16795" lon="55.56189">
        <ele>1631.9</ele>
        <time>2013-08-28T07:59:32Z</time>
      </trkpt>
      <trkpt lat="-21.16797" lon="55.56182">
        <ele>1632</ele>
        <time>2013-08-28T07:59:35Z</time>
      </trkpt>
      <trkpt lat="-21.168" lon="55.56175">
        <ele>1631.7</ele>
        <time>2013-08-28T07:59:38Z</time>
      </trkpt>
      <trkpt lat="-21.16804" lon="55.56167">
        <ele>1632</ele>
        <time>2013-08-28T07:59:42Z</time>
      </trkpt>
      <trkpt lat="-21.16807" lon="55.56158">
        <ele>1631.8</ele>
        <time>2013-08-28T07:59:46Z</time>
      </trkpt>
      <trkpt lat="-21.16809" lon="55.5615">
        <ele>1632.2</ele>
        <time>2013-08-28T07:59:50Z</time>
      </trkpt>
      <trkpt lat="-21.16811" lon="55.56141">
        <ele>1632.1</ele>
        <time>2013-08-28T07:59:54Z</time>
      </trkpt>
      <trkpt lat="-21.16812" lon="55.56132">
        <ele>1633</ele>
        <time>2013-08-28T07:59:58Z</time>
      </trkpt>
      <trkpt lat="-21.16812" lon="55.56123">
        <ele>1633.9</ele>
        <time>2013-08-28T08:00:02Z</time>
      </trkpt>
      <trkpt lat="-21.16811" lon="55.56113">
        <ele>1634.3</ele>
        <time>2013-08-28T08:00:06Z</time>
      </trkpt>
      <trkpt lat="-21.1681" lon="55.56104">
        <ele>1634.2</ele>
        <time>2013-08-28T08:00:10Z</time>
      </trkpt>
      <trkpt lat="-21.1681" lon="55.56096">
        <ele>1635.1</ele>
        <time>2013-08-28T08:00:14Z</time>
      </trkpt>
      <trkpt lat="-21.1681" lon="55.56087">
        <ele>1635.4</ele>
        <time>2013-08-28T08:00:18Z</time>
      </trkpt>
      <trkpt lat="-21.1681" lon="55.56079">
        <ele>1637</ele>
        <time>2013-08-28T08:00:22Z</time>
      </trkpt>
      <trkpt lat="-21.16811" lon="55.56071">
        <ele>1637.4</ele>
        <time>2013-08-28T08:00:26Z</time>
      </trkpt>
      <trkpt lat="-21.16812" lon="55.56069">
        <ele>1637.4</ele>
        <time>2013-08-28T08:00:27Z</time>
      </trkpt>
      <trkpt lat="-21.16819" lon="55.56054">
        <ele>1637.1</ele>
        <time>2013-08-28T08:00:34Z</time>
      </trkpt>
      <trkpt lat="-21.16823" lon="55.56048">
        <ele>1637.3</ele>
        <time>2013-08-28T08:00:37Z</time>
      </trkpt>
      <trkpt lat="-21.16828" lon="55.56043">
        <ele>1636.5</ele>
        <time>2013-08-28T08:00:40Z</time>
      </trkpt>
      <trkpt lat="-21.16834" lon="55.56038">
        <ele>1635.9</ele>
        <time>2013-08-28T08:00:43Z</time>
      </trkpt>
      <trkpt lat="-21.16841" lon="55.56033">
        <ele>1635.7</ele>
        <time>2013-08-28T08:00:46Z</time>
      </trkpt>
      <trkpt lat="-21.16849" lon="55.56029">
        <ele>1634.9</ele>
        <time>2013-08-28T08:00:49Z</time>
      </trkpt>
      <trkpt lat="-21.16857" lon="55.56026">
        <ele>1634.2</ele>
        <time>2013-08-28T08:00:52Z</time>
      </trkpt>
      <trkpt lat="-21.16865" lon="55.56021">
        <ele>1632.8</ele>
        <time>2013-08-28T08:00:56Z</time>
      </trkpt>
      <trkpt lat="-21.16871" lon="55.56018">
        <ele>1632.3</ele>
        <time>2013-08-28T08:00:59Z</time>
      </trkpt>
      <trkpt lat="-21.16878" lon="55.56014">
        <ele>1631.9</ele>
        <time>2013-08-28T08:01:02Z</time>
      </trkpt>
      <trkpt lat="-21.16885" lon="55.56011">
        <ele>1631.3</ele>
        <time>2013-08-28T08:01:05Z</time>
      </trkpt>
      <trkpt lat="-21.16892" lon="55.56008">
        <ele>1631</ele>
        <time>2013-08-28T08:01:08Z</time>
      </trkpt>
      <trkpt lat="-21.16898" lon="55.56005">
        <ele>1630.6</ele>
        <time>2013-08-28T08:01:11Z</time>
      </trkpt>
      <trkpt lat="-21.16905" lon="55.56002">
        <ele>1630.2</ele>
        <time>2013-08-28T08:01:14Z</time>
      </trkpt>
      <trkpt lat="-21.16912" lon="55.55998">
        <ele>1630.1</ele>
        <time>2013-08-28T08:01:17Z</time>
      </trkpt>
      <trkpt lat="-21.16919" lon="55.55994">
        <ele>1629.4</ele>
        <time>2013-08-28T08:01:20Z</time>
      </trkpt>
      <trkpt lat="-21.16927" lon="55.55991">
        <ele>1628.7</ele>
        <time>2013-08-28T08:01:23Z</time>
      </trkpt>
      <trkpt lat="-21.16935" lon="55.55987">
        <ele>1628.2</ele>
        <time>2013-08-28T08:01:26Z</time>
      </trkpt>
      <trkpt lat="-21.16941" lon="55.55985">
        <ele>1627.7</ele>
        <time>2013-08-28T08:01:29Z</time>
      </trkpt>
      <trkpt lat="-21.16944" lon="55.55984">
        <ele>1627.5</ele>
        <time>2013-08-28T08:01:30Z</time>
      </trkpt>
      <trkpt lat="-21.16956" lon="55.55981">
        <ele>1626.7</ele>
        <time>2013-08-28T08:01:35Z</time>
      </trkpt>
      <trkpt lat="-21.16964" lon="55.55978">
        <ele>1626.5</ele>
        <time>2013-08-28T08:01:38Z</time>
      </trkpt>
      <trkpt lat="-21.1697" lon="55.55972">
        <ele>1626.4</ele>
        <time>2013-08-28T08:01:41Z</time>
      </trkpt>
      <trkpt lat="-21.16977" lon="55.55966">
        <ele>1626.6</ele>
        <time>2013-08-28T08:01:44Z</time>
      </trkpt>
      <trkpt lat="-21.16983" lon="55.5596">
        <ele>1626.1</ele>
        <time>2013-08-28T08:01:47Z</time>
      </trkpt>
      <trkpt lat="-21.16988" lon="55.55955">
        <ele>1626.3</ele>
        <time>2013-08-28T08:01:50Z</time>
      </trkpt>
      <trkpt lat="-21.16992" lon="55.55949">
        <ele>1625.7</ele>
        <time>2013-08-28T08:01:53Z</time>
      </trkpt>
      <trkpt lat="-21.16995" lon="55.55941">
        <ele>1625.6</ele>
        <time>2013-08-28T08:01:56Z</time>
      </trkpt>
      <trkpt lat="-21.16999" lon="55.55933">
        <ele>1625.1</ele>
        <time>2013-08-28T08:01:59Z</time>
      </trkpt>
      <trkpt lat="-21.17003" lon="55.55926">
        <ele>1625.2</ele>
        <time>2013-08-28T08:02:02Z</time>
      </trkpt>
      <trkpt lat="-21.17006" lon="55.55919">
        <ele>1625</ele>
        <time>2013-08-28T08:02:05Z</time>
      </trkpt>
      <trkpt lat="-21.17011" lon="55.55911">
        <ele>1624.6</ele>
        <time>2013-08-28T08:02:09Z</time>
      </trkpt>
      <trkpt lat="-21.17015" lon="55.55904">
        <ele>1624.3</ele>
        <time>2013-08-28T08:02:13Z</time>
      </trkpt>
      <trkpt lat="-21.17021" lon="55.55898">
        <ele>1625.5</ele>
        <time>2013-08-28T08:02:18Z</time>
      </trkpt>
      <trkpt lat="-21.17029" lon="55.55892">
        <ele>1626.8</ele>
        <time>2013-08-28T08:02:24Z</time>
      </trkpt>
      <trkpt lat="-21.17036" lon="55.55888">
        <ele>1627.7</ele>
        <time>2013-08-28T08:02:30Z</time>
      </trkpt>
      <trkpt lat="-21.17037" lon="55.55887">
        <ele>1628</ele>
        <time>2013-08-28T08:02:31Z</time>
      </trkpt>
      <trkpt lat="-21.1705" lon="55.55878">
        <ele>1628.2</ele>
        <time>2013-08-28T08:02:39Z</time>
      </trkpt>
      <trkpt lat="-21.17056" lon="55.55872">
        <ele>1628.1</ele>
        <time>2013-08-28T08:02:43Z</time>
      </trkpt>
      <trkpt lat="-21.1706" lon="55.55866">
        <ele>1628</ele>
        <time>2013-08-28T08:02:46Z</time>
      </trkpt>
      <trkpt lat="-21.17064" lon="55.55858">
        <ele>1628.3</ele>
        <time>2013-08-28T08:02:49Z</time>
      </trkpt>
      <trkpt lat="-21.17066" lon="55.5585">
        <ele>1628.1</ele>
        <time>2013-08-28T08:02:52Z</time>
      </trkpt>
      <trkpt lat="-21.17066" lon="55.55843">
        <ele>1628.5</ele>
        <time>2013-08-28T08:02:55Z</time>
      </trkpt>
      <trkpt lat="-21.17068" lon="55.55835">
        <ele>1628.2</ele>
        <time>2013-08-28T08:02:58Z</time>
      </trkpt>
      <trkpt lat="-21.17069" lon="55.55827">
        <ele>1627.8</ele>
        <time>2013-08-28T08:03:01Z</time>
      </trkpt>
      <trkpt lat="-21.1707" lon="55.5582">
        <ele>1628.8</ele>
        <time>2013-08-28T08:03:04Z</time>
      </trkpt>
      <trkpt lat="-21.17071" lon="55.55812">
        <ele>1628.4</ele>
        <time>2013-08-28T08:03:07Z</time>
      </trkpt>
      <trkpt lat="-21.17074" lon="55.55803">
        <ele>1629.6</ele>
        <time>2013-08-28T08:03:10Z</time>
      </trkpt>
      <trkpt lat="-21.17075" lon="55.55796">
        <ele>1629.8</ele>
        <time>2013-08-28T08:03:13Z</time>
      </trkpt>
      <trkpt lat="-21.17076" lon="55.55787">
        <ele>1629.1</ele>
        <time>2013-08-28T08:03:16Z</time>
      </trkpt>
      <trkpt lat="-21.17076" lon="55.55779">
        <ele>1629.6</ele>
        <time>2013-08-28T08:03:19Z</time>
      </trkpt>
      <trkpt lat="-21.17077" lon="55.55771">
        <ele>1628.9</ele>
        <time>2013-08-28T08:03:22Z</time>
      </trkpt>
      <trkpt lat="-21.17077" lon="55.55764">
        <ele>1628.5</ele>
        <time>2013-08-28T08:03:25Z</time>
      </trkpt>
      <trkpt lat="-21.17078" lon="55.55757">
        <ele>1628.2</ele>
        <time>2013-08-28T08:03:28Z</time>
      </trkpt>
      <trkpt lat="-21.17077" lon="55.55748">
        <ele>1628.5</ele>
        <time>2013-08-28T08:03:32Z</time>
      </trkpt>
      <trkpt lat="-21.17077" lon="55.55745">
        <ele>1628.8</ele>
        <time>2013-08-28T08:03:33Z</time>
      </trkpt>
      <trkpt lat="-21.17077" lon="55.5573">
        <ele>1629.2</ele>
        <time>2013-08-28T08:03:40Z</time>
      </trkpt>
      <trkpt lat="-21.17078" lon="55.55722">
        <ele>1630.5</ele>
        <time>2013-08-28T08:03:44Z</time>
      </trkpt>
      <trkpt lat="-21.17078" lon="55.55713">
        <ele>1631</ele>
        <time>2013-08-28T08:03:49Z</time>
      </trkpt>
      <trkpt lat="-21.17077" lon="55.55705">
        <ele>1632</ele>
        <time>2013-08-28T08:03:54Z</time>
      </trkpt>
      <trkpt lat="-21.17076" lon="55.55697">
        <ele>1633.2</ele>
        <time>2013-08-28T08:03:59Z</time>
      </trkpt>
      <trkpt lat="-21.17075" lon="55.55688">
        <ele>1634.2</ele>
        <time>2013-08-28T08:04:04Z</time>
      </trkpt>
      <trkpt lat="-21.17075" lon="55.5568">
        <ele>1635</ele>
        <time>2013-08-28T08:04:09Z</time>
      </trkpt>
      <trkpt lat="-21.17074" lon="55.55671">
        <ele>1636.2</ele>
        <time>2013-08-28T08:04:15Z</time>
      </trkpt>
      <trkpt lat="-21.1707" lon="55.55662">
        <ele>1636.5</ele>
        <time>2013-08-28T08:04:21Z</time>
      </trkpt>
      <trkpt lat="-21.17072" lon="55.55653">
        <ele>1637.6</ele>
        <time>2013-08-28T08:04:28Z</time>
      </trkpt>
      <trkpt lat="-21.17071" lon="55.55644">
        <ele>1640.1</ele>
        <time>2013-08-28T08:04:34Z</time>
      </trkpt>
      <trkpt lat="-21.17071" lon="55.55643">
        <ele>1640.2</ele>
        <time>2013-08-28T08:04:35Z</time>
      </trkpt>
      <trkpt lat="-21.17073" lon="55.55626">
        <ele>1639.9</ele>
        <time>2013-08-28T08:04:46Z</time>
      </trkpt>
      <trkpt lat="-21.17073" lon="55.55618">
        <ele>1640.9</ele>
        <time>2013-08-28T08:04:51Z</time>
      </trkpt>
      <trkpt lat="-21.17072" lon="55.5561">
        <ele>1640.4</ele>
        <time>2013-08-28T08:04:57Z</time>
      </trkpt>
      <trkpt lat="-21.17073" lon="55.55601">
        <ele>1640.9</ele>
        <time>2013-08-28T08:05:03Z</time>
      </trkpt>
      <trkpt lat="-21.17073" lon="55.55592">
        <ele>1640.7</ele>
        <time>2013-08-28T08:05:08Z</time>
      </trkpt>
      <trkpt lat="-21.17073" lon="55.55583">
        <ele>1640.4</ele>
        <time>2013-08-28T08:05:12Z</time>
      </trkpt>
      <trkpt lat="-21.17074" lon="55.55574">
        <ele>1641.5</ele>
        <time>2013-08-28T08:05:16Z</time>
      </trkpt>
      <trkpt lat="-21.17074" lon="55.55564">
        <ele>1641.9</ele>
        <time>2013-08-28T08:05:20Z</time>
      </trkpt>
      <trkpt lat="-21.17074" lon="55.55557">
        <ele>1642.1</ele>
        <time>2013-08-28T08:05:23Z</time>
      </trkpt>
      <trkpt lat="-21.17075" lon="55.55548">
        <ele>1641.7</ele>
        <time>2013-08-28T08:05:27Z</time>
      </trkpt>
      <trkpt lat="-21.17074" lon="55.5554">
        <ele>1641.1</ele>
        <time>2013-08-28T08:05:30Z</time>
      </trkpt>
      <trkpt lat="-21.17075" lon="55.5553">
        <ele>1640.6</ele>
        <time>2013-08-28T08:05:34Z</time>
      </trkpt>
      <trkpt lat="-21.17075" lon="55.55522">
        <ele>1640.9</ele>
        <time>2013-08-28T08:05:38Z</time>
      </trkpt>
      <trkpt lat="-21.17075" lon="55.5552">
        <ele>1641.1</ele>
        <time>2013-08-28T08:05:39Z</time>
      </trkpt>
      <trkpt lat="-21.17077" lon="55.55508">
        <ele>1640.2</ele>
        <time>2013-08-28T08:05:44Z</time>
      </trkpt>
      <trkpt lat="-21.17079" lon="55.555">
        <ele>1639.8</ele>
        <time>2013-08-28T08:05:47Z</time>
      </trkpt>
      <trkpt lat="-21.17081" lon="55.55492">
        <ele>1639</ele>
        <time>2013-08-28T08:05:50Z</time>
      </trkpt>
      <trkpt lat="-21.17083" lon="55.55484">
        <ele>1639.4</ele>
        <time>2013-08-28T08:05:53Z</time>
      </trkpt>
      <trkpt lat="-21.17084" lon="55.55476">
        <ele>1639.4</ele>
        <time>2013-08-28T08:05:56Z</time>
      </trkpt>
      <trkpt lat="-21.17086" lon="55.55469">
        <ele>1639.4</ele>
        <time>2013-08-28T08:05:59Z</time>
      </trkpt>
      <trkpt lat="-21.1709" lon="55.55461">
        <ele>1638.6</ele>
        <time>2013-08-28T08:06:03Z</time>
      </trkpt>
      <trkpt lat="-21.17094" lon="55.55455">
        <ele>1637.7</ele>
        <time>2013-08-28T08:06:06Z</time>
      </trkpt>
      <trkpt lat="-21.17098" lon="55.55449">
        <ele>1636.6</ele>
        <time>2013-08-28T08:06:09Z</time>
      </trkpt>
      <trkpt lat="-21.17103" lon="55.55443">
        <ele>1636.1</ele>
        <time>2013-08-28T08:06:12Z</time>
      </trkpt>
      <trkpt lat="-21.17107" lon="55.55436">
        <ele>1635.9</ele>
        <time>2013-08-28T08:06:15Z</time>
      </trkpt>
      <trkpt lat="-21.17112" lon="55.5543">
        <ele>1635.9</ele>
        <time>2013-08-28T08:06:18Z</time>
      </trkpt>
      <trkpt lat="-21.17116" lon="55.55424">
        <ele>1635.6</ele>
        <time>2013-08-28T08:06:21Z</time>
      </trkpt>
      <trkpt lat="-21.17121" lon="55.55418">
        <ele>1635.2</ele>
        <time>2013-08-28T08:06:24Z</time>
      </trkpt>
      <trkpt lat="-21.17129" lon="55.55414">
        <ele>1634.3</ele>
        <time>2013-08-28T08:06:28Z</time>
      </trkpt>
      <trkpt lat="-21.17136" lon="55.55415">
        <ele>1634.2</ele>
        <time>2013-08-28T08:06:31Z</time>
      </trkpt>
      <trkpt lat="-21.17143" lon="55.55416">
        <ele>1634.1</ele>
        <time>2013-08-28T08:06:34Z</time>
      </trkpt>
      <trkpt lat="-21.1715" lon="55.55419">
        <ele>1634.1</ele>
        <time>2013-08-28T08:06:37Z</time>
      </trkpt>
      <trkpt lat="-21.17158" lon="55.55422">
        <ele>1633.4</ele>
        <time>2013-08-28T08:06:41Z</time>
      </trkpt>
      <trkpt lat="-21.1716" lon="55.55423">
        <ele>1633.1</ele>
        <time>2013-08-28T08:06:42Z</time>
      </trkpt>
      <trkpt lat="-21.17173" lon="55.55427">
        <ele>1634.3</ele>
        <time>2013-08-28T08:06:48Z</time>
      </trkpt>
      <trkpt lat="-21.1718" lon="55.55428">
        <ele>1634.8</ele>
        <time>2013-08-28T08:06:51Z</time>
      </trkpt>
      <trkpt lat="-21.17187" lon="55.55431">
        <ele>1634.5</ele>
        <time>2013-08-28T08:06:54Z</time>
      </trkpt>
      <trkpt lat="-21.17194" lon="55.55434">
        <ele>1634.2</ele>
        <time>2013-08-28T08:06:57Z</time>
      </trkpt>
      <trkpt lat="-21.172" lon="55.55436">
        <ele>1633.4</ele>
        <time>2013-08-28T08:07:00Z</time>
      </trkpt>
      <trkpt lat="-21.17207" lon="55.55439">
        <ele>1632.9</ele>
        <time>2013-08-28T08:07:03Z</time>
      </trkpt>
      <trkpt lat="-21.17214" lon="55.55442">
        <ele>1632.8</ele>
        <time>2013-08-28T08:07:06Z</time>
      </trkpt>
      <trkpt lat="-21.17221" lon="55.55446">
        <ele>1632.6</ele>
        <time>2013-08-28T08:07:09Z</time>
      </trkpt>
      <trkpt lat="-21.17228" lon="55.55449">
        <ele>1632</ele>
        <time>2013-08-28T08:07:12Z</time>
      </trkpt>
      <trkpt lat="-21.17235" lon="55.55452">
        <ele>1631.5</ele>
        <time>2013-08-28T08:07:15Z</time>
      </trkpt>
      <trkpt lat="-21.17244" lon="55.55455">
        <ele>1631.8</ele>
        <time>2013-08-28T08:07:18Z</time>
      </trkpt>
      <trkpt lat="-21.17251" lon="55.55458">
        <ele>1630.4</ele>
        <time>2013-08-28T08:07:21Z</time>
      </trkpt>
      <trkpt lat="-21.17259" lon="55.5546">
        <ele>1630.3</ele>
        <time>2013-08-28T08:07:24Z</time>
      </trkpt>
      <trkpt lat="-21.17267" lon="55.55463">
        <ele>1629.4</ele>
        <time>2013-08-28T08:07:27Z</time>
      </trkpt>
      <trkpt lat="-21.17274" lon="55.55466">
        <ele>1628.5</ele>
        <time>2013-08-28T08:07:30Z</time>
      </trkpt>
      <trkpt lat="-21.17281" lon="55.55468">
        <ele>1628.6</ele>
        <time>2013-08-28T08:07:33Z</time>
      </trkpt>
      <trkpt lat="-21.17288" lon="55.55471">
        <ele>1628.2</ele>
        <time>2013-08-28T08:07:36Z</time>
      </trkpt>
      <trkpt lat="-21.17295" lon="55.55474">
        <ele>1627.7</ele>
        <time>2013-08-28T08:07:39Z</time>
      </trkpt>
      <trkpt lat="-21.17303" lon="55.55478">
        <ele>1626.3</ele>
        <time>2013-08-28T08:07:43Z</time>
      </trkpt>
      <trkpt lat="-21.17305" lon="55.55478">
        <ele>1626</ele>
        <time>2013-08-28T08:07:44Z</time>
      </trkpt>
      <trkpt lat="-21.17317" lon="55.55484">
        <ele>1623.2</ele>
        <time>2013-08-28T08:07:50Z</time>
      </trkpt>
      <trkpt lat="-21.17325" lon="55.55488">
        <ele>1622.2</ele>
        <time>2013-08-28T08:07:54Z</time>
      </trkpt>
      <trkpt lat="-21.17331" lon="55.55492">
        <ele>1621.6</ele>
        <time>2013-08-28T08:07:57Z</time>
      </trkpt>
      <trkpt lat="-21.17338" lon="55.55494">
        <ele>1620.7</ele>
        <time>2013-08-28T08:08:00Z</time>
      </trkpt>
      <trkpt lat="-21.17345" lon="55.55498">
        <ele>1619.7</ele>
        <time>2013-08-28T08:08:03Z</time>
      </trkpt>
      <trkpt lat="-21.17351" lon="55.55501">
        <ele>1618.2</ele>
        <time>2013-08-28T08:08:06Z</time>
      </trkpt>
      <trkpt lat="-21.17359" lon="55.55503">
        <ele>1617.2</ele>
        <time>2013-08-28T08:08:09Z</time>
      </trkpt>
      <trkpt lat="-21.17366" lon="55.55506">
        <ele>1616.7</ele>
        <time>2013-08-28T08:08:12Z</time>
      </trkpt>
      <trkpt lat="-21.17374" lon="55.55508">
        <ele>1615.6</ele>
        <time>2013-08-28T08:08:15Z</time>
      </trkpt>
      <trkpt lat="-21.17381" lon="55.55511">
        <ele>1615.7</ele>
        <time>2013-08-28T08:08:18Z</time>
      </trkpt>
      <trkpt lat="-21.17388" lon="55.55515">
        <ele>1615.8</ele>
        <time>2013-08-28T08:08:21Z</time>
      </trkpt>
      <trkpt lat="-21.17396" lon="55.55518">
        <ele>1615.6</ele>
        <time>2013-08-28T08:08:24Z</time>
      </trkpt>
      <trkpt lat="-21.17403" lon="55.55522">
        <ele>1614.9</ele>
        <time>2013-08-28T08:08:27Z</time>
      </trkpt>
      <trkpt lat="-21.1741" lon="55.55525">
        <ele>1614.7</ele>
        <time>2013-08-28T08:08:30Z</time>
      </trkpt>
      <trkpt lat="-21.17417" lon="55.55528">
        <ele>1614.5</ele>
        <time>2013-08-28T08:08:33Z</time>
      </trkpt>
      <trkpt lat="-21.17424" lon="55.5553">
        <ele>1613.9</ele>
        <time>2013-08-28T08:08:36Z</time>
      </trkpt>
      <trkpt lat="-21.17431" lon="55.55532">
        <ele>1613.8</ele>
        <time>2013-08-28T08:08:39Z</time>
      </trkpt>
      <trkpt lat="-21.17439" lon="55.55535">
        <ele>1613.3</ele>
        <time>2013-08-28T08:08:42Z</time>
      </trkpt>
      <trkpt lat="-21.17446" lon="55.55537">
        <ele>1612.4</ele>
        <time>2013-08-28T08:08:45Z</time>
      </trkpt>
      <trkpt lat="-21.17449" lon="55.55538">
        <ele>1612.3</ele>
        <time>2013-08-28T08:08:46Z</time>
      </trkpt>
      <trkpt lat="-21.17461" lon="55.55544">
        <ele>1611.3</ele>
        <time>2013-08-28T08:08:52Z</time>
      </trkpt>
      <trkpt lat="-21.17469" lon="55.55546">
        <ele>1610.2</ele>
        <time>2013-08-28T08:08:56Z</time>
      </trkpt>
      <trkpt lat="-21.17475" lon="55.55548">
        <ele>1609.6</ele>
        <time>2013-08-28T08:08:59Z</time>
      </trkpt>
      <trkpt lat="-21.17483" lon="55.55552">
        <ele>1608.3</ele>
        <time>2013-08-28T08:09:03Z</time>
      </trkpt>
      <trkpt lat="-21.1749" lon="55.55555">
        <ele>1607.7</ele>
        <time>2013-08-28T08:09:06Z</time>
      </trkpt>
      <trkpt lat="-21.17496" lon="55.55558">
        <ele>1606.5</ele>
        <time>2013-08-28T08:09:09Z</time>
      </trkpt>
      <trkpt lat="-21.17503" lon="55.55561">
        <ele>1605.2</ele>
        <time>2013-08-28T08:09:12Z</time>
      </trkpt>
      <trkpt lat="-21.1751" lon="55.55564">
        <ele>1603.7</ele>
        <time>2013-08-28T08:09:15Z</time>
      </trkpt>
      <trkpt lat="-21.17517" lon="55.55567">
        <ele>1602.8</ele>
        <time>2013-08-28T08:09:18Z</time>
      </trkpt>
      <trkpt lat="-21.17524" lon="55.5557">
        <ele>1601.5</ele>
        <time>2013-08-28T08:09:21Z</time>
      </trkpt>
      <trkpt lat="-21.17531" lon="55.55574">
        <ele>1601</ele>
        <time>2013-08-28T08:09:24Z</time>
      </trkpt>
      <trkpt lat="-21.17539" lon="55.55578">
        <ele>1600.4</ele>
        <time>2013-08-28T08:09:27Z</time>
      </trkpt>
      <trkpt lat="-21.17546" lon="55.5558">
        <ele>1599.4</ele>
        <time>2013-08-28T08:09:30Z</time>
      </trkpt>
      <trkpt lat="-21.17553" lon="55.55582">
        <ele>1599.9</ele>
        <time>2013-08-28T08:09:33Z</time>
      </trkpt>
      <trkpt lat="-21.17561" lon="55.55584">
        <ele>1600.3</ele>
        <time>2013-08-28T08:09:36Z</time>
      </trkpt>
      <trkpt lat="-21.17569" lon="55.55587">
        <ele>1599.4</ele>
        <time>2013-08-28T08:09:39Z</time>
      </trkpt>
      <trkpt lat="-21.17577" lon="55.55589">
        <ele>1598.6</ele>
        <time>2013-08-28T08:09:42Z</time>
      </trkpt>
      <trkpt lat="-21.17584" lon="55.55592">
        <ele>1598</ele>
        <time>2013-08-28T08:09:45Z</time>
      </trkpt>
      <trkpt lat="-21.17591" lon="55.55595">
        <ele>1597.4</ele>
        <time>2013-08-28T08:09:48Z</time>
      </trkpt>
      <trkpt lat="-21.17594" lon="55.55596">
        <ele>1597</ele>
        <time>2013-08-28T08:09:49Z</time>
      </trkpt>
      <trkpt lat="-21.17606" lon="55.556">
        <ele>1597.2</ele>
        <time>2013-08-28T08:09:54Z</time>
      </trkpt>
      <trkpt lat="-21.17613" lon="55.55603">
        <ele>1596.2</ele>
        <time>2013-08-28T08:09:57Z</time>
      </trkpt>
      <trkpt lat="-21.1762" lon="55.55605">
        <ele>1596.6</ele>
        <time>2013-08-28T08:10:00Z</time>
      </trkpt>
      <trkpt lat="-21.17628" lon="55.55608">
        <ele>1597</ele>
        <time>2013-08-28T08:10:04Z</time>
      </trkpt>
      <trkpt lat="-21.17635" lon="55.5561">
        <ele>1596.1</ele>
        <time>2013-08-28T08:10:07Z</time>
      </trkpt>
      <trkpt lat="-21.17641" lon="55.55612">
        <ele>1596.1</ele>
        <time>2013-08-28T08:10:10Z</time>
      </trkpt>
      <trkpt lat="-21.17648" lon="55.55615">
        <ele>1596.1</ele>
        <time>2013-08-28T08:10:13Z</time>
      </trkpt>
      <trkpt lat="-21.17655" lon="55.55618">
        <ele>1595.5</ele>
        <time>2013-08-28T08:10:16Z</time>
      </trkpt>
      <trkpt lat="-21.17662" lon="55.5562">
        <ele>1595</ele>
        <time>2013-08-28T08:10:19Z</time>
      </trkpt>
      <trkpt lat="-21.17669" lon="55.55624">
        <ele>1594.7</ele>
        <time>2013-08-28T08:10:22Z</time>
      </trkpt>
      <trkpt lat="-21.17677" lon="55.55627">
        <ele>1594.3</ele>
        <time>2013-08-28T08:10:26Z</time>
      </trkpt>
      <trkpt lat="-21.17683" lon="55.5563">
        <ele>1594.1</ele>
        <time>2013-08-28T08:10:29Z</time>
      </trkpt>
      <trkpt lat="-21.17691" lon="55.55633">
        <ele>1593.5</ele>
        <time>2013-08-28T08:10:32Z</time>
      </trkpt>
      <trkpt lat="-21.17697" lon="55.55636">
        <ele>1593.1</ele>
        <time>2013-08-28T08:10:35Z</time>
      </trkpt>
      <trkpt lat="-21.17704" lon="55.55639">
        <ele>1592.4</ele>
        <time>2013-08-28T08:10:38Z</time>
      </trkpt>
      <trkpt lat="-21.17711" lon="55.55641">
        <ele>1591.8</ele>
        <time>2013-08-28T08:10:41Z</time>
      </trkpt>
      <trkpt lat="-21.17718" lon="55.55644">
        <ele>1591.1</ele>
        <time>2013-08-28T08:10:44Z</time>
      </trkpt>
      <trkpt lat="-21.17724" lon="55.55647">
        <ele>1590.4</ele>
        <time>2013-08-28T08:10:47Z</time>
      </trkpt>
      <trkpt lat="-21.17731" lon="55.5565">
        <ele>1589.6</ele>
        <time>2013-08-28T08:10:50Z</time>
      </trkpt>
      <trkpt lat="-21.17733" lon="55.55651">
        <ele>1589.1</ele>
        <time>2013-08-28T08:10:51Z</time>
      </trkpt>
      <trkpt lat="-21.17745" lon="55.55656">
        <ele>1588</ele>
        <time>2013-08-28T08:10:56Z</time>
      </trkpt>
      <trkpt lat="-21.17754" lon="55.55658">
        <ele>1587.6</ele>
        <time>2013-08-28T08:11:00Z</time>
      </trkpt>
      <trkpt lat="-21.17761" lon="55.5566">
        <ele>1587.8</ele>
        <time>2013-08-28T08:11:04Z</time>
      </trkpt>
      <trkpt lat="-21.17769" lon="55.55663">
        <ele>1586.8</ele>
        <time>2013-08-28T08:11:08Z</time>
      </trkpt>
      <trkpt lat="-21.17776" lon="55.55666">
        <ele>1587.1</ele>
        <time>2013-08-28T08:11:11Z</time>
      </trkpt>
      <trkpt lat="-21.17783" lon="55.55669">
        <ele>1587.3</ele>
        <time>2013-08-28T08:11:14Z</time>
      </trkpt>
      <trkpt lat="-21.17789" lon="55.55671">
        <ele>1587.4</ele>
        <time>2013-08-28T08:11:17Z</time>
      </trkpt>
      <trkpt lat="-21.17798" lon="55.55674">
        <ele>1587.6</ele>
        <time>2013-08-28T08:11:21Z</time>
      </trkpt>
      <trkpt lat="-21.17805" lon="55.55677">
        <ele>1587.7</ele>
        <time>2013-08-28T08:11:25Z</time>
      </trkpt>
      <trkpt lat="-21.17813" lon="55.5568">
        <ele>1588.9</ele>
        <time>2013-08-28T08:11:29Z</time>
      </trkpt>
      <trkpt lat="-21.1782" lon="55.55684">
        <ele>1589.7</ele>
        <time>2013-08-28T08:11:33Z</time>
      </trkpt>
      <trkpt lat="-21.17828" lon="55.55688">
        <ele>1589.1</ele>
        <time>2013-08-28T08:11:38Z</time>
      </trkpt>
      <trkpt lat="-21.17835" lon="55.55692">
        <ele>1588.8</ele>
        <time>2013-08-28T08:11:43Z</time>
      </trkpt>
      <trkpt lat="-21.17842" lon="55.55695">
        <ele>1588.6</ele>
        <time>2013-08-28T08:11:48Z</time>
      </trkpt>
      <trkpt lat="-21.17849" lon="55.55698">
        <ele>1589.9</ele>
        <time>2013-08-28T08:11:54Z</time>
      </trkpt>
      <trkpt lat="-21.1785" lon="55.55698">
        <ele>1590.6</ele>
        <time>2013-08-28T08:11:55Z</time>
      </trkpt>
      <trkpt lat="-21.17864" lon="55.55705">
        <ele>1593.7</ele>
        <time>2013-08-28T08:12:06Z</time>
      </trkpt>
      <trkpt lat="-21.17871" lon="55.55708">
        <ele>1593.9</ele>
        <time>2013-08-28T08:12:11Z</time>
      </trkpt>
      <trkpt lat="-21.17878" lon="55.55713">
        <ele>1594.7</ele>
        <time>2013-08-28T08:12:16Z</time>
      </trkpt>
      <trkpt lat="-21.17885" lon="55.55717">
        <ele>1594.2</ele>
        <time>2013-08-28T08:12:21Z</time>
      </trkpt>
      <trkpt lat="-21.17891" lon="55.55721">
        <ele>1593.2</ele>
        <time>2013-08-28T08:12:25Z</time>
      </trkpt>
      <trkpt lat="-21.17899" lon="55.55724">
        <ele>1594.5</ele>
        <time>2013-08-28T08:12:29Z</time>
      </trkpt>
      <trkpt lat="-21.17906" lon="55.55728">
        <ele>1594.2</ele>
        <time>2013-08-28T08:12:35Z</time>
      </trkpt>
      <trkpt lat="-21.17914" lon="55.55733">
        <ele>1594.4</ele>
        <time>2013-08-28T08:12:40Z</time>
      </trkpt>
      <trkpt lat="-21.17921" lon="55.55737">
        <ele>1595.2</ele>
        <time>2013-08-28T08:12:44Z</time>
      </trkpt>
      <trkpt lat="-21.17928" lon="55.55742">
        <ele>1595.6</ele>
        <time>2013-08-28T08:12:48Z</time>
      </trkpt>
      <trkpt lat="-21.17934" lon="55.55747">
        <ele>1595.7</ele>
        <time>2013-08-28T08:12:52Z</time>
      </trkpt>
      <trkpt lat="-21.1794" lon="55.55753">
        <ele>1595.8</ele>
        <time>2013-08-28T08:12:56Z</time>
      </trkpt>
      <trkpt lat="-21.17942" lon="55.55754">
        <ele>1595.6</ele>
        <time>2013-08-28T08:12:57Z</time>
      </trkpt>
      <trkpt lat="-21.17955" lon="55.55763">
        <ele>1596.4</ele>
        <time>2013-08-28T08:13:04Z</time>
      </trkpt>
      <trkpt lat="-21.1796" lon="55.55767">
        <ele>1596.9</ele>
        <time>2013-08-28T08:13:07Z</time>
      </trkpt>
      <trkpt lat="-21.17966" lon="55.55771">
        <ele>1596.1</ele>
        <time>2013-08-28T08:13:10Z</time>
      </trkpt>
      <trkpt lat="-21.17972" lon="55.55775">
        <ele>1596.8</ele>
        <time>2013-08-28T08:13:13Z</time>
      </trkpt>
      <trkpt lat="-21.17979" lon="55.5578">
        <ele>1597.2</ele>
        <time>2013-08-28T08:13:17Z</time>
      </trkpt>
      <trkpt lat="-21.17985" lon="55.55785">
        <ele>1597.2</ele>
        <time>2013-08-28T08:13:20Z</time>
      </trkpt>
      <trkpt lat="-21.17993" lon="55.55789">
        <ele>1596.7</ele>
        <time>2013-08-28T08:13:24Z</time>
      </trkpt>
      <trkpt lat="-21.18" lon="55.55792">
        <ele>1598</ele>
        <time>2013-08-28T08:13:28Z</time>
      </trkpt>
      <trkpt lat="-21.18008" lon="55.55795">
        <ele>1598.3</ele>
        <time>2013-08-28T08:13:32Z</time>
      </trkpt>
      <trkpt lat="-21.18017" lon="55.55795">
        <ele>1598.1</ele>
        <time>2013-08-28T08:13:36Z</time>
      </trkpt>
      <trkpt lat="-21.18025" lon="55.55796">
        <ele>1597.4</ele>
        <time>2013-08-28T08:13:40Z</time>
      </trkpt>
      <trkpt lat="-21.18033" lon="55.55796">
        <ele>1597.3</ele>
        <time>2013-08-28T08:13:44Z</time>
      </trkpt>
      <trkpt lat="-21.1804" lon="55.55796">
        <ele>1597.1</ele>
        <time>2013-08-28T08:13:47Z</time>
      </trkpt>
      <trkpt lat="-21.18047" lon="55.55796">
        <ele>1596.7</ele>
        <time>2013-08-28T08:13:50Z</time>
      </trkpt>
      <trkpt lat="-21.18054" lon="55.55797">
        <ele>1596.9</ele>
        <time>2013-08-28T08:13:53Z</time>
      </trkpt>
      <trkpt lat="-21.18061" lon="55.55798">
        <ele>1597</ele>
        <time>2013-08-28T08:13:56Z</time>
      </trkpt>
      <trkpt lat="-21.18068" lon="55.558">
        <ele>1597</ele>
        <time>2013-08-28T08:13:59Z</time>
      </trkpt>
      <trkpt lat="-21.1807" lon="55.558">
        <ele>1597</ele>
        <time>2013-08-28T08:14:00Z</time>
      </trkpt>
      <trkpt lat="-21.18085" lon="55.55804">
        <ele>1596.5</ele>
        <time>2013-08-28T08:14:07Z</time>
      </trkpt>
      <trkpt lat="-21.18093" lon="55.55806">
        <ele>1596.5</ele>
        <time>2013-08-28T08:14:11Z</time>
      </trkpt>
      <trkpt lat="-21.181" lon="55.55809">
        <ele>1596.5</ele>
        <time>2013-08-28T08:14:14Z</time>
      </trkpt>
      <trkpt lat="-21.18108" lon="55.55811">
        <ele>1597.6</ele>
        <time>2013-08-28T08:14:18Z</time>
      </trkpt>
      <trkpt lat="-21.18117" lon="55.55814">
        <ele>1598</ele>
        <time>2013-08-28T08:14:22Z</time>
      </trkpt>
      <trkpt lat="-21.18125" lon="55.55817">
        <ele>1597.5</ele>
        <time>2013-08-28T08:14:26Z</time>
      </trkpt>
      <trkpt lat="-21.18132" lon="55.5582">
        <ele>1598.1</ele>
        <time>2013-08-28T08:14:29Z</time>
      </trkpt>
      <trkpt lat="-21.18139" lon="55.55823">
        <ele>1598.1</ele>
        <time>2013-08-28T08:14:33Z</time>
      </trkpt>
      <trkpt lat="-21.18147" lon="55.55826">
        <ele>1598.1</ele>
        <time>2013-08-28T08:14:37Z</time>
      </trkpt>
      <trkpt lat="-21.18154" lon="55.55829">
        <ele>1598.1</ele>
        <time>2013-08-28T08:14:41Z</time>
      </trkpt>
      <trkpt lat="-21.18162" lon="55.55832">
        <ele>1598.4</ele>
        <time>2013-08-28T08:14:45Z</time>
      </trkpt>
      <trkpt lat="-21.1817" lon="55.55835">
        <ele>1597.6</ele>
        <time>2013-08-28T08:14:49Z</time>
      </trkpt>
      <trkpt lat="-21.18179" lon="55.55839">
        <ele>1597.4</ele>
        <time>2013-08-28T08:14:53Z</time>
      </trkpt>
      <trkpt lat="-21.18186" lon="55.55842">
        <ele>1596.9</ele>
        <time>2013-08-28T08:14:57Z</time>
      </trkpt>
      <trkpt lat="-21.18194" lon="55.55844">
        <ele>1596</ele>
        <time>2013-08-28T08:15:02Z</time>
      </trkpt>
      <trkpt lat="-21.18195" lon="55.55844">
        <ele>1595.7</ele>
        <time>2013-08-28T08:15:03Z</time>
      </trkpt>
      <trkpt lat="-21.18208" lon="55.5584">
        <ele>1594.4</ele>
        <time>2013-08-28T08:15:09Z</time>
      </trkpt>
      <trkpt lat="-21.18215" lon="55.55835">
        <ele>1594.1</ele>
        <time>2013-08-28T08:15:13Z</time>
      </trkpt>
      <trkpt lat="-21.1822" lon="55.5583">
        <ele>1593.2</ele>
        <time>2013-08-28T08:15:16Z</time>
      </trkpt>
      <trkpt lat="-21.18226" lon="55.55826">
        <ele>1592.5</ele>
        <time>2013-08-28T08:15:19Z</time>
      </trkpt>
      <trkpt lat="-21.18232" lon="55.55821">
        <ele>1592</ele>
        <time>2013-08-28T08:15:22Z</time>
      </trkpt>
      <trkpt lat="-21.18238" lon="55.55815">
        <ele>1591.2</ele>
        <time>2013-08-28T08:15:25Z</time>
      </trkpt>
      <trkpt lat="-21.18245" lon="55.5581">
        <ele>1590.7</ele>
        <time>2013-08-28T08:15:28Z</time>
      </trkpt>
      <trkpt lat="-21.1825" lon="55.55805">
        <ele>1590.4</ele>
        <time>2013-08-28T08:15:31Z</time>
      </trkpt>
      <trkpt lat="-21.18256" lon="55.55801">
        <ele>1590.5</ele>
        <time>2013-08-28T08:15:34Z</time>
      </trkpt>
      <trkpt lat="-21.18261" lon="55.55797">
        <ele>1590.5</ele>
        <time>2013-08-28T08:15:37Z</time>
      </trkpt>
      <trkpt lat="-21.18268" lon="55.55791">
        <ele>1591.2</ele>
        <time>2013-08-28T08:15:41Z</time>
      </trkpt>
      <trkpt lat="-21.18275" lon="55.55785">
        <ele>1591.2</ele>
        <time>2013-08-28T08:15:45Z</time>
      </trkpt>
      <trkpt lat="-21.18281" lon="55.55781">
        <ele>1590.3</ele>
        <time>2013-08-28T08:15:48Z</time>
      </trkpt>
      <trkpt lat="-21.18287" lon="55.55776">
        <ele>1589.8</ele>
        <time>2013-08-28T08:15:51Z</time>
      </trkpt>
      <trkpt lat="-21.18293" lon="55.55771">
        <ele>1589.2</ele>
        <time>2013-08-28T08:15:54Z</time>
      </trkpt>
      <trkpt lat="-21.18298" lon="55.55766">
        <ele>1588.9</ele>
        <time>2013-08-28T08:15:57Z</time>
      </trkpt>
      <trkpt lat="-21.18304" lon="55.55761">
        <ele>1588.3</ele>
        <time>2013-08-28T08:16:00Z</time>
      </trkpt>
      <trkpt lat="-21.18309" lon="55.55756">
        <ele>1587.8</ele>
        <time>2013-08-28T08:16:03Z</time>
      </trkpt>
      <trkpt lat="-21.18311" lon="55.55754">
        <ele>1587.9</ele>
        <time>2013-08-28T08:16:04Z</time>
      </trkpt>
      <trkpt lat="-21.1832" lon="55.55747">
        <ele>1588</ele>
        <time>2013-08-28T08:16:09Z</time>
      </trkpt>
      <trkpt lat="-21.18326" lon="55.55741">
        <ele>1588.2</ele>
        <time>2013-08-28T08:16:12Z</time>
      </trkpt>
      <trkpt lat="-21.18332" lon="55.55735">
        <ele>1587.9</ele>
        <time>2013-08-28T08:16:16Z</time>
      </trkpt>
      <trkpt lat="-21.18338" lon="55.55731">
        <ele>1587.7</ele>
        <time>2013-08-28T08:16:19Z</time>
      </trkpt>
      <trkpt lat="-21.18344" lon="55.55726">
        <ele>1587.3</ele>
        <time>2013-08-28T08:16:22Z</time>
      </trkpt>
      <trkpt lat="-21.1835" lon="55.55721">
        <ele>1586.9</ele>
        <time>2013-08-28T08:16:25Z</time>
      </trkpt>
      <trkpt lat="-21.18356" lon="55.55715">
        <ele>1586.7</ele>
        <time>2013-08-28T08:16:28Z</time>
      </trkpt>
      <trkpt lat="-21.18363" lon="55.5571">
        <ele>1586.4</ele>
        <time>2013-08-28T08:16:31Z</time>
      </trkpt>
      <trkpt lat="-21.18369" lon="55.55705">
        <ele>1585.2</ele>
        <time>2013-08-28T08:16:34Z</time>
      </trkpt>
      <trkpt lat="-21.18376" lon="55.557">
        <ele>1585.8</ele>
        <time>2013-08-28T08:16:38Z</time>
      </trkpt>
      <trkpt lat="-21.18382" lon="55.55693">
        <ele>1585.4</ele>
        <time>2013-08-28T08:16:43Z</time>
      </trkpt>
      <trkpt lat="-21.18387" lon="55.55688">
        <ele>1585.3</ele>
        <time>2013-08-28T08:16:47Z</time>
      </trkpt>
      <trkpt lat="-21.18393" lon="55.55683">
        <ele>1584.7</ele>
        <time>2013-08-28T08:16:51Z</time>
      </trkpt>
      <trkpt lat="-21.18398" lon="55.55678">
        <ele>1584.5</ele>
        <time>2013-08-28T08:16:55Z</time>
      </trkpt>
      <trkpt lat="-21.18403" lon="55.55673">
        <ele>1585.3</ele>
        <time>2013-08-28T08:16:58Z</time>
      </trkpt>
      <trkpt lat="-21.18409" lon="55.55667">
        <ele>1583.6</ele>
        <time>2013-08-28T08:17:02Z</time>
      </trkpt>
      <trkpt lat="-21.18415" lon="55.5566">
        <ele>1582.9</ele>
        <time>2013-08-28T08:17:06Z</time>
      </trkpt>
      <trkpt lat="-21.18417" lon="55.55659">
        <ele>1582.9</ele>
        <time>2013-08-28T08:17:07Z</time>
      </trkpt>
      <trkpt lat="-21.18425" lon="55.55651">
        <ele>1581.6</ele>
        <time>2013-08-28T08:17:12Z</time>
      </trkpt>
      <trkpt lat="-21.18431" lon="55.55645">
        <ele>1580.8</ele>
        <time>2013-08-28T08:17:15Z</time>
      </trkpt>
      <trkpt lat="-21.18438" lon="55.55639">
        <ele>1580.7</ele>
        <time>2013-08-28T08:17:18Z</time>
      </trkpt>
      <trkpt lat="-21.18444" lon="55.55633">
        <ele>1580.3</ele>
        <time>2013-08-28T08:17:21Z</time>
      </trkpt>
      <trkpt lat="-21.1845" lon="55.55627">
        <ele>1580.6</ele>
        <time>2013-08-28T08:17:24Z</time>
      </trkpt>
      <trkpt lat="-21.18456" lon="55.55621">
        <ele>1579.9</ele>
        <time>2013-08-28T08:17:27Z</time>
      </trkpt>
      <trkpt lat="-21.18462" lon="55.55615">
        <ele>1579.4</ele>
        <time>2013-08-28T08:17:30Z</time>
      </trkpt>
      <trkpt lat="-21.18468" lon="55.5561">
        <ele>1578.5</ele>
        <time>2013-08-28T08:17:33Z</time>
      </trkpt>
      <trkpt lat="-21.18473" lon="55.55604">
        <ele>1577.5</ele>
        <time>2013-08-28T08:17:36Z</time>
      </trkpt>
      <trkpt lat="-21.18478" lon="55.55598">
        <ele>1576.1</ele>
        <time>2013-08-28T08:17:39Z</time>
      </trkpt>
      <trkpt lat="-21.18484" lon="55.55593">
        <ele>1576.7</ele>
        <time>2013-08-28T08:17:42Z</time>
      </trkpt>
      <trkpt lat="-21.18491" lon="55.55587">
        <ele>1576.6</ele>
        <time>2013-08-28T08:17:45Z</time>
      </trkpt>
      <trkpt lat="-21.18496" lon="55.55581">
        <ele>1575.7</ele>
        <time>2013-08-28T08:17:48Z</time>
      </trkpt>
      <trkpt lat="-21.18501" lon="55.55575">
        <ele>1575.1</ele>
        <time>2013-08-28T08:17:51Z</time>
      </trkpt>
      <trkpt lat="-21.18507" lon="55.55569">
        <ele>1574.2</ele>
        <time>2013-08-28T08:17:55Z</time>
      </trkpt>
      <trkpt lat="-21.18513" lon="55.55563">
        <ele>1573.9</ele>
        <time>2013-08-28T08:17:58Z</time>
      </trkpt>
      <trkpt lat="-21.18518" lon="55.55558">
        <ele>1573.6</ele>
        <time>2013-08-28T08:18:01Z</time>
      </trkpt>
      <trkpt lat="-21.18524" lon="55.55551">
        <ele>1573.8</ele>
        <time>2013-08-28T08:18:05Z</time>
      </trkpt>
      <trkpt lat="-21.1853" lon="55.55545">
        <ele>1573.3</ele>
        <time>2013-08-28T08:18:09Z</time>
      </trkpt>
      <trkpt lat="-21.18531" lon="55.55544">
        <ele>1573.1</ele>
        <time>2013-08-28T08:18:10Z</time>
      </trkpt>
      <trkpt lat="-21.18539" lon="55.55535">
        <ele>1572.5</ele>
        <time>2013-08-28T08:18:15Z</time>
      </trkpt>
      <trkpt lat="-21.18545" lon="55.55529">
        <ele>1572</ele>
        <time>2013-08-28T08:18:18Z</time>
      </trkpt>
      <trkpt lat="-21.1855" lon="55.55523">
        <ele>1571.5</ele>
        <time>2013-08-28T08:18:21Z</time>
      </trkpt>
      <trkpt lat="-21.18556" lon="55.55517">
        <ele>1571</ele>
        <time>2013-08-28T08:18:24Z</time>
      </trkpt>
      <trkpt lat="-21.18561" lon="55.55512">
        <ele>1570.9</ele>
        <time>2013-08-28T08:18:27Z</time>
      </trkpt>
      <trkpt lat="-21.18566" lon="55.55506">
        <ele>1569.6</ele>
        <time>2013-08-28T08:18:30Z</time>
      </trkpt>
      <trkpt lat="-21.18571" lon="55.555">
        <ele>1569.5</ele>
        <time>2013-08-28T08:18:33Z</time>
      </trkpt>
      <trkpt lat="-21.18577" lon="55.55494">
        <ele>1569.3</ele>
        <time>2013-08-28T08:18:36Z</time>
      </trkpt>
      <trkpt lat="-21.18582" lon="55.55489">
        <ele>1569.7</ele>
        <time>2013-08-28T08:18:39Z</time>
      </trkpt>
      <trkpt lat="-21.18587" lon="55.55483">
        <ele>1570.2</ele>
        <time>2013-08-28T08:18:42Z</time>
      </trkpt>
      <trkpt lat="-21.18592" lon="55.55478">
        <ele>1569</ele>
        <time>2013-08-28T08:18:45Z</time>
      </trkpt>
      <trkpt lat="-21.18598" lon="55.55472">
        <ele>1568.1</ele>
        <time>2013-08-28T08:18:48Z</time>
      </trkpt>
      <trkpt lat="-21.18603" lon="55.55466">
        <ele>1567.7</ele>
        <time>2013-08-28T08:18:51Z</time>
      </trkpt>
      <trkpt lat="-21.18608" lon="55.55461">
        <ele>1567.6</ele>
        <time>2013-08-28T08:18:54Z</time>
      </trkpt>
      <trkpt lat="-21.18612" lon="55.55456">
        <ele>1567.1</ele>
        <time>2013-08-28T08:18:57Z</time>
      </trkpt>
      <trkpt lat="-21.18618" lon="55.55449">
        <ele>1565.9</ele>
        <time>2013-08-28T08:19:01Z</time>
      </trkpt>
      <trkpt lat="-21.18624" lon="55.55443">
        <ele>1565.7</ele>
        <time>2013-08-28T08:19:05Z</time>
      </trkpt>
      <trkpt lat="-21.18629" lon="55.55436">
        <ele>1565.5</ele>
        <time>2013-08-28T08:19:09Z</time>
      </trkpt>
      <trkpt lat="-21.18634" lon="55.55429">
        <ele>1565.2</ele>
        <time>2013-08-28T08:19:13Z</time>
      </trkpt>
      <trkpt lat="-21.18636" lon="55.55428">
        <ele>1564.9</ele>
        <time>2013-08-28T08:19:14Z</time>
      </trkpt>
      <trkpt lat="-21.18646" lon="55.55417">
        <ele>1564</ele>
        <time>2013-08-28T08:19:21Z</time>
      </trkpt>
      <trkpt lat="-21.18652" lon="55.55411">
        <ele>1564.2</ele>
        <time>2013-08-28T08:19:25Z</time>
      </trkpt>
      <trkpt lat="-21.18657" lon="55.55406">
        <ele>1563.6</ele>
        <time>2013-08-28T08:19:28Z</time>
      </trkpt>
      <trkpt lat="-21.18662" lon="55.55401">
        <ele>1562.6</ele>
        <time>2013-08-28T08:19:31Z</time>
      </trkpt>
      <trkpt lat="-21.18668" lon="55.55395">
        <ele>1561.5</ele>
        <time>2013-08-28T08:19:35Z</time>
      </trkpt>
      <trkpt lat="-21.18673" lon="55.5539">
        <ele>1562</ele>
        <time>2013-08-28T08:19:38Z</time>
      </trkpt>
      <trkpt lat="-21.18679" lon="55.55385">
        <ele>1561.4</ele>
        <time>2013-08-28T08:19:41Z</time>
      </trkpt>
      <trkpt lat="-21.18686" lon="55.55379">
        <ele>1560.5</ele>
        <time>2013-08-28T08:19:45Z</time>
      </trkpt>
      <trkpt lat="-21.18693" lon="55.55373">
        <ele>1558.8</ele>
        <time>2013-08-28T08:19:49Z</time>
      </trkpt>
      <trkpt lat="-21.187" lon="55.55368">
        <ele>1558.2</ele>
        <time>2013-08-28T08:19:53Z</time>
      </trkpt>
      <trkpt lat="-21.18707" lon="55.55363">
        <ele>1557.2</ele>
        <time>2013-08-28T08:19:56Z</time>
      </trkpt>
      <trkpt lat="-21.18713" lon="55.55358">
        <ele>1556.5</ele>
        <time>2013-08-28T08:19:59Z</time>
      </trkpt>
      <trkpt lat="-21.1872" lon="55.55354">
        <ele>1556.3</ele>
        <time>2013-08-28T08:20:02Z</time>
      </trkpt>
      <trkpt lat="-21.18726" lon="55.55349">
        <ele>1555.3</ele>
        <time>2013-08-28T08:20:05Z</time>
      </trkpt>
      <trkpt lat="-21.18733" lon="55.55344">
        <ele>1554.8</ele>
        <time>2013-08-28T08:20:08Z</time>
      </trkpt>
      <trkpt lat="-21.18739" lon="55.55339">
        <ele>1554.1</ele>
        <time>2013-08-28T08:20:11Z</time>
      </trkpt>
      <trkpt lat="-21.18746" lon="55.55333">
        <ele>1552.6</ele>
        <time>2013-08-28T08:20:15Z</time>
      </trkpt>
      <trkpt lat="-21.18747" lon="55.55332">
        <ele>1552.5</ele>
        <time>2013-08-28T08:20:16Z</time>
      </trkpt>
      <trkpt lat="-21.1876" lon="55.55323">
        <ele>1550.4</ele>
        <time>2013-08-28T08:20:23Z</time>
      </trkpt>
      <trkpt lat="-21.18766" lon="55.55319">
        <ele>1550.1</ele>
        <time>2013-08-28T08:20:26Z</time>
      </trkpt>
      <trkpt lat="-21.18773" lon="55.55315">
        <ele>1549.6</ele>
        <time>2013-08-28T08:20:30Z</time>
      </trkpt>
      <trkpt lat="-21.18781" lon="55.55311">
        <ele>1547.8</ele>
        <time>2013-08-28T08:20:34Z</time>
      </trkpt>
      <trkpt lat="-21.18787" lon="55.55307">
        <ele>1546.6</ele>
        <time>2013-08-28T08:20:37Z</time>
      </trkpt>
      <trkpt lat="-21.18795" lon="55.55304">
        <ele>1544.9</ele>
        <time>2013-08-28T08:20:41Z</time>
      </trkpt>
      <trkpt lat="-21.18802" lon="55.55301">
        <ele>1544</ele>
        <time>2013-08-28T08:20:44Z</time>
      </trkpt>
      <trkpt lat="-21.18809" lon="55.55296">
        <ele>1542</ele>
        <time>2013-08-28T08:20:48Z</time>
      </trkpt>
      <trkpt lat="-21.18817" lon="55.55291">
        <ele>1541.7</ele>
        <time>2013-08-28T08:20:52Z</time>
      </trkpt>
      <trkpt lat="-21.18823" lon="55.55286">
        <ele>1540.1</ele>
        <time>2013-08-28T08:20:56Z</time>
      </trkpt>
      <trkpt lat="-21.18829" lon="55.55279">
        <ele>1539.2</ele>
        <time>2013-08-28T08:21:00Z</time>
      </trkpt>
      <trkpt lat="-21.18834" lon="55.55273">
        <ele>1538.4</ele>
        <time>2013-08-28T08:21:03Z</time>
      </trkpt>
      <trkpt lat="-21.18838" lon="55.55266">
        <ele>1537.4</ele>
        <time>2013-08-28T08:21:06Z</time>
      </trkpt>
      <trkpt lat="-21.18842" lon="55.55259">
        <ele>1536.1</ele>
        <time>2013-08-28T08:21:09Z</time>
      </trkpt>
      <trkpt lat="-21.18845" lon="55.55252">
        <ele>1534.9</ele>
        <time>2013-08-28T08:21:12Z</time>
      </trkpt>
      <trkpt lat="-21.18849" lon="55.55245">
        <ele>1535</ele>
        <time>2013-08-28T08:21:15Z</time>
      </trkpt>
      <trkpt lat="-21.18851" lon="55.55238">
        <ele>1534.7</ele>
        <time>2013-08-28T08:21:18Z</time>
      </trkpt>
      <trkpt lat="-21.18852" lon="55.55236">
        <ele>1534.5</ele>
        <time>2013-08-28T08:21:19Z</time>
      </trkpt>
      <trkpt lat="-21.18858" lon="55.55223">
        <ele>1532.7</ele>
        <time>2013-08-28T08:21:25Z</time>
      </trkpt>
      <trkpt lat="-21.18861" lon="55.55214">
        <ele>1531.7</ele>
        <time>2013-08-28T08:21:30Z</time>
      </trkpt>
      <trkpt lat="-21.18864" lon="55.55205">
        <ele>1530.6</ele>
        <time>2013-08-28T08:21:35Z</time>
      </trkpt>
      <trkpt lat="-21.18868" lon="55.55197">
        <ele>1528.2</ele>
        <time>2013-08-28T08:21:40Z</time>
      </trkpt>
      <trkpt lat="-21.18872" lon="55.55189">
        <ele>1527.1</ele>
        <time>2013-08-28T08:21:44Z</time>
      </trkpt>
      <trkpt lat="-21.18876" lon="55.5518">
        <ele>1526.7</ele>
        <time>2013-08-28T08:21:48Z</time>
      </trkpt>
      <trkpt lat="-21.18879" lon="55.55174">
        <ele>1525.9</ele>
        <time>2013-08-28T08:21:51Z</time>
      </trkpt>
      <trkpt lat="-21.18883" lon="55.55167">
        <ele>1524.4</ele>
        <time>2013-08-28T08:21:54Z</time>
      </trkpt>
      <trkpt lat="-21.18886" lon="55.5516">
        <ele>1524.2</ele>
        <time>2013-08-28T08:21:57Z</time>
      </trkpt>
      <trkpt lat="-21.18889" lon="55.55153">
        <ele>1524</ele>
        <time>2013-08-28T08:22:00Z</time>
      </trkpt>
      <trkpt lat="-21.18894" lon="55.55146">
        <ele>1524.4</ele>
        <time>2013-08-28T08:22:03Z</time>
      </trkpt>
      <trkpt lat="-21.18897" lon="55.55139">
        <ele>1523.7</ele>
        <time>2013-08-28T08:22:06Z</time>
      </trkpt>
      <trkpt lat="-21.18899" lon="55.55132">
        <ele>1522.5</ele>
        <time>2013-08-28T08:22:09Z</time>
      </trkpt>
      <trkpt lat="-21.18903" lon="55.55123">
        <ele>1521.4</ele>
        <time>2013-08-28T08:22:13Z</time>
      </trkpt>
      <trkpt lat="-21.18906" lon="55.55116">
        <ele>1520.7</ele>
        <time>2013-08-28T08:22:16Z</time>
      </trkpt>
      <trkpt lat="-21.18909" lon="55.5511">
        <ele>1519.9</ele>
        <time>2013-08-28T08:22:19Z</time>
      </trkpt>
      <trkpt lat="-21.1891" lon="55.55107">
        <ele>1519.9</ele>
        <time>2013-08-28T08:22:20Z</time>
      </trkpt>
      <trkpt lat="-21.18916" lon="55.55096">
        <ele>1519.5</ele>
        <time>2013-08-28T08:22:25Z</time>
      </trkpt>
      <trkpt lat="-21.18919" lon="55.55089">
        <ele>1518.7</ele>
        <time>2013-08-28T08:22:28Z</time>
      </trkpt>
      <trkpt lat="-21.18923" lon="55.55081">
        <ele>1517.9</ele>
        <time>2013-08-28T08:22:31Z</time>
      </trkpt>
      <trkpt lat="-21.18926" lon="55.55074">
        <ele>1517.4</ele>
        <time>2013-08-28T08:22:34Z</time>
      </trkpt>
      <trkpt lat="-21.1893" lon="55.55067">
        <ele>1517.3</ele>
        <time>2013-08-28T08:22:37Z</time>
      </trkpt>
      <trkpt lat="-21.18933" lon="55.55059">
        <ele>1517</ele>
        <time>2013-08-28T08:22:41Z</time>
      </trkpt>
      <trkpt lat="-21.18937" lon="55.55051">
        <ele>1516.5</ele>
        <time>2013-08-28T08:22:45Z</time>
      </trkpt>
      <trkpt lat="-21.1894" lon="55.55044">
        <ele>1516.4</ele>
        <time>2013-08-28T08:22:49Z</time>
      </trkpt>
      <trkpt lat="-21.18944" lon="55.55036">
        <ele>1515.1</ele>
        <time>2013-08-28T08:22:54Z</time>
      </trkpt>
      <trkpt lat="-21.18948" lon="55.55029">
        <ele>1514.8</ele>
        <time>2013-08-28T08:22:58Z</time>
      </trkpt>
      <trkpt lat="-21.18953" lon="55.55022">
        <ele>1514.5</ele>
        <time>2013-08-28T08:23:01Z</time>
      </trkpt>
      <trkpt lat="-21.18959" lon="55.55015">
        <ele>1514.4</ele>
        <time>2013-08-28T08:23:04Z</time>
      </trkpt>
      <trkpt lat="-21.18965" lon="55.55009">
        <ele>1514.1</ele>
        <time>2013-08-28T08:23:07Z</time>
      </trkpt>
      <trkpt lat="-21.18971" lon="55.55002">
        <ele>1514</ele>
        <time>2013-08-28T08:23:10Z</time>
      </trkpt>
      <trkpt lat="-21.18976" lon="55.54996">
        <ele>1513</ele>
        <time>2013-08-28T08:23:13Z</time>
      </trkpt>
      <trkpt lat="-21.18982" lon="55.5499">
        <ele>1512.5</ele>
        <time>2013-08-28T08:23:16Z</time>
      </trkpt>
      <trkpt lat="-21.18988" lon="55.54984">
        <ele>1512.5</ele>
        <time>2013-08-28T08:23:19Z</time>
      </trkpt>
      <trkpt lat="-21.18993" lon="55.54977">
        <ele>1512.1</ele>
        <time>2013-08-28T08:23:23Z</time>
      </trkpt>
      <trkpt lat="-21.18994" lon="55.54976">
        <ele>1511.8</ele>
        <time>2013-08-28T08:23:24Z</time>
      </trkpt>
      <trkpt lat="-21.19003" lon="55.54964">
        <ele>1511.5</ele>
        <time>2013-08-28T08:23:32Z</time>
      </trkpt>
      <trkpt lat="-21.19007" lon="55.54958">
        <ele>1511.5</ele>
        <time>2013-08-28T08:23:35Z</time>
      </trkpt>
      <trkpt lat="-21.19011" lon="55.54952">
        <ele>1510.9</ele>
        <time>2013-08-28T08:23:38Z</time>
      </trkpt>
      <trkpt lat="-21.19015" lon="55.54945">
        <ele>1510.2</ele>
        <time>2013-08-28T08:23:42Z</time>
      </trkpt>
      <trkpt lat="-21.19018" lon="55.54938">
        <ele>1508.1</ele>
        <time>2013-08-28T08:23:46Z</time>
      </trkpt>
      <trkpt lat="-21.19022" lon="55.54931">
        <ele>1508.5</ele>
        <time>2013-08-28T08:23:49Z</time>
      </trkpt>
      <trkpt lat="-21.19025" lon="55.54924">
        <ele>1508.2</ele>
        <time>2013-08-28T08:23:52Z</time>
      </trkpt>
      <trkpt lat="-21.19029" lon="55.54918">
        <ele>1507.9</ele>
        <time>2013-08-28T08:23:55Z</time>
      </trkpt>
      <trkpt lat="-21.19033" lon="55.54911">
        <ele>1507.8</ele>
        <time>2013-08-28T08:23:58Z</time>
      </trkpt>
      <trkpt lat="-21.19036" lon="55.54904">
        <ele>1506.6</ele>
        <time>2013-08-28T08:24:01Z</time>
      </trkpt>
      <trkpt lat="-21.1904" lon="55.54897">
        <ele>1505.6</ele>
        <time>2013-08-28T08:24:04Z</time>
      </trkpt>
      <trkpt lat="-21.19044" lon="55.5489">
        <ele>1504.6</ele>
        <time>2013-08-28T08:24:07Z</time>
      </trkpt>
      <trkpt lat="-21.19047" lon="55.54884">
        <ele>1504.6</ele>
        <time>2013-08-28T08:24:10Z</time>
      </trkpt>
      <trkpt lat="-21.19051" lon="55.54877">
        <ele>1504.4</ele>
        <time>2013-08-28T08:24:13Z</time>
      </trkpt>
      <trkpt lat="-21.19054" lon="55.54871">
        <ele>1503</ele>
        <time>2013-08-28T08:24:16Z</time>
      </trkpt>
      <trkpt lat="-21.19058" lon="55.54865">
        <ele>1502.1</ele>
        <time>2013-08-28T08:24:19Z</time>
      </trkpt>
      <trkpt lat="-21.19062" lon="55.54856">
        <ele>1501.8</ele>
        <time>2013-08-28T08:24:23Z</time>
      </trkpt>
      <trkpt lat="-21.19065" lon="55.54847">
        <ele>1500.6</ele>
        <time>2013-08-28T08:24:28Z</time>
      </trkpt>
      <trkpt lat="-21.19066" lon="55.54845">
        <ele>1500.1</ele>
        <time>2013-08-28T08:24:29Z</time>
      </trkpt>
      <trkpt lat="-21.19071" lon="55.54832">
        <ele>1498.1</ele>
        <time>2013-08-28T08:24:36Z</time>
      </trkpt>
      <trkpt lat="-21.19075" lon="55.54826">
        <ele>1496.9</ele>
        <time>2013-08-28T08:24:39Z</time>
      </trkpt>
      <trkpt lat="-21.19078" lon="55.54817">
        <ele>1495.1</ele>
        <time>2013-08-28T08:24:43Z</time>
      </trkpt>
      <trkpt lat="-21.1908" lon="55.5481">
        <ele>1493.9</ele>
        <time>2013-08-28T08:24:46Z</time>
      </trkpt>
      <trkpt lat="-21.19083" lon="55.54803">
        <ele>1493.2</ele>
        <time>2013-08-28T08:24:49Z</time>
      </trkpt>
      <trkpt lat="-21.19084" lon="55.54796">
        <ele>1491.7</ele>
        <time>2013-08-28T08:24:52Z</time>
      </trkpt>
      <trkpt lat="-21.19086" lon="55.54789">
        <ele>1492</ele>
        <time>2013-08-28T08:24:55Z</time>
      </trkpt>
      <trkpt lat="-21.19089" lon="55.5478">
        <ele>1491.6</ele>
        <time>2013-08-28T08:24:59Z</time>
      </trkpt>
      <trkpt lat="-21.19092" lon="55.54773">
        <ele>1491</ele>
        <time>2013-08-28T08:25:02Z</time>
      </trkpt>
      <trkpt lat="-21.19094" lon="55.54766">
        <ele>1490.3</ele>
        <time>2013-08-28T08:25:05Z</time>
      </trkpt>
      <trkpt lat="-21.19097" lon="55.54759">
        <ele>1489.4</ele>
        <time>2013-08-28T08:25:08Z</time>
      </trkpt>
      <trkpt lat="-21.19099" lon="55.54752">
        <ele>1489.2</ele>
        <time>2013-08-28T08:25:11Z</time>
      </trkpt>
      <trkpt lat="-21.19102" lon="55.54745">
        <ele>1489.1</ele>
        <time>2013-08-28T08:25:14Z</time>
      </trkpt>
      <trkpt lat="-21.19105" lon="55.54739">
        <ele>1488.6</ele>
        <time>2013-08-28T08:25:17Z</time>
      </trkpt>
      <trkpt lat="-21.19109" lon="55.54731">
        <ele>1488.6</ele>
        <time>2013-08-28T08:25:20Z</time>
      </trkpt>
      <trkpt lat="-21.19112" lon="55.54722">
        <ele>1488.4</ele>
        <time>2013-08-28T08:25:24Z</time>
      </trkpt>
      <trkpt lat="-21.19115" lon="55.54715">
        <ele>1487.9</ele>
        <time>2013-08-28T08:25:27Z</time>
      </trkpt>
      <trkpt lat="-21.19118" lon="55.54709">
        <ele>1487.8</ele>
        <time>2013-08-28T08:25:30Z</time>
      </trkpt>
      <trkpt lat="-21.19119" lon="55.54707">
        <ele>1487.8</ele>
        <time>2013-08-28T08:25:31Z</time>
      </trkpt>
      <trkpt lat="-21.19125" lon="55.54695">
        <ele>1487.2</ele>
        <time>2013-08-28T08:25:36Z</time>
      </trkpt>
      <trkpt lat="-21.19128" lon="55.54689">
        <ele>1486.7</ele>
        <time>2013-08-28T08:25:39Z</time>
      </trkpt>
      <trkpt lat="-21.1913" lon="55.54682">
        <ele>1487.1</ele>
        <time>2013-08-28T08:25:42Z</time>
      </trkpt>
      <trkpt lat="-21.19134" lon="55.54674">
        <ele>1486.5</ele>
        <time>2013-08-28T08:25:46Z</time>
      </trkpt>
      <trkpt lat="-21.19136" lon="55.54665">
        <ele>1485.5</ele>
        <time>2013-08-28T08:25:50Z</time>
      </trkpt>
      <trkpt lat="-21.19139" lon="55.54656">
        <ele>1484.8</ele>
        <time>2013-08-28T08:25:54Z</time>
      </trkpt>
      <trkpt lat="-21.19141" lon="55.54647">
        <ele>1485.3</ele>
        <time>2013-08-28T08:25:58Z</time>
      </trkpt>
      <trkpt lat="-21.19144" lon="55.54639">
        <ele>1484.4</ele>
        <time>2013-08-28T08:26:01Z</time>
      </trkpt>
      <trkpt lat="-21.19146" lon="55.54632">
        <ele>1483.4</ele>
        <time>2013-08-28T08:26:04Z</time>
      </trkpt>
      <trkpt lat="-21.19148" lon="55.54623">
        <ele>1481.7</ele>
        <time>2013-08-28T08:26:08Z</time>
      </trkpt>
      <trkpt lat="-21.19151" lon="55.54615">
        <ele>1481.1</ele>
        <time>2013-08-28T08:26:12Z</time>
      </trkpt>
      <trkpt lat="-21.19155" lon="55.54607">
        <ele>1480.2</ele>
        <time>2013-08-28T08:26:16Z</time>
      </trkpt>
      <trkpt lat="-21.19158" lon="55.546">
        <ele>1479.5</ele>
        <time>2013-08-28T08:26:19Z</time>
      </trkpt>
      <trkpt lat="-21.1916" lon="55.54592">
        <ele>1479.1</ele>
        <time>2013-08-28T08:26:22Z</time>
      </trkpt>
      <trkpt lat="-21.19162" lon="55.54585">
        <ele>1477.2</ele>
        <time>2013-08-28T08:26:25Z</time>
      </trkpt>
      <trkpt lat="-21.19163" lon="55.54578">
        <ele>1476.2</ele>
        <time>2013-08-28T08:26:28Z</time>
      </trkpt>
      <trkpt lat="-21.19164" lon="55.54571">
        <ele>1476.3</ele>
        <time>2013-08-28T08:26:31Z</time>
      </trkpt>
      <trkpt lat="-21.19165" lon="55.54568">
        <ele>1476.3</ele>
        <time>2013-08-28T08:26:32Z</time>
      </trkpt>
      <trkpt lat="-21.19168" lon="55.54554">
        <ele>1474</ele>
        <time>2013-08-28T08:26:38Z</time>
      </trkpt>
      <trkpt lat="-21.19169" lon="55.54547">
        <ele>1473.2</ele>
        <time>2013-08-28T08:26:41Z</time>
      </trkpt>
      <trkpt lat="-21.19171" lon="55.5454">
        <ele>1472.6</ele>
        <time>2013-08-28T08:26:44Z</time>
      </trkpt>
      <trkpt lat="-21.19174" lon="55.54531">
        <ele>1470.9</ele>
        <time>2013-08-28T08:26:48Z</time>
      </trkpt>
      <trkpt lat="-21.19175" lon="55.54522">
        <ele>1470.2</ele>
        <time>2013-08-28T08:26:52Z</time>
      </trkpt>
      <trkpt lat="-21.19177" lon="55.54514">
        <ele>1469.1</ele>
        <time>2013-08-28T08:26:55Z</time>
      </trkpt>
      <trkpt lat="-21.19178" lon="55.54505">
        <ele>1468.2</ele>
        <time>2013-08-28T08:26:59Z</time>
      </trkpt>
      <trkpt lat="-21.19178" lon="55.54496">
        <ele>1466.4</ele>
        <time>2013-08-28T08:27:03Z</time>
      </trkpt>
      <trkpt lat="-21.19179" lon="55.54488">
        <ele>1465.8</ele>
        <time>2013-08-28T08:27:06Z</time>
      </trkpt>
      <trkpt lat="-21.1918" lon="55.54481">
        <ele>1465.7</ele>
        <time>2013-08-28T08:27:09Z</time>
      </trkpt>
      <trkpt lat="-21.19182" lon="55.54473">
        <ele>1465.4</ele>
        <time>2013-08-28T08:27:12Z</time>
      </trkpt>
      <trkpt lat="-21.19184" lon="55.54466">
        <ele>1464.2</ele>
        <time>2013-08-28T08:27:15Z</time>
      </trkpt>
      <trkpt lat="-21.19186" lon="55.54458">
        <ele>1464.3</ele>
        <time>2013-08-28T08:27:18Z</time>
      </trkpt>
      <trkpt lat="-21.19187" lon="55.54451">
        <ele>1463.7</ele>
        <time>2013-08-28T08:27:21Z</time>
      </trkpt>
      <trkpt lat="-21.1919" lon="55.54443">
        <ele>1463.6</ele>
        <time>2013-08-28T08:27:24Z</time>
      </trkpt>
      <trkpt lat="-21.19192" lon="55.54436">
        <ele>1463.7</ele>
        <time>2013-08-28T08:27:27Z</time>
      </trkpt>
      <trkpt lat="-21.19194" lon="55.54427">
        <ele>1462.7</ele>
        <time>2013-08-28T08:27:31Z</time>
      </trkpt>
      <trkpt lat="-21.19194" lon="55.54419">
        <ele>1461.7</ele>
        <time>2013-08-28T08:27:34Z</time>
      </trkpt>
      <trkpt lat="-21.19195" lon="55.54417">
        <ele>1461.5</ele>
        <time>2013-08-28T08:27:35Z</time>
      </trkpt>
      <trkpt lat="-21.19197" lon="55.544">
        <ele>1460.3</ele>
        <time>2013-08-28T08:27:42Z</time>
      </trkpt>
      <trkpt lat="-21.19199" lon="55.54393">
        <ele>1460.2</ele>
        <time>2013-08-28T08:27:45Z</time>
      </trkpt>
      <trkpt lat="-21.192" lon="55.54385">
        <ele>1460.3</ele>
        <time>2013-08-28T08:27:48Z</time>
      </trkpt>
      <trkpt lat="-21.192" lon="55.54378">
        <ele>1459.5</ele>
        <time>2013-08-28T08:27:51Z</time>
      </trkpt>
      <trkpt lat="-21.19201" lon="55.5437">
        <ele>1459.2</ele>
        <time>2013-08-28T08:27:54Z</time>
      </trkpt>
      <trkpt lat="-21.19202" lon="55.54362">
        <ele>1459.4</ele>
        <time>2013-08-28T08:27:57Z</time>
      </trkpt>
      <trkpt lat="-21.19203" lon="55.54354">
        <ele>1458</ele>
        <time>2013-08-28T08:28:00Z</time>
      </trkpt>
      <trkpt lat="-21.19205" lon="55.54346">
        <ele>1457.2</ele>
        <time>2013-08-28T08:28:03Z</time>
      </trkpt>
      <trkpt lat="-21.19206" lon="55.54338">
        <ele>1456.9</ele>
        <time>2013-08-28T08:28:06Z</time>
      </trkpt>
      <trkpt lat="-21.19207" lon="55.54331">
        <ele>1456.5</ele>
        <time>2013-08-28T08:28:09Z</time>
      </trkpt>
      <trkpt lat="-21.19208" lon="55.54321">
        <ele>1455.1</ele>
        <time>2013-08-28T08:28:13Z</time>
      </trkpt>
      <trkpt lat="-21.19208" lon="55.54314">
        <ele>1454.7</ele>
        <time>2013-08-28T08:28:16Z</time>
      </trkpt>
      <trkpt lat="-21.19208" lon="55.54306">
        <ele>1453.4</ele>
        <time>2013-08-28T08:28:19Z</time>
      </trkpt>
      <trkpt lat="-21.19209" lon="55.54297">
        <ele>1453</ele>
        <time>2013-08-28T08:28:23Z</time>
      </trkpt>
      <trkpt lat="-21.1921" lon="55.54289">
        <ele>1452.5</ele>
        <time>2013-08-28T08:28:26Z</time>
      </trkpt>
      <trkpt lat="-21.19208" lon="55.54281">
        <ele>1452.3</ele>
        <time>2013-08-28T08:28:29Z</time>
      </trkpt>
      <trkpt lat="-21.19208" lon="55.54273">
        <ele>1452.4</ele>
        <time>2013-08-28T08:28:32Z</time>
      </trkpt>
      <trkpt lat="-21.19207" lon="55.54265">
        <ele>1452</ele>
        <time>2013-08-28T08:28:35Z</time>
      </trkpt>
      <trkpt lat="-21.19206" lon="55.54262">
        <ele>1451.8</ele>
        <time>2013-08-28T08:28:36Z</time>
      </trkpt>
      <trkpt lat="-21.19202" lon="55.5425">
        <ele>1451.3</ele>
        <time>2013-08-28T08:28:41Z</time>
      </trkpt>
      <trkpt lat="-21.192" lon="55.54242">
        <ele>1450.2</ele>
        <time>2013-08-28T08:28:44Z</time>
      </trkpt>
      <trkpt lat="-21.19199" lon="55.54234">
        <ele>1449.4</ele>
        <time>2013-08-28T08:28:47Z</time>
      </trkpt>
      <trkpt lat="-21.192" lon="55.54226">
        <ele>1448.3</ele>
        <time>2013-08-28T08:28:50Z</time>
      </trkpt>
      <trkpt lat="-21.19201" lon="55.54218">
        <ele>1448</ele>
        <time>2013-08-28T08:28:53Z</time>
      </trkpt>
      <trkpt lat="-21.19202" lon="55.54209">
        <ele>1447.2</ele>
        <time>2013-08-28T08:28:56Z</time>
      </trkpt>
      <trkpt lat="-21.19203" lon="55.54201">
        <ele>1446.4</ele>
        <time>2013-08-28T08:28:59Z</time>
      </trkpt>
      <trkpt lat="-21.19204" lon="55.54192">
        <ele>1446.2</ele>
        <time>2013-08-28T08:29:02Z</time>
      </trkpt>
      <trkpt lat="-21.19205" lon="55.54184">
        <ele>1445.8</ele>
        <time>2013-08-28T08:29:05Z</time>
      </trkpt>
      <trkpt lat="-21.19206" lon="55.54175">
        <ele>1445.5</ele>
        <time>2013-08-28T08:29:08Z</time>
      </trkpt>
      <trkpt lat="-21.19207" lon="55.54166">
        <ele>1445.7</ele>
        <time>2013-08-28T08:29:11Z</time>
      </trkpt>
      <trkpt lat="-21.19209" lon="55.54157">
        <ele>1445.7</ele>
        <time>2013-08-28T08:29:14Z</time>
      </trkpt>
      <trkpt lat="-21.1921" lon="55.54148">
        <ele>1445.5</ele>
        <time>2013-08-28T08:29:17Z</time>
      </trkpt>
      <trkpt lat="-21.19211" lon="55.54139">
        <ele>1446</ele>
        <time>2013-08-28T08:29:20Z</time>
      </trkpt>
      <trkpt lat="-21.19211" lon="55.54131">
        <ele>1445.1</ele>
        <time>2013-08-28T08:29:23Z</time>
      </trkpt>
      <trkpt lat="-21.19211" lon="55.54121">
        <ele>1445</ele>
        <time>2013-08-28T08:29:26Z</time>
      </trkpt>
      <trkpt lat="-21.19212" lon="55.54112">
        <ele>1444.5</ele>
        <time>2013-08-28T08:29:29Z</time>
      </trkpt>
      <trkpt lat="-21.19213" lon="55.54103">
        <ele>1443.3</ele>
        <time>2013-08-28T08:29:32Z</time>
      </trkpt>
      <trkpt lat="-21.19213" lon="55.54094">
        <ele>1442.1</ele>
        <time>2013-08-28T08:29:35Z</time>
      </trkpt>
      <trkpt lat="-21.19213" lon="55.54085">
        <ele>1440.9</ele>
        <time>2013-08-28T08:29:38Z</time>
      </trkpt>
      <trkpt lat="-21.19214" lon="55.54082">
        <ele>1440.4</ele>
        <time>2013-08-28T08:29:39Z</time>
      </trkpt>
      <trkpt lat="-21.19217" lon="55.54067">
        <ele>1438.9</ele>
        <time>2013-08-28T08:29:44Z</time>
      </trkpt>
      <trkpt lat="-21.19218" lon="55.54058">
        <ele>1437.6</ele>
        <time>2013-08-28T08:29:47Z</time>
      </trkpt>
      <trkpt lat="-21.19221" lon="55.5405">
        <ele>1436.8</ele>
        <time>2013-08-28T08:29:50Z</time>
      </trkpt>
      <trkpt lat="-21.19222" lon="55.54044">
        <ele>1436.6</ele>
        <time>2013-08-28T08:29:52Z</time>
      </trkpt>
      <trkpt lat="-21.19225" lon="55.54035">
        <ele>1436.5</ele>
        <time>2013-08-28T08:29:55Z</time>
      </trkpt>
      <trkpt lat="-21.19228" lon="55.54026">
        <ele>1435.9</ele>
        <time>2013-08-28T08:29:58Z</time>
      </trkpt>
      <trkpt lat="-21.19231" lon="55.54017">
        <ele>1434.8</ele>
        <time>2013-08-28T08:30:01Z</time>
      </trkpt>
      <trkpt lat="-21.19234" lon="55.54011">
        <ele>1434</ele>
        <time>2013-08-28T08:30:03Z</time>
      </trkpt>
      <trkpt lat="-21.19236" lon="55.54005">
        <ele>1433.6</ele>
        <time>2013-08-28T08:30:05Z</time>
      </trkpt>
      <trkpt lat="-21.19239" lon="55.53999">
        <ele>1432.9</ele>
        <time>2013-08-28T08:30:07Z</time>
      </trkpt>
      <trkpt lat="-21.19241" lon="55.53993">
        <ele>1432.6</ele>
        <time>2013-08-28T08:30:09Z</time>
      </trkpt>
      <trkpt lat="-21.19243" lon="55.53987">
        <ele>1432.1</ele>
        <time>2013-08-28T08:30:11Z</time>
      </trkpt>
      <trkpt lat="-21.19245" lon="55.53981">
        <ele>1431.5</ele>
        <time>2013-08-28T08:30:13Z</time>
      </trkpt>
      <trkpt lat="-21.19248" lon="55.53972">
        <ele>1431</ele>
        <time>2013-08-28T08:30:16Z</time>
      </trkpt>
      <trkpt lat="-21.19251" lon="55.53963">
        <ele>1429.9</ele>
        <time>2013-08-28T08:30:19Z</time>
      </trkpt>
      <trkpt lat="-21.19253" lon="55.53957">
        <ele>1429.4</ele>
        <time>2013-08-28T08:30:21Z</time>
      </trkpt>
      <trkpt lat="-21.19257" lon="55.53948">
        <ele>1428.9</ele>
        <time>2013-08-28T08:30:24Z</time>
      </trkpt>
      <trkpt lat="-21.19259" lon="55.53942">
        <ele>1427.8</ele>
        <time>2013-08-28T08:30:26Z</time>
      </trkpt>
      <trkpt lat="-21.19261" lon="55.53936">
        <ele>1427</ele>
        <time>2013-08-28T08:30:28Z</time>
      </trkpt>
      <trkpt lat="-21.19263" lon="55.5393">
        <ele>1426.4</ele>
        <time>2013-08-28T08:30:30Z</time>
      </trkpt>
      <trkpt lat="-21.19266" lon="55.53923">
        <ele>1426</ele>
        <time>2013-08-28T08:30:32Z</time>
      </trkpt>
      <trkpt lat="-21.19268" lon="55.53917">
        <ele>1425.9</ele>
        <time>2013-08-28T08:30:34Z</time>
      </trkpt>
      <trkpt lat="-21.1927" lon="55.53911">
        <ele>1426</ele>
        <time>2013-08-28T08:30:36Z</time>
      </trkpt>
      <trkpt lat="-21.19271" lon="55.53902">
        <ele>1425.4</ele>
        <time>2013-08-28T08:30:39Z</time>
      </trkpt>
      <trkpt lat="-21.19271" lon="55.53899">
        <ele>1425</ele>
        <time>2013-08-28T08:30:40Z</time>
      </trkpt>
      <trkpt lat="-21.19262" lon="55.53888">
        <ele>1424.4</ele>
        <time>2013-08-28T08:30:45Z</time>
      </trkpt>
      <trkpt lat="-21.19255" lon="55.53884">
        <ele>1424.4</ele>
        <time>2013-08-28T08:30:48Z</time>
      </trkpt>
      <trkpt lat="-21.19249" lon="55.5388">
        <ele>1425.4</ele>
        <time>2013-08-28T08:30:51Z</time>
      </trkpt>
      <trkpt lat="-21.19243" lon="55.53876">
        <ele>1425.2</ele>
        <time>2013-08-28T08:30:54Z</time>
      </trkpt>
      <trkpt lat="-21.19235" lon="55.53872">
        <ele>1425.1</ele>
        <time>2013-08-28T08:30:58Z</time>
      </trkpt>
      <trkpt lat="-21.19232" lon="55.53864">
        <ele>1425.8</ele>
        <time>2013-08-28T08:31:01Z</time>
      </trkpt>
      <trkpt lat="-21.19233" lon="55.53856">
        <ele>1425.8</ele>
        <time>2013-08-28T08:31:04Z</time>
      </trkpt>
      <trkpt lat="-21.19235" lon="55.53848">
        <ele>1425.1</ele>
        <time>2013-08-28T08:31:07Z</time>
      </trkpt>
      <trkpt lat="-21.19237" lon="55.5384">
        <ele>1424.2</ele>
        <time>2013-08-28T08:31:10Z</time>
      </trkpt>
      <trkpt lat="-21.19239" lon="55.53831">
        <ele>1424.1</ele>
        <time>2013-08-28T08:31:13Z</time>
      </trkpt>
      <trkpt lat="-21.19241" lon="55.53823">
        <ele>1423.9</ele>
        <time>2013-08-28T08:31:16Z</time>
      </trkpt>
      <trkpt lat="-21.19243" lon="55.53815">
        <ele>1423.2</ele>
        <time>2013-08-28T08:31:19Z</time>
      </trkpt>
      <trkpt lat="-21.19242" lon="55.53807">
        <ele>1422.4</ele>
        <time>2013-08-28T08:31:22Z</time>
      </trkpt>
      <trkpt lat="-21.19239" lon="55.538">
        <ele>1422.3</ele>
        <time>2013-08-28T08:31:25Z</time>
      </trkpt>
      <trkpt lat="-21.19236" lon="55.53792">
        <ele>1422.4</ele>
        <time>2013-08-28T08:31:28Z</time>
      </trkpt>
      <trkpt lat="-21.19235" lon="55.53784">
        <ele>1422.5</ele>
        <time>2013-08-28T08:31:31Z</time>
      </trkpt>
      <trkpt lat="-21.19232" lon="55.53777">
        <ele>1422.7</ele>
        <time>2013-08-28T08:31:34Z</time>
      </trkpt>
      <trkpt lat="-21.19229" lon="55.53768">
        <ele>1423.4</ele>
        <time>2013-08-28T08:31:39Z</time>
      </trkpt>
      <trkpt lat="-21.19224" lon="55.53764">
        <ele>1423.5</ele>
        <time>2013-08-28T08:31:42Z</time>
      </trkpt>
      <trkpt lat="-21.19222" lon="55.53763">
        <ele>1423.4</ele>
        <time>2013-08-28T08:31:43Z</time>
      </trkpt>
      <trkpt lat="-21.19212" lon="55.53755">
        <ele>1425.2</ele>
        <time>2013-08-28T08:31:48Z</time>
      </trkpt>
      <trkpt lat="-21.19206" lon="55.5375">
        <ele>1426.2</ele>
        <time>2013-08-28T08:31:51Z</time>
      </trkpt>
      <trkpt lat="-21.19201" lon="55.53744">
        <ele>1426.1</ele>
        <time>2013-08-28T08:31:54Z</time>
      </trkpt>
      <trkpt lat="-21.19196" lon="55.53739">
        <ele>1426.3</ele>
        <time>2013-08-28T08:31:57Z</time>
      </trkpt>
      <trkpt lat="-21.1919" lon="55.53733">
        <ele>1426.3</ele>
        <time>2013-08-28T08:32:01Z</time>
      </trkpt>
      <trkpt lat="-21.19183" lon="55.53729">
        <ele>1426.3</ele>
        <time>2013-08-28T08:32:08Z</time>
      </trkpt>
      <trkpt lat="-21.19178" lon="55.53722">
        <ele>1427.4</ele>
        <time>2013-08-28T08:32:14Z</time>
      </trkpt>
      <trkpt lat="-21.19175" lon="55.53718">
        <ele>1428.6</ele>
        <time>2013-08-28T08:32:18Z</time>
      </trkpt>
      <trkpt lat="-21.19174" lon="55.53718">
        <ele>1428.8</ele>
        <time>2013-08-28T08:32:19Z</time>
      </trkpt>
      <trkpt lat="-21.19174" lon="55.53718">
        <ele>1428.8</ele>
        <time>2013-08-28T08:32:19Z</time>
      </trkpt>
      <trkpt lat="-21.19173" lon="55.53716">
        <ele>1429</ele>
        <time>2013-08-28T08:32:21Z</time>
      </trkpt>
    </trkseg>
  </trk>
</gpx>